[[{"header":{"parameterUnit":"m.s-1","parameterCategory":1,"la1":30.6,"la2":28.766,"lo1":-90.7593,"lo2":-88.6598,"dy":0.0162,"dx":0.0183,"nx":116,"ny":114,"refTime":"2023-04-20T06:00:00:Z","depth":0,"parameterNumber":2,"parameterNumberName":"U-component_of_WINDS"},"data":[0.0,0.0,0.0,0.0,0.0,0.0,0.0,0.0,0.0,0.0,0.0,0.0,0.0,0.0,0.0,0.0,0.0,0.0,0.0,0.0,0.0,0.0,0.0,0.0,0.0,0.0,0.0,0.0,0.0,0.0,0.0,0.0,0.0,0.0,0.0,0.0,0.0,0.0,0.0,0.0,0.0,0.0,0.0,0.0,0.0,0.0,0.0,0.0,0.0,0.0,0.0,0.0,0.0,0.0,0.0,0.0,0.0,0.0,0.0,0.0,0.0,0.0,0.0,0.0,0.0,0.0,0.0,0.0,0.0,0.0,0.0,0.0,0.0,0.0,0.0,0.0,0.0,0.0,0.0,0.0,0.0,0.0,0.0,0.0,0.0,0.0,0.0,0.0,0.0,0.0,0.0,0.0,0.0,0.0,0.0,0.0,0.0,0.0,0.0,0.0,0.0,0.0,0.0,0.0,0.0,0.0,0.0,0.0,0.0,0.0,0.0,0.0,0.0,0.0,0.0,0.0,0.0,0.0,0.0,0.0,0.0,0.0,0.0,0.0,0.0,0.0,0.0,0.0,0.0,0.0,0.0,0.0,0.0,0.0,0.0,0.0,0.0,0.0,0.0,0.0,0.0,0.0,0.0,0.0,0.0,0.0,0.0,0.0,0.0,0.0,0.0,0.0,0.0,0.0,0.0,0.0,0.0,0.0,0.0,0.0,0.0,0.0,0.0,0.0,0.0,0.0,0.0,0.0,0.0,0.0,0.0,0.0,0.0,0.0,0.0,0.0,0.0,0.0,0.0,0.0,0.0,0.0,0.0,0.0,0.0,0.0,0.0,0.0,0.0,0.0,0.0,0.0,0.0,0.0,0.0,0.0,0.0,0.0,0.0,0.0,0.0,0.0,0.0,0.0,0.0,0.0,0.0,0.0,0.0,0.0,0.0,0.0,0.0,0.0,0.0,0.0,0.0,0.0,0.0,0.0,0.0,0.0,0.0,0.0,0.0,0.0,0.0,0.0,0.0,0.0,0.0,0.0,0.0,0.0,0.0,0.0,0.0,0.0,0.0,0.0,0.0,0.0,0.0,0.0,0.0,0.0,0.0,0.0,0.0,0.0,0.0,0.0,0.0,0.0,0.0,0.0,0.0,0.0,0.0,0.0,0.0,0.0,0.0,0.0,0.0,0.0,0.0,0.0,0.0,0.0,0.0,0.0,0.0,0.0,0.0,0.0,0.0,0.0,0.0,0.0,0.0,0.0,0.0,0.0,0.0,0.0,0.0,0.0,0.0,0.0,0.0,0.0,0.0,0.0,0.0,0.0,0.0,0.0,0.0,0.0,0.0,0.0,0.0,0.0,0.0,0.0,0.0,0.0,0.0,0.0,0.0,0.0,0.0,0.0,0.0,0.0,0.0,0.0,0.0,0.0,0.0,0.0,0.0,0.0,0.0,0.0,0.0,0.0,0.0,0.0,0.0,0.0,0.0,0.0,0.0,0.0,0.0,0.0,0.0,0.0,0.0,0.0,0.0,0.0,0.0,0.0,0.0,0.0,0.0,0.0,0.0,0.0,0.0,0.0,0.0,0.0,0.0,0.0,0.0,0.0,0.0,0.0,0.0,0.0,0.0,0.0,0.0,0.0,0.0,0.0,0.0,0.0,0.0,0.0,0.0,0.0,0.0,0.0,0.0,0.0,0.0,0.0,0.0,0.0,0.0,0.0,0.0,0.0,0.0,0.0,0.0,0.0,0.0,0.0,0.0,0.0,0.0,0.0,0.0,0.0,0.0,0.0,0.0,0.0,0.0,0.0,0.0,0.0,0.0,0.0,0.0,0.0,0.0,0.0,0.0,0.0,0.0,0.0,0.0,0.0,0.0,0.0,0.0,0.0,0.0,0.0,0.0,0.0,0.0,0.0,0.0,0.0,0.0,0.0,0.0,0.0,0.0,0.0,0.0,0.0,0.0,0.0,0.0,0.0,0.0,0.0,0.0,0.0,0.0,0.0,0.0,0.0,0.0,0.0,0.0,0.0,0.0,0.0,0.0,0.0,0.0,0.0,0.0,0.0,0.0,0.0,0.0,0.0,0.0,0.0,0.0,0.0,0.0,0.0,0.0,0.0,0.0,0.0,0.0,0.0,0.0,0.0,0.0,0.0,0.0,0.0,0.0,0.0,0.0,0.0,0.0,0.0,0.0,0.0,0.0,0.0,0.0,0.0,0.0,0.0,0.0,0.0,0.0,0.0,0.0,0.0,0.0,0.0,0.0,0.0,0.0,0.0,0.0,0.0,0.0,0.0,0.0,0.0,0.0,0.0,0.0,0.0,0.0,0.0,0.0,0.0,0.0,0.0,0.0,0.0,0.0,0.0,0.0,0.0,0.0,0.0,0.0,0.0,0.0,0.0,0.0,0.0,0.0,0.0,0.0,0.0,0.0,0.0,0.0,0.0,0.0,0.0,0.0,0.0,0.0,0.0,0.0,0.0,0.0,0.0,0.0,0.0,0.0,0.0,0.0,0.0,0.0,0.0,0.0,0.0,0.0,0.0,0.0,0.0,0.0,0.0,0.0,0.0,0.0,0.0,0.0,0.0,0.0,0.0,0.0,0.0,0.0,0.0,0.0,0.0,0.0,0.0,0.0,0.0,0.0,0.0,0.0,0.0,0.0,0.0,0.0,0.0,0.0,0.0,0.0,0.0,0.0,0.0,0.0,0.0,0.0,0.0,0.0,0.0,0.0,0.0,0.0,0.0,0.0,0.0,0.0,0.0,0.0,0.0,0.0,0.0,0.0,0.0,0.0,0.0,0.0,0.0,0.0,0.0,0.0,0.0,0.0,0.0,0.0,0.0,0.0,0.0,0.0,0.0,0.0,0.0,0.0,0.0,0.0,0.0,0.0,0.0,0.0,0.0,0.0,0.0,0.0,0.0,0.0,0.0,0.0,0.0,0.0,0.0,0.0,0.0,0.0,0.0,0.0,0.0,0.0,0.0,0.0,0.0,0.0,0.0,0.0,0.0,0.0,0.0,0.0,0.0,0.0,0.0,0.0,0.0,0.0,0.0,0.0,0.0,0.0,0.0,0.0,0.0,0.0,0.0,0.0,0.0,0.0,0.0,0.0,0.0,0.0,0.0,0.0,0.0,0.0,0.0,0.0,0.0,0.0,0.0,0.0,0.0,0.0,0.0,0.0,0.0,0.0,0.0,0.0,0.0,0.0,0.0,0.0,0.0,0.0,0.0,0.0,0.0,0.0,0.0,0.0,0.0,0.0,0.0,0.0,0.0,0.0,0.0,0.0,0.0,0.0,0.0,0.0,0.0,0.0,0.0,0.0,0.0,0.0,0.0,0.0,0.0,0.0,0.0,0.0,0.0,0.0,0.0,0.0,0.0,0.0,0.0,0.0,0.0,0.0,0.0,0.0,0.0,0.0,0.0,0.0,0.0,0.0,0.0,0.0,0.0,0.0,0.0,0.0,0.0,0.0,0.0,0.0,0.0,0.0,0.0,0.0,0.0,0.0,0.0,0.0,0.0,0.0,0.0,0.0,0.0,0.0,0.0,0.0,0.0,0.0,0.0,0.0,0.0,0.0,0.0,0.0,0.0,0.0,0.0,0.0,0.0,0.0,0.0,0.0,0.0,0.0,0.0,0.0,0.0,0.0,0.0,0.0,0.0,0.0,0.0,0.0,0.0,0.0,0.0,0.0,0.0,0.0,0.0,0.0,0.0,0.0,0.0,0.0,0.0,0.0,0.0,0.0,0.0,0.0,0.0,0.0,0.0,0.0,0.0,0.0,0.0,0.0,0.0,0.0,0.0,0.0,0.0,0.0,0.0,0.0,0.0,0.0,0.0,0.0,0.0,0.0,0.0,0.0,0.0,0.0,0.0,0.0,0.0,0.0,0.0,0.0,0.0,0.0,0.0,0.0,0.0,0.0,0.0,0.0,0.0,0.0,0.0,0.0,0.0,0.0,0.0,0.0,0.0,0.0,0.0,0.0,0.0,0.0,0.0,0.0,0.0,0.0,0.0,0.0,0.0,0.0,0.0,0.0,0.0,0.0,0.0,0.0,0.0,0.0,0.0,0.0,0.0,0.0,0.0,0.0,0.0,0.0,0.0,0.0,0.0,0.0,0.0,0.0,0.0,0.0,0.0,0.0,0.0,0.0,0.0,0.0,0.0,0.0,0.0,0.0,0.0,0.0,0.0,0.0,0.0,0.0,0.0,0.0,0.0,0.0,0.0,0.0,0.0,0.0,0.0,0.0,0.0,0.0,0.0,0.0,0.0,0.0,0.0,0.0,0.0,0.0,0.0,0.0,0.0,0.0,0.0,0.0,0.0,0.0,0.0,0.0,0.0,0.0,0.0,0.0,0.0,0.0,0.0,0.0,0.0,0.0,0.0,0.0,0.0,0.0,0.0,0.0,0.0,0.0,0.0,0.0,0.0,0.0,0.0,0.0,0.0,0.0,0.0,0.0,0.0,0.0,0.0,0.0,0.0,0.0,0.0,0.0,0.0,0.0,0.0,0.0,0.0,0.0,0.0,0.0,0.0,0.0,0.0,0.0,0.0,0.0,0.0,0.0,0.0,0.0,0.0,0.0,0.0,0.0,0.0,0.0,0.0,0.0,0.0,0.0,0.0,0.0,0.0,0.0,0.0,0.0,0.0,0.0,0.0,0.0,0.0,0.0,0.0,0.0,0.0,0.0,0.0,0.0,0.0,0.0,0.0,0.0,0.0,0.0,0.0,0.0,0.0,0.0,0.0,0.0,0.0,0.0,0.0,0.0,0.0,0.0,0.0,0.0,0.0,0.0,0.0,0.0,0.0,0.0,0.0,0.0,0.0,0.0,0.0,0.0,0.0,0.0,0.0,0.0,0.0,0.0,0.0,0.0,0.0,0.0,0.0,0.0,0.0,0.0,0.0,0.0,0.0,0.0,0.0,0.0,0.0,0.0,0.0,0.0,0.0,0.0,0.0,0.0,0.0,0.0,0.0,0.0,0.0,0.0,0.0,0.0,0.0,0.0,0.0,0.0,0.0,0.0,0.0,0.0,0.0,0.0,0.0,0.0,0.0,0.0,0.0,0.0,0.0,0.0,0.0,0.0,0.0,0.0,0.0,0.0,0.0,0.0,0.0,0.0,0.0,0.0,0.0,0.0,0.0,0.0,0.0,0.0,0.0,0.0,0.0,0.0,0.0,0.0,0.0,0.0,0.0,0.0,0.0,0.0,0.0,0.0,0.0,0.0,0.0,0.0,0.0,0.0,0.0,0.0,0.0,0.0,0.0,0.0,0.0,0.0,0.0,0.0,0.0,0.0,0.0,0.0,0.0,0.0,0.0,0.0,0.0,0.0,0.0,0.0,0.0,0.0,0.0,0.0,0.0,0.0,0.0,0.0,0.0,0.0,0.0,0.0,0.0,0.0,0.0,0.0,0.0,0.0,0.0,0.0,0.0,0.0,0.0,0.0,0.0,0.0,0.0,0.0,0.0,0.0,0.0,0.0,0.0,0.0,0.0,0.0,0.0,0.0,0.0,0.0,0.0,0.0,0.0,0.0,0.0,0.0,0.0,0.0,0.0,0.0,0.0,0.0,0.0,0.0,0.0,0.0,0.0,0.0,0.0,0.0,0.0,0.0,0.0,0.0,0.0,0.0,0.0,0.0,0.0,0.0,0.0,0.0,0.0,0.0,0.0,0.0,0.0,0.0,0.0,0.0,0.0,0.0,0.0,0.0,0.0,0.0,0.0,0.0,0.0,0.0,0.0,0.0,0.0,0.0,0.0,0.0,0.0,0.0,0.0,0.0,0.0,0.0,0.0,0.0,0.0,0.0,0.0,0.0,0.0,0.0,0.0,0.0,0.0,0.0,0.0,0.0,0.0,0.0,0.0,0.0,0.0,0.0,0.0,0.0,0.0,0.0,0.0,0.0,0.0,0.0,0.0,0.0,0.0,0.0,0.0,0.0,0.0,0.0,0.0,0.0,0.0,0.0,0.0,0.0,0.0,0.0,0.0,0.0,0.0,0.0,0.0,0.0,0.0,0.0,0.0,0.0,0.0,0.0,0.0,0.0,0.0,0.0,0.0,0.0,0.0,0.0,0.0,0.0,0.0,0.0,0.0,0.0,0.0,0.0,0.0,0.0,0.0,0.0,0.0,0.0,0.0,0.0,0.0,0.0,0.0,0.0,0.0,0.0,0.0,0.0,0.0,0.0,0.0,0.0,0.0,0.0,0.0,0.0,0.0,0.0,0.0,0.0,0.0,0.0,0.0,0.0,0.0,0.0,0.0,0.0,0.0,0.0,-0.8255,-0.8255,-0.8255,-0.8255,-0.8255,-0.8108,-0.7891,0.0,0.0,0.0,0.0,0.0,0.0,0.0,0.0,0.0,0.0,0.0,0.0,0.0,0.0,0.0,0.0,0.0,0.0,0.0,0.0,0.0,0.0,0.0,0.0,0.0,0.0,0.0,0.0,0.0,0.0,0.0,0.0,0.0,0.0,0.0,0.0,0.0,0.0,0.0,0.0,0.0,0.0,0.0,0.0,0.0,0.0,0.0,0.0,0.0,0.0,0.0,0.0,0.0,0.0,0.0,0.0,0.0,0.0,0.0,0.0,0.0,0.0,0.0,0.0,0.0,0.0,0.0,0.0,0.0,0.0,0.0,0.0,0.0,0.0,0.0,0.0,0.0,0.0,0.0,0.0,0.0,0.0,0.0,0.0,0.0,0.0,0.0,0.0,0.0,0.0,0.0,0.0,0.0,0.0,0.0,-0.7988,-0.7988,-0.7988,-0.7988,-0.8027,0.0,0.0,0.0,0.0,0.0,0.0,-0.8328,-0.8335,-0.8389,-0.8505,-0.8505,-0.8505,-0.8505,-0.8505,-0.835,-0.8088,-0.8067,0.0,0.0,0.0,0.0,0.0,0.0,0.0,0.0,0.0,0.0,0.0,0.0,0.0,0.0,0.0,0.0,0.0,0.0,0.0,0.0,0.0,0.0,0.0,0.0,0.0,0.0,0.0,0.0,0.0,0.0,0.0,0.0,0.0,0.0,0.0,0.0,0.0,0.0,0.0,0.0,0.0,0.0,0.0,0.0,0.0,0.0,0.0,0.0,0.0,0.0,0.0,0.0,0.0,0.0,0.0,0.0,0.0,0.0,0.0,0.0,0.0,0.0,0.0,-0.4972,-0.4488,-0.4488,-0.4488,-0.4488,-0.4354,-0.187,-0.0774,-0.0794,0.0,0.0,0.0,0.0,0.0,0.0,0.0,0.0,0.0,0.0,0.0,0.0,0.0,0.0,0.0,0.0,0.0,0.0,0.0,0.0,-0.7988,-0.7988,-0.7988,-0.7988,-0.7988,-0.7988,-0.8074,-0.826,0.0,0.0,0.0,0.0,-0.8457,-0.8478,-0.8478,-0.8492,-0.8505,-0.8505,-0.8505,-0.8505,-0.8505,-0.8485,-0.8418,-0.8321,-0.8167,-0.7988,0.0,0.0,0.0,0.0,0.0,0.0,0.0,0.0,0.0,0.0,0.0,0.0,0.0,0.0,0.0,0.0,0.0,0.0,0.0,0.0,0.0,0.0,0.0,0.0,0.0,0.0,0.0,0.0,0.0,0.0,0.0,0.0,0.0,0.0,0.0,0.0,0.0,0.0,0.0,0.0,0.0,-0.7254,-0.7427,0.0,0.0,0.0,0.0,0.0,0.0,0.0,0.0,0.0,0.0,0.0,0.0,0.0,-0.7839,-0.6688,-0.6547,-0.5898,-0.474,-0.4583,-0.4504,-0.4504,-0.4504,-0.4504,-0.4477,-0.409,0.0,-0.3915,-0.3915,0.0,0.0,0.0,0.0,0.0,0.0,0.0,0.0,0.0,0.0,0.0,0.0,0.0,0.0,0.0,0.0,0.0,0.0,0.0,0.0,0.0,-0.7988,-0.8047,-0.816,-0.8167,-0.8228,-0.8403,-0.8417,0.0,0.0,-0.8505,-0.852,-0.8608,-0.8608,-0.8655,-0.8737,-0.8737,-0.8737,-0.8737,-0.8737,-0.8696,-0.8608,-0.8547,-0.8431,-0.8289,-0.8289,0.0,0.0,0.0,0.0,0.0,0.0,0.0,0.0,0.0,0.0,0.0,0.0,0.0,0.0,0.0,0.0,0.0,0.0,0.0,0.0,0.0,0.0,0.0,0.0,0.0,0.0,0.0,0.0,0.0,0.0,0.0,0.0,0.0,0.0,0.0,0.0,0.0,0.0,0.0,-0.7429,-0.8,-0.725,-0.7821,-0.8316,0.0,0.0,0.0,0.0,0.0,0.0,0.0,0.0,0.0,-0.871,-0.8845,-0.8605,-0.8023,-0.8103,-0.7834,-0.7243,-0.7243,-0.7243,-0.7243,-0.7243,-0.7243,-0.7243,-0.7243,-0.7265,-0.7122,-0.5265,-0.4508,-0.4508,0.0,0.0,0.0,0.0,-0.4329,-0.4279,0.0,0.0,0.0,0.0,0.0,0.0,0.0,0.0,0.0,0.0,0.0,0.0,-0.8067,-0.8074,-0.816,-0.8335,-0.8349,-0.841,-0.8533,-0.854,-0.856,-0.8601,-0.8601,-0.8655,-0.8737,-0.8743,-0.8798,-0.8912,-0.8912,-0.8912,-0.8912,-0.8912,-0.8852,-0.8743,-0.8743,-0.8662,-0.8505,-0.8505,-0.8505,-0.8505,0.0,0.0,0.0,0.0,0.0,0.0,0.0,0.0,0.0,0.0,0.0,0.0,0.0,0.0,0.0,0.0,0.0,0.0,0.0,0.0,0.0,0.0,0.0,0.0,0.0,0.0,0.0,0.0,0.0,0.0,0.0,0.0,0.0,0.0,0.0,0.0,0.0,-0.7869,-0.8138,-0.7127,-0.7895,-0.8539,0.0,0.0,0.0,0.0,0.0,0.0,-0.8879,-0.8879,-0.8933,-0.9021,-0.9186,-0.924,-0.924,-0.9356,-0.941,-0.941,-0.941,-0.941,-0.941,-0.941,-0.941,-0.941,-0.941,-0.941,-0.9203,-0.6757,-0.5746,-0.5746,-0.5746,-0.5728,-0.5701,-0.5652,-0.5603,-0.5576,0.0,0.0,0.0,0.0,0.0,0.0,0.0,0.0,0.0,0.0,0.0,-0.8074,-0.8267,-0.8281,-0.8342,-0.8485,-0.8498,-0.8533,-0.8689,-0.8696,-0.8737,-0.8879,-0.8885,-0.8892,-0.8899,-0.8899,-0.8906,-0.8912,-0.8912,-0.8912,-0.8912,-0.8912,-0.8906,-0.8899,-0.8899,-0.8737,-0.8505,-0.8505,-0.8505,-0.8505,-0.8505,0.0,0.0,0.0,0.0,0.0,0.0,0.0,0.0,0.0,0.0,0.0,0.0,0.0,0.0,0.0,0.0,0.0,0.0,0.0,0.0,0.0,0.0,0.0,0.0,0.0,0.0,0.0,0.0,0.0,0.0,0.0,0.0,0.0,0.0,0.0,0.0,0.0,0.0,-0.84,-0.8453,0.0,0.0,0.0,0.0,-0.9342,-0.9362,-0.9369,-0.9376,-0.9376,-0.9383,-0.939,-0.9396,-0.9396,-0.9396,-0.9403,-0.941,-0.941,-0.941,-0.941,-0.941,-0.941,-0.941,-0.941,-0.941,-0.941,-0.9381,-0.9231,-0.916,-0.916,-0.916,-0.9074,-0.8934,-0.8739,-0.8606,-0.8461,0.0,0.0,0.0,0.0,0.0,0.0,0.0,0.0,-0.7988,-0.7988,-0.8101,-0.8208,-0.8294,-0.8376,-0.8492,-0.8615,-0.8628,-0.8696,-0.8818,-0.8831,-0.8852,-0.8912,-0.8912,-0.8912,-0.8912,-0.8912,-0.8953,-0.9104,-0.9104,-0.913,-0.9225,-0.9225,-0.9225,-0.9225,-0.9225,-0.9164,-0.9077,-0.8859,-0.875,-0.875,-0.875,-0.875,0.0,0.0,0.0,0.0,0.0,0.0,0.0,0.0,0.0,0.0,0.0,0.0,0.0,0.0,0.0,0.0,0.0,0.0,0.0,0.0,0.0,0.0,0.0,0.0,0.0,0.0,0.0,0.0,0.0,0.0,0.0,0.0,0.0,0.0,0.0,0.0,0.0,-0.8941,-0.9029,0.0,-0.9211,-0.9225,-0.9266,-0.9403,-0.941,-0.9451,-0.9523,-0.953,-0.9571,-0.9659,-0.9666,-0.9713,-0.9778,-0.9778,-0.9863,-0.9988,-0.9988,-0.9988,-0.9988,-0.9856,-0.9778,-0.9771,-0.9707,-0.9666,-0.9666,-0.9666,-0.9551,-0.941,-0.941,-0.9376,-0.9322,-0.9239,-0.9191,-0.9137,0.0,0.0,0.0,0.0,0.0,0.0,0.0,-0.7988,-0.8033,-0.8088,-0.8208,-0.8335,-0.8437,-0.8506,-0.8621,-0.8743,-0.8757,-0.8804,-0.8906,-0.8912,-0.8933,-0.9008,-0.9008,-0.9008,-0.9008,-0.9008,-0.9083,-0.926,-0.926,-0.9308,-0.941,-0.941,-0.941,-0.941,-0.941,-0.941,-0.9396,-0.9171,-0.9027,-0.9008,-0.8933,-0.8912,-0.8912,0.0,0.0,0.0,0.0,0.0,0.0,0.0,0.0,0.0,0.0,0.0,0.0,0.0,0.0,0.0,0.0,0.0,0.0,0.0,0.0,0.0,0.0,0.0,0.0,0.0,0.0,0.0,0.0,0.0,0.0,0.0,0.0,0.0,0.0,0.0,-0.926,-0.926,-0.9349,-0.943,-0.9456,-0.9456,-0.9496,-0.9598,-0.9605,-0.9673,-0.9829,-0.9836,-0.9876,-0.9971,-0.9978,-1.0025,-1.0096,-1.0096,-1.0181,-1.0315,-1.0315,-1.0315,-1.0308,-1.0175,-1.0096,-1.0089,-1.0019,-0.9978,-0.9978,-0.9978,-0.9863,-0.9703,-0.9571,-0.953,-0.9523,-0.9476,-0.9456,-0.9449,0.0,0.0,0.0,0.0,0.0,0.0,-0.7988,-0.7995,-0.8074,-0.8274,-0.8308,-0.8417,-0.8676,-0.8716,-0.875,-0.8899,-0.8912,-0.8912,-0.8968,-0.894,-0.9008,-0.9214,-0.9214,-0.9214,-0.9214,-0.9214,-0.9267,-0.9417,-0.9417,-0.9417,-0.9424,-0.9424,-0.9424,-0.9424,-0.9424,-0.9424,-0.9424,-0.9417,-0.9328,-0.9186,-0.9008,-0.8919,-0.8919,0.0,0.0,0.0,0.0,0.0,0.0,0.0,0.0,0.0,0.0,0.0,0.0,0.0,0.0,0.0,0.0,0.0,0.0,0.0,0.0,0.0,0.0,0.0,0.0,0.0,0.0,0.0,0.0,0.0,0.0,0.0,0.0,0.0,-0.941,-0.9417,-0.9417,-0.9417,-0.9424,-0.9462,-0.9612,-0.9625,-0.9717,-1.0001,-1.0028,-1.0089,-1.0301,-1.0315,-1.0315,-1.0315,-1.0315,-1.0322,-1.0297,-1.0329,-1.0335,-1.0342,-1.0342,-1.0342,-1.0342,-1.0329,-1.0297,-1.0297,-1.0315,-1.0315,-1.0315,-1.0315,-1.0315,-1.0281,-0.9951,-0.9798,-0.9785,-0.9673,-0.9618,-0.9598,0.0,0.0,0.0,0.0,0.0,0.0,-0.7988,-0.8133,-0.8247,-0.8294,-0.8459,-0.8621,-0.8703,-0.8784,-0.8865,-0.8906,-0.8912,-0.9348,-1.0433,-0.9642,-0.9192,-0.9342,-0.924,-0.9233,-0.9342,-0.9349,-0.9424,-0.9544,-0.9544,-0.9598,-0.97,-0.97,-0.97,-0.97,-0.97,-0.97,-0.9693,-0.9591,-0.9523,-0.9469,-0.932,-0.9191,-0.9124,0.0,0.0,0.0,0.0,0.0,0.0,0.0,0.0,0.0,0.0,0.0,0.0,0.0,0.0,0.0,0.0,0.0,0.0,0.0,0.0,0.0,0.0,0.0,0.0,0.0,0.0,0.0,0.0,0.0,0.0,0.0,0.0,-0.9625,-0.9437,-0.9476,-0.9544,-0.9544,-0.9704,-0.9852,-0.9893,-1.0032,-1.0127,-1.0209,-1.0215,-1.0236,-1.0308,-1.0315,-1.0315,-1.0315,-1.0378,-1.0487,-1.0602,-1.0677,-1.0819,-1.0955,-1.0955,-1.0955,-1.0948,-1.0697,-1.0602,-1.0588,-1.0371,-1.0315,-1.0315,-1.0315,-1.0315,-1.0301,-1.0188,-1.0086,-0.9954,-0.9913,-0.9825,-0.9724,0.0,0.0,0.0,0.0,0.0,0.0,-0.8101,-0.824,-0.8342,-0.8464,-0.8608,-0.871,-0.877,-0.8858,-0.8912,-0.8912,-0.9458,-1.0245,-1.1192,-1.1201,-1.0615,-0.9372,-0.9853,-0.9939,-0.9505,-0.9476,-0.9551,-0.97,-0.97,-0.971,-0.9792,-0.9792,-0.9792,-0.9792,-0.9792,-0.9792,-0.9785,-0.9704,-0.97,-0.9693,-0.9598,-0.9464,-0.9274,-0.9274,-0.9226,-0.9095,-0.9095,-0.9095,-0.9095,-0.9095,0.0,0.0,0.0,0.0,0.0,0.0,0.0,0.0,0.0,0.0,0.0,0.0,0.0,0.0,0.0,0.0,0.0,0.0,0.0,0.0,0.0,0.0,0.0,0.0,-0.9846,-0.9825,-0.9686,-0.971,-0.9765,-0.9765,-0.9974,-1.0148,-1.0148,-1.0229,-1.0363,-1.0453,-1.0466,-1.0521,-1.0676,-1.0682,-1.0682,-1.0682,-1.0764,-1.0819,-1.0907,-1.0995,-1.1084,-1.12,-1.12,-1.12,-1.1193,-1.0982,-1.0907,0.0,-1.0724,-1.0682,-1.0682,-1.0682,-1.0616,0.0,0.0,0.0,0.0,0.0,-1.0086,-1.0012,0.0,0.0,0.0,0.0,0.0,0.0,-0.8274,-0.8461,-0.8598,-0.8702,-0.8858,-0.9029,-0.914,-0.8989,-0.9044,-0.9375,-1.0433,-1.1268,-1.1698,-1.3218,-1.2815,-0.988,-1.0922,-1.1118,-1.019,-0.9982,-1.0053,-1.0331,-1.0331,-1.024,-1.0058,-1.0058,-0.9974,-0.9792,-0.9792,-0.9792,-0.9792,-0.9792,-0.9792,-0.9792,-0.9792,-0.9652,-0.9437,-0.9437,-0.9424,-0.941,-0.941,-0.941,-0.941,-0.941,0.0,0.0,0.0,0.0,0.0,0.0,0.0,0.0,0.0,0.0,0.0,0.0,0.0,0.0,0.0,0.0,0.0,0.0,0.0,0.0,0.0,0.0,0.0,0.0,-0.9947,-1.0042,-1.0042,-1.0076,-1.0082,-1.0049,-1.0229,-1.0363,-1.0363,-1.039,-1.0487,-1.0751,-1.0772,-1.0887,-1.1186,0.0,0.0,0.0,0.0,-1.1227,-1.1227,-1.124,-1.1247,-1.1247,-1.1247,-1.1247,-1.1247,-1.1234,-1.1227,-1.122,-1.1206,-1.12,-1.12,-1.12,-1.109,-1.0894,-1.048,-1.0304,-1.0335,-1.0315,-1.0315,-1.0315,0.0,0.0,0.0,0.0,0.0,0.0,-0.8274,-0.9414,-0.9873,-0.8843,-0.9837,-1.0658,-1.0672,-0.9616,-0.9864,-1.2245,-1.1619,-1.168,-1.3006,-1.4608,-1.4837,-1.3308,-1.2378,-1.2434,-1.3619,-1.2376,-1.2363,-1.3676,-1.3676,-1.3018,-1.1736,-1.1736,-1.105,-0.9792,-0.9792,-0.9792,-0.9792,-0.9792,-0.9792,-0.9792,-0.9792,-0.972,-0.9564,-0.9564,-0.949,-0.941,-0.941,-0.941,-0.941,-0.941,-0.9462,-0.9564,-0.9564,-0.9646,0.0,0.0,0.0,0.0,0.0,0.0,0.0,0.0,0.0,0.0,0.0,0.0,0.0,0.0,0.0,0.0,0.0,0.0,0.0,-0.9974,-1.0134,-1.0236,-1.0236,-1.0439,-1.0468,-1.0263,-1.0473,-1.0636,-1.0636,-1.0887,-1.105,-1.1104,-1.1111,-1.1138,-1.1193,-1.12,0.0,-1.12,-1.1315,-1.1348,-1.1348,-1.147,-1.1531,-1.1531,0.0,0.0,-1.1525,-1.1402,-1.1348,-1.1376,-1.1254,-1.12,-1.12,-1.12,-1.1179,-1.1111,-1.0629,-1.0453,-1.0439,-1.0356,-1.0315,-1.0315,0.0,0.0,0.0,0.0,0.0,0.0,-0.8369,-0.9716,-1.0251,-0.8954,-1.0778,-1.1919,-1.1191,-1.1109,-1.1701,-1.3156,-1.342,-1.3754,-1.4418,-1.6171,-1.6267,-1.4141,-1.4166,-1.4366,-1.4599,-1.3795,-1.3795,-1.4599,-1.4599,-1.4183,-1.3407,-1.3407,-1.2958,-1.2157,-1.1344,-1.0989,-1.0959,-1.0149,-0.9792,-0.9792,-0.9792,-0.9751,-0.9683,-0.9683,-0.9666,-0.9598,-0.9598,-0.9598,-0.9598,-0.9598,-0.9652,-0.9683,-0.9683,-0.9737,-0.9792,0.0,0.0,0.0,0.0,0.0,0.0,0.0,0.0,0.0,0.0,0.0,0.0,0.0,0.0,-0.9927,-1.0039,0.0,-1.0168,-1.0168,-1.0351,-1.05,-1.05,-1.0751,-1.0833,-1.0534,-1.0765,-1.0941,-1.0941,-1.1111,-1.1227,-1.1308,-1.1308,-1.1342,-1.1389,-1.1389,-1.1423,-1.1497,-1.1572,-1.1647,-1.1764,-1.1803,-1.1843,-1.1843,-1.1843,-1.1803,-1.1685,-1.1647,-1.1572,-1.1504,-1.1423,-1.1389,-1.1389,-1.1342,-1.1308,-1.1281,-1.0982,-1.0785,-1.0677,-1.061,-1.0568,-1.05,0.0,0.0,0.0,0.0,0.0,0.0,0.0,-0.9956,-1.067,-0.9446,-1.1864,-1.3264,-1.2082,-1.2751,-1.3399,-1.3669,-1.5259,-1.6105,-1.5835,-1.7503,-1.7408,-1.4893,-1.5938,-1.6257,-1.5548,-1.5222,-1.5222,-1.5529,-1.5529,-1.537,-1.5074,-1.5074,-1.4718,-1.4063,-1.2787,-1.2037,-1.1645,-1.0361,-0.9792,-0.9792,-0.9792,-0.9792,-0.9792,-0.9792,-0.9792,-0.9792,-0.9792,-0.9792,-0.9792,-0.9792,-0.9792,-0.9792,-0.9792,-0.9792,-0.9792,-0.9792,-0.9792,0.0,0.0,0.0,0.0,0.0,0.0,0.0,0.0,-0.9832,-0.9879,-1.0028,-1.0062,-1.0103,-1.0256,-1.0331,-1.0365,-1.0365,-1.0616,-1.0806,-1.0806,-1.1036,-1.1152,-1.088,-1.1063,-1.124,-1.124,-1.1268,-1.1314,-1.1463,-1.1477,-1.1545,-1.1694,-1.1708,-1.1755,-1.1834,-1.1877,-1.1938,-1.2098,-1.2098,-1.2098,-1.2098,-1.2098,-1.2036,-1.1877,-1.1877,-1.1816,-1.1701,-1.1674,-1.1611,-1.1577,-1.1484,-1.1436,-1.1423,-1.1336,-1.1165,-1.0995,-1.0968,-1.088,-1.0806,0.0,0.0,0.0,0.0,0.0,0.0,0.0,0.0,-1.2103,-1.083,-1.3304,-1.5091,-1.4931,-1.3938,-1.3804,-1.5064,-1.6551,-1.7397,-1.7371,-1.8061,-1.8352,-1.8006,-1.7313,-1.7535,-1.8823,-1.7455,-1.7413,-1.8865,-1.8865,-1.814,-1.6727,-1.6727,-1.5212,-1.2449,-1.2277,-1.1412,-1.0058,-0.9883,-0.9792,-0.9792,-0.9792,-0.9792,-0.9792,-0.9792,-0.9792,-0.9792,-0.9792,-0.9792,-0.9792,-0.9792,-0.9792,-0.9792,-0.9792,-0.9792,-0.9792,-0.9792,-0.9792,-0.9792,-0.9792,-0.9792,-0.9792,-0.9792,-0.9792,-0.9825,0.0,-0.9994,-1.0035,-1.0222,-1.0288,-1.0256,-1.0308,-1.0493,-1.067,-1.067,-1.0921,-1.1145,-1.1145,-1.1295,-1.1355,-1.1321,-1.1348,-1.1362,-1.1362,-1.1491,-1.159,-1.1732,-1.1746,-1.185,-1.2043,-1.205,-1.2057,-1.207,-1.207,-1.2084,-1.2098,-1.2098,-1.2098,-1.2098,-1.2098,-1.2091,-1.207,-1.207,-1.2064,-1.2043,-1.1864,-1.1698,-1.1619,-1.1563,-1.1592,-1.1592,-1.1572,-1.1477,-1.1328,-1.122,-1.1159,-1.1145,0.0,0.0,0.0,0.0,0.0,0.0,0.0,0.0,-1.2352,-1.1062,-1.4268,-1.6366,-1.5491,-1.5636,-1.6035,-1.6631,-1.7226,-1.7608,-1.7608,-1.7996,-1.8303,-1.8477,-1.8241,-1.851,-1.9388,-1.8735,-1.8735,-1.9401,-1.9401,-1.859,-1.6991,-1.6991,-1.5784,-1.3556,-1.2637,-1.1826,-1.114,-1.021,-0.9792,-0.9792,-0.9792,-0.9792,-0.9792,-0.9792,-0.9792,-0.9792,-0.9792,-0.9792,0.0,-0.9792,-0.9792,-0.9792,-0.9792,-0.9792,-0.9792,-0.9792,-0.9792,-0.9792,-0.9792,-0.9951,-1.0066,-0.9947,-0.9988,-1.0107,-1.0168,-1.0181,-1.0222,-1.0371,-1.0437,-1.046,-1.0636,-1.0738,-1.0846,0.0,-1.1158,-1.1329,-1.1329,-1.143,-1.1552,-1.164,-1.1647,-1.1647,-1.1647,-1.1789,-1.1898,-1.1959,-1.1965,-1.1993,-1.2098,-1.2098,-1.2139,-1.2189,-1.2234,-1.2237,-1.2318,-1.2318,-1.2318,-1.2318,-1.2318,-1.2277,-1.2234,-1.2234,-1.2186,-1.2098,-1.1993,-1.1932,-1.187,-1.1746,-1.1705,-1.1698,-1.1617,-1.1579,-1.1504,-1.1355,-1.1274,-1.12,0.0,0.0,0.0,0.0,0.0,0.0,0.0,0.0,0.0,0.0,-1.4969,-1.7108,-1.6115,-1.6962,-1.7608,-1.7608,-1.7608,-1.7424,-1.7015,-1.7621,-1.7979,-1.7896,-1.8533,-1.9065,-1.9388,-1.9401,-1.9401,-1.9401,-1.9401,-1.8794,-1.7647,-1.7647,-1.6797,-1.5222,-1.4024,-1.3018,-1.2127,-1.0959,-1.021,-0.9792,-0.9792,-0.9792,-0.9792,-0.9792,-0.9792,-0.9792,-0.9792,-0.9792,-0.9792,-0.9792,-0.9792,-0.9792,-0.9792,-0.9792,-0.9798,-0.9839,-0.9886,-0.9951,-0.9951,-1.0114,-1.0288,-1.0109,-1.0195,-1.0322,-1.0363,-1.0369,-1.0392,-1.0582,-1.0616,-1.0697,-1.0928,-1.1009,-1.1104,-1.124,-1.1355,-1.147,-1.1504,-1.1606,-1.1698,-1.1877,-1.1932,-1.1959,-1.1959,-1.2057,-1.2118,-1.2159,-1.2166,-1.2179,-1.222,-1.222,-1.2237,-1.2345,-1.2345,-1.24,-1.2501,-1.2501,-1.2501,-1.2501,-1.2501,-1.2447,-1.2345,-1.2345,-1.2271,-1.2166,-1.2166,-1.2139,-1.2091,-1.1938,-1.1898,-1.1877,-1.1698,-1.1681,-1.1624,-1.1511,-1.1382,-1.1322,0.0,0.0,0.0,0.0,0.0,0.0,0.0,0.0,0.0,0.0,0.0,-1.7301,-1.7529,-1.7582,-1.7608,-1.7608,-1.7608,-1.6988,-1.5556,-1.7044,-1.7502,-1.6398,-1.7999,-1.9065,-1.9388,-1.9401,-1.9401,-1.9401,-1.9401,-1.9372,-1.9343,-1.9343,-1.846,-1.6932,-1.6874,-1.5123,-1.2217,-1.2157,-1.1231,-0.9792,-0.9792,-0.9792,-0.9792,-0.9792,-0.9792,-0.9792,-0.9792,-0.9792,-0.9792,-0.9792,-0.9792,-0.9792,-0.9792,-0.9792,-0.9819,-0.9967,-1.0116,-1.0263,-1.0263,-1.0308,-1.0308,-1.0276,-1.0308,-1.0317,-1.0453,-1.0487,-1.0568,-1.084,-1.0901,-1.0948,-1.1166,-1.1308,-1.1382,-1.1382,-1.1511,-1.1624,-1.1759,-1.1786,-1.1884,-1.2077,-1.2227,-1.2277,0.0,-1.2186,-1.2159,-1.2271,-1.2284,-1.2345,-1.2481,-1.2488,-1.2488,-1.2494,-1.2494,-1.2501,-1.2501,-1.2501,-1.2501,-1.2501,-1.2501,-1.2501,-1.2494,-1.2494,-1.242,-1.2284,-1.2284,-1.2234,-1.2098,-1.2091,-1.2091,-1.2077,-1.1884,-1.1786,-1.1773,-1.1631,-1.157,-1.1606,0.0,0.0,0.0,0.0,0.0,0.0,0.0,0.0,0.0,0.0,0.0,0.0,0.0,0.0,0.0,0.0,-1.7608,-1.7397,-1.6896,-1.741,-1.7233,-1.6093,-1.7702,-1.8307,-1.7609,-1.879,-1.9401,-1.9401,-1.9401,-1.8327,-1.6208,-1.6208,-1.4807,-1.2209,-1.2209,-1.1615,-1.0604,-1.0604,-1.0301,-0.9792,-0.9792,-0.9792,-0.9792,-0.9792,-1.0452,-1.1261,0.0,-0.9792,-0.9792,-0.9792,-0.9792,-0.9792,-0.9792,-0.9792,-0.9819,-0.9974,-1.0197,-1.0399,-1.0304,-1.0426,-1.0548,-1.0446,-1.0493,-1.0609,-1.0725,-1.0765,-1.0819,-1.105,-1.109,-1.1138,-1.1287,-1.1355,-1.1423,-1.1525,-1.1586,-1.1631,-1.1773,-1.1793,-1.1925,-1.2182,-1.2257,0.0,0.0,0.0,0.0,-1.2427,-1.2433,-1.2447,-1.2501,-1.2501,-1.2501,-1.2501,-1.2501,-1.2501,-1.2501,-1.2501,-1.2501,-1.2501,-1.2501,-1.2501,-1.2501,-1.2501,-1.2474,-1.2433,-1.2433,-1.24,-1.2345,-1.225,-1.221,-1.2234,-1.2047,-1.1986,-1.1979,-1.1968,-1.185,-1.1712,0.0,0.0,0.0,0.0,0.0,0.0,0.0,0.0,0.0,0.0,0.0,0.0,0.0,0.0,0.0,0.0,0.0,-1.7397,-1.6843,-1.7305,-1.7091,-1.5963,-1.7458,-1.8059,-1.7501,-1.8633,-1.9294,-1.9401,-1.9401,-1.8357,-1.6326,-1.6326,-1.5222,-1.3218,-1.3218,-1.2599,-1.1525,-1.1525,-1.1171,-1.0664,-1.0664,-1.0664,-1.0664,-1.0664,-1.0929,0.0,-1.0808,-1.0301,-0.9792,-0.9792,-1.0179,-1.0573,-0.9967,-0.9897,-1.0012,-1.013,-1.0385,-1.0555,-1.046,-1.0575,-1.0677,-1.0663,-1.0698,-1.0806,-1.0955,-1.1023,-1.1063,-1.1212,-1.1281,-1.1329,-1.1443,-1.147,-1.1525,-1.1638,-1.1658,-1.1732,-1.1965,-1.1993,-1.2088,-1.2338,-1.2366,-1.24,0.0,0.0,0.0,-1.2501,-1.2501,-1.2501,-1.2501,-1.2501,-1.2501,-1.2501,-1.2501,-1.2501,-1.2501,-1.2501,-1.2501,-1.2501,-1.2501,-1.2501,-1.2501,-1.2501,-1.2501,-1.2501,-1.2501,-1.2501,-1.2494,-1.2406,-1.2366,-1.2352,-1.2203,-1.2179,-1.2173,-1.2118,-1.2036,-1.1891,0.0,0.0,0.0,0.0,0.0,0.0,0.0,0.0,0.0,0.0,0.0,0.0,0.0,0.0,0.0,0.0,0.0,0.0,-1.561,-1.6817,-1.7078,-1.5912,-1.7225,-1.8221,-1.8751,-1.8848,-1.9065,-1.9374,-1.9388,-1.9372,-1.9272,-1.9272,-1.9243,-1.9156,-1.9156,-1.7455,-1.4599,-1.4599,-1.3706,-1.2337,-1.2337,-1.2337,-1.2307,-1.2247,-1.1284,-1.021,-1.1585,-1.1201,-1.0028,-0.9937,-1.0868,-1.1796,-1.027,-1.0032,-1.0342,-1.0568,-1.0726,-1.0817,-1.0817,-1.0824,-1.0865,-1.088,-1.0921,-1.0961,-1.1172,-1.1206,-1.1254,-1.1369,-1.1402,-1.145,-1.1592,-1.1584,-1.1624,-1.1759,-1.1786,-1.1895,-1.2237,-1.2284,-1.2345,0.0,0.0,0.0,0.0,0.0,0.0,-1.2501,0.0,-1.2501,-1.2501,-1.2501,-1.2501,-1.2501,-1.2501,-1.2501,-1.2501,-1.2501,-1.2501,-1.2501,-1.2501,-1.2501,-1.2501,-1.2501,-1.2501,-1.2501,-1.2501,-1.2501,-1.2501,-1.2501,-1.2501,-1.2488,-1.2352,-1.2298,-1.2284,-1.2173,-1.2118,-1.2091,0.0,0.0,0.0,0.0,0.0,0.0,0.0,0.0,0.0,0.0,0.0,0.0,0.0,0.0,0.0,0.0,0.0,0.0,-1.6988,-1.7397,-1.6987,-1.5597,-1.7122,-1.7587,-1.6673,-1.8117,-1.893,-1.9038,-1.9294,-1.8794,-1.7601,-1.7601,-1.6973,-1.5825,-1.5825,-1.537,-1.4599,-1.4599,-1.4361,-1.3974,-1.3974,-1.3974,-1.3855,-1.2667,-1.2689,-1.3108,-1.114,-1.1675,-1.3198,-1.2006,-1.105,-1.0331,-0.9943,-1.0032,-1.0569,-1.1893,-1.2435,-1.2643,-1.2643,-1.2706,-1.2484,-1.1205,-1.0995,-1.1145,-1.1301,-1.1335,-1.1375,-1.1531,-1.1558,-1.1572,-1.1577,-1.1584,-1.1597,-1.1667,-1.1726,0.0,-1.2132,-1.2254,0.0,-1.2481,-1.2501,-1.2501,-1.2501,-1.2501,0.0,0.0,-1.2501,-1.2501,-1.2501,-1.2501,-1.2501,-1.2501,-1.2501,-1.2501,-1.2501,-1.2501,-1.2501,-1.2501,-1.2501,-1.2501,-1.2501,-1.2501,-1.2501,-1.2501,-1.2501,-1.2501,-1.2501,-1.2501,-1.2501,-1.2501,-1.2461,-1.2447,-1.244,-1.2406,-1.2325,-1.223,0.0,0.0,0.0,0.0,0.0,0.0,0.0,0.0,0.0,0.0,0.0,0.0,0.0,0.0,0.0,0.0,0.0,0.0,0.0,-1.7226,-1.7226,-1.6393,-1.7316,-1.7513,-1.6832,-1.7944,-1.8569,-1.8731,-1.9025,-1.8727,-1.7836,-1.799,-1.7572,-1.6709,-1.6709,-1.6326,-1.5636,-1.5636,-1.5636,0.0,0.0,-1.5636,-1.5548,-1.4648,-1.4004,-1.3407,-1.2307,-1.2607,-1.3287,-1.1675,-1.0536,-0.992,-1.0715,-1.064,-1.064,-1.2464,-1.3128,-1.3488,-1.4232,-1.3989,-1.3293,-1.2402,-1.173,-1.1301,-1.1457,-1.1491,-1.1518,-1.1563,-1.1584,-1.1584,-1.1584,-1.1584,-1.1604,-1.1665,-1.1837,-1.1986,-1.2179,-1.2291,-1.2413,-1.2494,-1.2501,0.0,-1.2501,-1.2501,-1.2501,0.0,-1.2501,-1.2501,-1.2501,-1.2501,-1.2535,-1.2603,-1.2603,-1.2603,-1.2603,-1.2603,-1.2569,-1.2501,-1.2501,-1.2501,-1.2501,-1.2501,-1.2501,-1.2501,0.0,-1.2501,-1.2501,-1.2501,-1.2501,-1.2501,-1.2501,-1.2501,-1.2501,-1.2501,-1.2447,-1.2386,0.0,0.0,0.0,0.0,0.0,0.0,0.0,0.0,0.0,0.0,-0.8281,0.0,0.0,0.0,0.0,0.0,0.0,0.0,0.0,0.0,-1.7305,-1.7305,-1.7305,-1.741,-1.7646,-1.7685,-1.7952,-1.8437,-1.8703,-1.8836,-1.885,-1.9132,-1.9308,-1.9334,-1.9334,-1.858,-1.7296,-1.7091,-1.712,-1.7296,-1.7091,-1.712,-1.7296,0.0,-1.5271,-1.2988,-1.4183,-1.3556,-1.2006,-1.0596,-0.9974,-1.0116,-1.1831,-1.1409,-1.0711,-1.277,-1.3503,-1.397,-1.5492,-1.5087,-1.4175,-1.3866,-1.2804,-1.1769,-1.1621,-1.1584,-1.1584,-1.1584,-1.1584,-1.1584,-1.1584,-1.1584,-1.1624,-1.1746,-1.1945,-1.2145,-1.2244,-1.24,-1.2501,-1.2501,-1.2501,-1.2501,-1.2501,-1.2501,-1.2508,-1.2528,-1.2528,-1.2528,-1.2528,-1.2528,-1.2603,-1.2752,-1.272,-1.272,-1.272,-1.272,-1.2684,-1.2528,-1.2528,-1.2522,-1.2501,-1.2501,-1.2501,-1.2501,0.0,0.0,-1.2501,-1.2501,-1.2501,-1.2501,-1.2501,-1.2501,-1.2501,-1.2501,-1.2501,-1.2501,0.0,0.0,0.0,0.0,0.0,0.0,0.0,0.0,0.0,0.0,-0.8187,-0.8417,0.0,0.0,0.0,0.0,0.0,0.0,0.0,0.0,0.0,-1.5769,-1.5769,-1.5793,-1.5841,-1.6112,-1.6869,-1.8103,-1.8424,-1.8571,-1.8571,-1.8624,-1.8771,-1.8998,-1.8998,-1.8988,-1.8881,-1.756,-1.7777,-1.8881,-1.753,-1.7806,-1.8852,-1.7501,0.0,0.0,-1.4985,-1.3556,-1.2157,-1.1886,-1.0899,-1.0095,-1.1716,-1.134,-1.0912,-1.4026,-1.5187,-1.5524,-1.5816,-1.704,-1.7514,-1.4538,-1.3858,-1.3484,-1.1965,-1.1584,-1.1584,-1.1584,-1.1584,-1.1584,-1.1584,-1.1584,-1.159,-1.1617,-1.1884,-1.2111,-1.2132,-1.2332,-1.2501,-1.2501,-1.2501,-1.2501,-1.2501,-1.2501,0.0,0.0,0.0,-1.2652,-1.2652,-1.2652,-1.2759,-1.2955,-1.2962,-1.2962,-1.2962,-1.2962,-1.284,-1.2652,-1.2652,-1.2623,-1.2501,-1.2501,-1.2501,-1.2501,-1.2501,0.0,-1.2501,-1.2501,-1.2501,-1.2501,-1.2501,-1.2501,-1.2501,-1.2501,-1.2501,-1.2501,0.0,0.0,0.0,0.0,0.0,0.0,0.0,-0.7988,-0.7988,-0.7988,-0.8081,-0.818,-0.8287,-0.8355,-0.8737,0.0,0.0,0.0,0.0,0.0,0.0,-1.5358,-1.469,-1.4663,-1.5384,-1.5567,-1.5611,-1.5557,0.0,-1.7853,-1.7182,-1.8079,-1.8571,-1.8704,-1.8823,-1.8998,-1.9088,-1.8497,-1.8677,-1.9243,-1.766,-1.7472,-1.8069,-1.7296,0.0,0.0,-1.4242,-1.2868,-1.2067,-1.1231,-1.0452,-0.9943,-1.0717,-1.1287,-1.1964,-1.3582,-1.4935,-1.6108,-1.7012,-1.7533,-1.7669,-1.6817,-1.6225,-1.5389,-1.3488,-1.3059,-1.2781,-1.1792,-1.1584,-1.1584,-1.1584,-1.1584,-1.1584,-1.1584,-1.187,-1.2098,-1.2098,-1.2318,-1.2501,-1.2501,-1.2501,-1.2501,-1.2501,-1.2501,0.0,0.0,0.0,-1.2766,-1.2847,-1.2922,-1.2996,-1.3111,-1.3186,-1.3152,-1.3111,-1.3111,-1.3037,-1.2847,-1.2766,-1.2652,-1.2617,-1.2535,-1.2501,-1.2501,-1.2501,0.0,-1.2501,-1.2501,-1.2501,-1.2501,-1.2501,-1.2501,-1.2501,-1.2501,-1.2501,-1.2501,0.0,0.0,0.0,0.0,0.0,0.0,0.0,-0.7988,-0.7988,-0.7988,-0.7988,-0.806,-0.8208,-0.8247,-0.8308,0.0,0.0,0.0,0.0,0.0,0.0,0.0,0.0,0.0,-1.4449,0.0,0.0,-1.3291,-1.5769,0.0,0.0,0.0,0.0,0.0,-1.8609,-1.8783,-1.8888,-1.8814,-1.9003,0.0,0.0,-1.6697,0.0,0.0,0.0,0.0,0.0,-1.2487,-1.2067,-1.114,-1.0596,-1.0301,-1.0301,-1.1441,-1.2881,-1.3228,-1.4779,-1.6594,-1.7655,-1.7828,-1.7894,-1.8839,-1.8392,-1.7107,-1.4832,-1.4371,-1.3855,-1.1966,-1.1572,-1.1572,-1.1572,-1.1572,-1.1579,-1.1613,-1.1843,-1.2064,-1.2091,-1.2329,-1.2467,-1.2501,-1.2501,0.0,-1.2501,-1.2528,0.0,0.0,0.0,0.0,-1.3043,-1.3186,-1.322,-1.322,-1.3336,-1.3342,-1.322,-1.322,-1.3193,-1.3043,-1.2881,-1.2753,-1.2686,-1.2603,-1.2535,-1.2501,-1.2501,0.0,0.0,-1.2501,-1.2501,-1.2501,-1.2501,-1.2501,-1.2501,-1.2501,-1.2501,-1.2501,0.0,0.0,0.0,0.0,0.0,0.0,0.0,-0.7988,-0.7988,-0.7988,-0.7988,-0.7995,-0.8033,-0.8033,-0.8101,0.0,0.0,0.0,0.0,0.0,0.0,0.0,0.0,0.0,0.0,0.0,0.0,-1.3291,-1.3582,0.0,0.0,0.0,0.0,0.0,0.0,-1.8396,-1.8805,-1.7367,0.0,0.0,0.0,0.0,0.0,0.0,0.0,0.0,0.0,-1.3437,-1.2397,-1.3706,-1.3198,-1.1976,-1.1976,-1.2178,-1.2771,-1.4328,-1.6274,-1.7639,-1.6475,-1.8582,-2.0753,-1.9131,-1.9055,-1.8423,-1.484,-1.4243,-1.3823,-1.1825,-1.1409,-1.1409,-1.1409,-1.1409,-1.1457,-1.1599,-1.1712,-1.1904,-1.2077,-1.2241,-1.2359,-1.2488,0.0,0.0,-1.2501,-1.263,0.0,0.0,0.0,0.0,-1.32,-1.3295,-1.3376,-1.3376,-1.3397,-1.3397,-1.3376,-1.3376,-1.3302,-1.3193,-1.318,-1.299,-1.2693,-1.2679,-1.263,-1.2501,-1.2501,0.0,0.0,-1.2501,-1.2501,-1.2501,-1.2501,-1.2501,-1.2501,-1.2501,-1.2501,-1.2501,0.0,0.0,0.0,0.0,0.0,0.0,-0.7988,-0.7988,-0.7988,-0.7988,-0.7988,-0.7988,-0.7988,-0.7988,-0.804,-0.8101,0.0,0.0,0.0,0.0,0.0,0.0,0.0,0.0,0.0,0.0,-1.1374,-1.1973,-1.2859,0.0,0.0,0.0,0.0,0.0,0.0,0.0,-1.7126,-1.7701,0.0,0.0,0.0,0.0,0.0,0.0,0.0,0.0,0.0,0.0,-1.2307,-1.2928,-1.2097,-1.108,-1.3018,-1.3673,-1.3511,-1.2472,-1.5098,-1.7989,-1.6346,-1.7911,-2.0086,-2.039,-2.0747,-2.0358,-1.7741,-1.6407,-1.5174,-1.325,-1.2004,-1.1315,-1.1375,-1.1389,-1.1443,-1.1592,-1.1705,-1.1884,-1.2077,-1.2234,-1.2345,-1.2481,-1.2501,0.0,0.0,0.0,0.0,0.0,0.0,0.0,-1.3315,-1.337,-1.3403,-1.3403,-1.3403,-1.3403,-1.3403,-1.3403,-1.337,-1.3308,-1.3254,-1.3112,-1.299,-1.2774,-1.2659,-1.263,-1.2542,0.0,0.0,-1.2501,-1.2501,-1.2501,-1.2501,-1.2501,-1.2501,-1.2501,-1.2501,-1.2501,0.0,0.0,0.0,0.0,0.0,-0.7988,-0.7988,-0.7988,-0.7988,-0.7988,-0.7988,-0.7988,-0.7988,-0.7988,-0.7988,-0.7988,-0.814,0.0,0.0,0.0,0.0,0.0,0.0,0.0,0.0,0.0,-1.046,-1.046,-1.1483,-1.1701,0.0,0.0,0.0,0.0,0.0,0.0,0.0,0.0,0.0,0.0,0.0,0.0,0.0,0.0,0.0,0.0,0.0,0.0,0.0,0.0,0.0,-1.0361,-1.3586,-1.4321,-1.3716,-1.2214,-1.4848,-1.7995,-1.6947,-1.7725,-1.9269,-2.1018,-2.1676,-2.1385,-1.9468,-1.8184,-1.6672,-1.4214,-1.2717,-1.1757,-1.1399,-1.1321,-1.1389,-1.1586,-1.1665,-1.1837,-1.207,-1.2193,-1.2291,-1.2481,0.0,-1.2501,0.0,0.0,0.0,0.0,0.0,0.0,0.0,-1.3403,-1.3403,-1.3403,-1.3403,-1.3403,-1.3403,-1.3403,-1.3403,-1.3397,-1.3295,-1.3254,-1.3207,-1.2915,-1.2773,-1.2679,0.0,0.0,0.0,-1.2501,-1.2501,-1.2501,-1.2501,-1.2501,-1.2501,-1.2501,-1.2501,-1.2501,0.0,0.0,0.0,0.0,0.0,0.0,-0.7988,-0.7988,-0.7988,-0.7988,-0.7988,-0.7988,-0.7988,-0.7988,-0.7988,-0.7988,-0.7988,0.0,0.0,0.0,0.0,0.0,0.0,0.0,0.0,0.0,-0.8912,-0.8912,-0.894,-0.9671,-1.1109,-1.1109,-1.1892,-1.3291,0.0,0.0,0.0,0.0,0.0,0.0,0.0,0.0,-0.9822,0.0,0.0,0.0,0.0,0.0,0.0,0.0,0.0,0.0,0.0,-1.3697,-1.2983,-1.4721,-1.6371,-1.7731,-1.8308,-1.848,-1.8928,-2.0652,-2.1368,-2.1097,-1.914,-1.8934,-1.8106,-1.4274,-1.3478,-1.2998,-1.1475,-1.12,-1.1302,-1.1572,-1.1584,-1.1721,-1.2057,-1.2098,-1.2213,0.0,0.0,-1.2501,-1.2501,0.0,0.0,0.0,0.0,0.0,0.0,-1.3403,-1.3403,-1.3403,-1.3403,-1.3403,-1.3403,-1.3403,-1.3403,-1.3403,-1.3397,-1.3315,-1.3207,-1.3064,-1.2874,0.0,0.0,0.0,0.0,-1.2501,-1.2501,-1.2501,-1.2501,-1.2501,-1.2501,-1.2501,-1.2501,-1.2501,0.0,0.0,0.0,0.0,0.0,0.0,0.0,-0.7988,-0.7988,-0.7988,-0.7988,-0.7988,-0.7988,-0.7988,-0.7988,-0.7988,-0.7988,0.0,0.0,0.0,0.0,0.0,0.0,0.0,0.0,-0.9373,-0.9403,-1.0406,-0.9403,-0.9127,-0.9588,-0.9588,-0.9836,-1.0351,-1.1347,0.0,0.0,0.0,0.0,0.0,0.0,-1.2659,-0.9913,0.0,0.0,0.0,0.0,0.0,0.0,0.0,0.0,0.0,0.0,0.0,0.0,-1.4872,-1.568,-1.6328,-1.6414,-1.7447,-1.864,-1.9196,-2.0304,-2.1083,-2.0496,-1.9519,-1.8042,-1.5643,-1.42,-1.2879,-1.1287,-1.1097,-1.1261,-1.143,-1.1552,-1.1721,-1.2057,-1.2098,-1.2207,-1.2467,-1.2501,-1.2583,0.0,0.0,0.0,0.0,0.0,0.0,0.0,-1.3403,-1.3403,-1.3403,-1.3403,-1.3403,-1.3403,-1.3403,-1.3403,-1.3403,-1.3403,-1.3376,-1.3322,-1.3111,0.0,0.0,0.0,0.0,0.0,-1.2501,-1.2501,-1.2501,-1.2501,-1.2501,-1.2501,-1.2501,-1.2501,-1.2501,0.0,0.0,0.0,0.0,0.0,0.0,0.0,-0.7988,-0.7988,-0.7988,-0.7988,-0.7988,-0.7988,-0.7988,-0.7988,-0.7988,-0.7988,0.0,0.0,0.0,0.0,0.0,0.0,0.0,-1.0056,-0.926,-0.9284,-1.0268,-0.9348,-0.8912,-0.8912,-0.8912,-0.8912,-0.894,-0.9864,-1.059,0.0,0.0,0.0,0.0,-1.3676,-1.2127,-0.9974,0.0,0.0,0.0,0.0,0.0,0.0,0.0,0.0,0.0,0.0,0.0,0.0,0.0,-1.4655,-1.4741,-1.6108,-1.6488,-1.6808,-1.8157,-1.8832,-1.9323,-1.9973,-1.9291,-1.7827,-1.5394,-1.4591,-1.3598,-1.1423,-1.1138,-1.1268,-1.1443,-1.1558,-1.1721,-1.2057,-1.2098,0.0,-1.2467,0.0,0.0,0.0,0.0,0.0,0.0,0.0,0.0,0.0,-1.3403,-1.3403,-1.3403,-1.3403,-1.3403,-1.3403,-1.3403,-1.3403,-1.3403,-1.3403,-1.3403,-1.339,-1.3152,0.0,0.0,0.0,0.0,0.0,-1.2501,-1.2501,-1.2501,-1.2501,-1.2501,-1.2501,-1.2501,-1.2501,-1.2501,0.0,0.0,0.0,0.0,0.0,0.0,0.0,-0.7988,-0.7988,-0.7988,-0.7988,-0.7988,-0.7988,-0.7988,-0.7988,-0.7988,0.0,0.0,0.0,0.0,0.0,0.0,0.0,0.0,-0.8689,-0.8703,-0.8757,-0.8912,-0.8912,-0.8912,-0.8912,-0.8912,-0.8912,-0.8912,-0.8912,-0.9741,-1.1251,0.0,0.0,0.0,-1.2217,-1.1284,0.0,0.0,0.0,0.0,0.0,0.0,0.0,0.0,0.0,0.0,0.0,0.0,0.0,0.0,0.0,0.0,0.0,-1.5623,-1.3915,-1.7289,-1.7001,-1.6302,-1.7956,-1.8404,0.0,-1.4166,-1.4777,-1.4964,-1.1905,-1.1255,-1.1295,-1.1552,-1.1584,-1.1735,-1.2057,-1.2118,0.0,0.0,-1.2501,0.0,0.0,0.0,0.0,0.0,0.0,0.0,0.0,-1.3403,-1.3403,-1.3403,-1.3403,-1.3403,-1.3403,-1.3403,-1.3403,-1.3403,-1.3403,-1.3403,-1.3397,-1.3241,0.0,0.0,0.0,0.0,0.0,-1.2501,-1.2501,-1.2501,-1.2501,-1.2501,-1.2501,-1.2501,-1.2501,-1.2501,0.0,0.0,0.0,0.0,0.0,0.0,0.0,0.0,0.0,0.0,-0.7988,-0.7988,-0.7988,-0.7988,-0.7988,0.0,0.0,0.0,0.0,0.0,0.0,0.0,0.0,0.0,-0.8533,-0.8648,-0.8757,-0.8912,-0.8912,-0.8912,-0.8912,-0.8912,-0.8912,-0.8912,-0.8912,-0.9922,-1.1663,-1.2232,0.0,0.0,-1.2217,-1.1976,0.0,0.0,0.0,0.0,-1.4599,-1.5311,0.0,0.0,0.0,0.0,0.0,0.0,0.0,0.0,-1.4341,-1.456,-1.6808,0.0,-1.3302,-1.4148,-1.5148,-1.601,0.0,-1.7538,-1.7891,-1.5719,-1.5622,-1.5319,-1.3327,-1.2001,-1.1261,-1.1416,-1.1633,-1.185,-1.207,-1.2295,0.0,-1.2494,-1.2501,0.0,0.0,0.0,0.0,0.0,0.0,0.0,0.0,-1.3403,-1.3403,-1.3403,-1.3403,-1.3403,-1.3403,-1.3403,-1.3403,-1.3403,-1.3403,-1.3403,-1.3397,-1.3241,0.0,0.0,0.0,0.0,-1.2501,-1.2501,-1.2501,-1.2501,-1.2501,-1.2501,-1.2501,-1.2501,-1.2501,-1.2501,0.0,0.0,0.0,0.0,0.0,0.0,0.0,0.0,0.0,0.0,0.0,-0.7988,-0.7988,-0.7988,0.0,0.0,0.0,0.0,0.0,0.0,0.0,0.0,0.0,-0.8262,-0.8505,-0.856,-0.8716,-0.8912,-0.8912,-0.8912,-0.8912,-0.8912,-0.8912,-0.8912,-0.9008,-0.9667,-1.0705,-1.0846,-1.0986,-1.111,-1.111,0.0,0.0,0.0,0.0,0.0,-1.4896,-1.5636,0.0,-1.5133,-1.4034,-1.3586,0.0,0.0,0.0,0.0,-1.5192,-1.4957,-1.6663,-1.5094,-1.3381,-1.4989,-1.5655,-1.6108,-1.6915,-1.7827,-1.7795,-1.5232,-1.5329,-1.5198,-1.2879,-1.1756,-1.1274,-1.1457,-1.1687,-1.1874,0.0,0.0,-1.2501,-1.2501,-1.2501,0.0,0.0,0.0,0.0,0.0,0.0,0.0,0.0,-1.3403,-1.3403,-1.3403,-1.3403,-1.3403,-1.3403,-1.3403,-1.3403,-1.3403,-1.3403,-1.3403,-1.3397,-1.3315,-1.32,0.0,0.0,0.0,-1.2501,-1.2501,-1.2501,-1.2501,-1.2501,-1.2501,-1.2501,-1.2501,-1.2501,-1.2501,0.0,0.0,0.0,0.0,0.0,0.0,0.0,0.0,0.0,0.0,0.0,0.0,0.0,0.0,0.0,0.0,0.0,0.0,0.0,0.0,0.0,0.0,-0.7988,-0.8155,-0.8498,-0.8505,-0.8628,-0.8912,-0.8912,-0.8912,-0.8912,-0.8912,-0.8926,-0.8953,-0.9152,-0.9301,-0.9422,-0.9578,-0.9683,-0.9792,-0.9792,0.0,0.0,0.0,0.0,0.0,0.0,0.0,0.0,-1.5133,-1.4748,-1.5163,-1.6285,0.0,0.0,0.0,0.0,0.0,-1.6639,-1.5378,-1.4307,-1.7008,-1.6785,-1.6302,-1.7763,-1.8308,-1.7602,-1.4362,-1.4903,-1.5143,-1.2502,-1.1828,-1.1734,-1.1994,-1.1937,-1.1972,-1.2277,-1.2427,-1.2501,-1.2501,0.0,0.0,0.0,0.0,0.0,0.0,0.0,0.0,0.0,-1.3403,-1.3403,-1.3403,-1.3403,-1.3403,-1.3403,-1.3403,-1.3403,-1.3403,-1.3728,-1.3887,-1.3887,-1.4259,-1.4045,0.0,0.0,0.0,-1.2501,-1.2501,-1.2501,-1.2501,-1.2501,-1.2501,-1.2501,-1.2501,-1.2501,-1.2501,0.0,0.0,0.0,0.0,0.0,0.0,0.0,0.0,0.0,0.0,0.0,0.0,0.0,0.0,0.0,0.0,0.0,0.0,0.0,0.0,0.0,-0.7988,-0.7988,-0.8155,-0.8498,-0.8505,-0.8628,-0.8912,-0.8912,-0.8912,-0.8912,-0.8912,-0.9001,-0.9152,-0.9308,-0.9429,-0.9585,-0.9697,-0.9771,-0.9792,-0.9792,0.0,0.0,0.0,0.0,0.0,0.0,0.0,0.0,-1.5133,-1.5518,-1.6433,-1.5311,0.0,0.0,0.0,0.0,0.0,-1.6932,-1.7067,-1.6907,-1.5949,-1.5832,-1.5978,-1.6237,-1.7441,-1.7923,-1.5913,-1.5803,-1.6012,-1.5798,-1.4655,-1.3794,-1.3937,-1.2889,-1.2166,0.0,0.0,-1.2501,0.0,0.0,0.0,0.0,0.0,0.0,0.0,0.0,0.0,0.0,-1.3403,-1.3403,-1.3403,-1.3403,-1.3403,-1.3403,-1.3403,-1.3403,-1.3397,-1.5226,-1.6123,-1.6164,-1.8037,-1.7736,0.0,0.0,-1.4492,-1.2501,-1.2501,-1.2501,-1.2501,-1.2501,-1.2501,-1.2501,-1.2501,-1.2501,-1.2501,0.0,0.0,0.0,0.0,0.0,0.0,0.0,0.0,0.0,0.0,0.0,0.0,0.0,0.0,0.0,0.0,0.0,0.0,0.0,0.0,-0.8054,-0.816,-0.8167,-0.8262,-0.8505,-0.856,-0.8716,-0.8912,-0.8912,-0.8912,-0.8912,-0.987,-1.0364,-1.0449,-1.0713,-1.0846,-1.0842,-1.0116,-1.0301,-1.111,0.0,0.0,0.0,0.0,0.0,0.0,0.0,0.0,0.0,0.0,-1.5666,-1.6874,-1.6138,0.0,0.0,0.0,0.0,0.0,-1.8069,-1.811,-1.7921,-1.7952,-1.8313,-1.8704,-1.8704,-1.9323,-1.9419,-1.7667,-1.7499,-1.7444,-1.6719,-1.6113,-1.5498,-1.4769,-1.3207,-1.2207,-1.2461,-1.2501,0.0,0.0,0.0,0.0,0.0,0.0,0.0,0.0,0.0,0.0,0.0,0.0,-1.3403,-1.3403,-1.3403,-1.3403,-1.3403,-1.4541,-1.5144,-1.5152,-1.6123,-1.722,-1.8404,-1.9461,-1.9143,-1.7826,0.0,-1.7048,-1.5693,-1.459,-1.4137,-1.4022,-1.2919,-1.3151,-1.4137,-1.4137,-1.3414,-1.2656,0.0,0.0,0.0,0.0,0.0,0.0,0.0,0.0,0.0,0.0,0.0,0.0,0.0,0.0,0.0,0.0,0.0,0.0,0.0,-0.8047,-0.8147,-0.8294,-0.8362,-0.8451,-0.8533,-0.8648,-0.8757,-0.8912,-0.9237,-0.9638,-1.0055,-1.1042,-1.1535,-1.1637,-1.2267,-1.2366,-1.2006,-1.1229,-1.1645,-1.2749,0.0,0.0,0.0,0.0,0.0,0.0,0.0,0.0,0.0,0.0,0.0,0.0,0.0,0.0,0.0,-1.859,-1.8227,-1.776,-1.8696,-1.8698,-1.8741,-2.0003,-2.0691,-2.1109,-2.1109,-2.1109,-2.0647,-1.8948,-1.8838,-1.8701,-1.7566,-1.7186,-1.6707,-1.5739,-1.3601,-1.235,-1.3101,0.0,0.0,0.0,0.0,0.0,0.0,0.0,0.0,0.0,0.0,0.0,0.0,0.0,-1.4664,-1.4176,-1.4664,-1.4912,-1.4912,-1.6533,-1.7097,-1.6606,-1.762,-1.9004,-2.0676,-2.12,-2.0902,-1.9983,-1.9983,-1.945,-1.8497,-1.6866,-1.6218,-1.6066,-1.4514,-1.4859,-1.6218,-1.6218,-1.5234,-1.4137,0.0,0.0,0.0,0.0,0.0,0.0,0.0,0.0,0.0,0.0,0.0,0.0,0.0,0.0,0.0,0.0,0.0,0.0,0.0,-0.8174,-0.8281,-0.8294,-0.8533,-0.8682,-0.8696,-0.8703,-0.8757,-0.8912,-1.0268,-1.1763,-1.3319,-1.2089,-1.168,-1.2042,-1.3548,-1.3467,-1.2282,-1.3676,-1.4331,-1.4421,-1.4421,0.0,0.0,0.0,0.0,0.0,0.0,0.0,0.0,0.0,0.0,0.0,0.0,0.0,-1.8968,-1.7572,-1.8169,-1.8975,-1.7863,-1.8759,-2.0142,-2.0575,-2.0882,-2.1109,-2.1109,-2.1109,-2.0699,-1.924,-1.9076,-1.9267,-1.9513,-1.8255,-1.7238,-1.7471,-1.4445,-1.2832,-1.4993,0.0,0.0,0.0,0.0,0.0,0.0,0.0,0.0,0.0,0.0,0.0,0.0,0.0,0.0,-1.6442,-1.8363,-1.942,-1.942,-1.9582,-1.8648,-1.6647,-2.0705,-2.2728,-2.294,-2.4999,-2.4577,-2.2249,-2.2249,-2.0874,-1.861,-1.8459,-1.8383,-1.8345,-1.8232,-1.827,-1.8383,-1.8383,-1.8307,-1.8194,0.0,0.0,0.0,0.0,0.0,0.0,0.0,0.0,0.0,0.0,0.0,0.0,0.0,0.0,0.0,0.0,0.0,0.0,0.0,-0.8267,-0.8376,-0.8533,-0.8648,-0.873,-0.8825,-0.8825,-0.9284,-1.0268,-1.1908,-1.3049,-1.3709,-1.4407,-1.4838,-1.5008,-1.5722,-1.5726,-1.5152,-1.4777,-1.5192,-1.6079,-1.6079,-1.7061,0.0,0.0,0.0,0.0,0.0,0.0,0.0,0.0,-1.8069,-1.9127,-1.7501,-1.8098,-1.9272,-1.8677,-1.891,-1.9338,-1.8983,-1.955,-2.0277,-2.0632,-2.0895,-2.1109,-2.1109,-2.1256,-2.1256,-2.0734,-2.091,-2.1318,-2.1667,-2.0234,-1.9128,-1.9509,-1.7394,-1.611,0.0,0.0,0.0,0.0,0.0,0.0,0.0,0.0,0.0,0.0,0.0,0.0,0.0,0.0,0.0,-1.8439,-1.9382,-1.9907,-1.9907,-2.12,-2.1482,-2.0665,-2.2327,-2.3832,-2.5158,-2.5846,-2.5504,-2.4355,-2.4189,-2.343,-2.2236,-2.0991,-2.0466,-2.0466,-2.0466,-1.9704,-1.8761,-2.0005,-1.9666,-1.8799,0.0,0.0,0.0,0.0,0.0,0.0,0.0,0.0,0.0,0.0,0.0,0.0,0.0,0.0,0.0,0.0,0.0,0.0,-0.8287,-0.8383,-0.8499,-0.8703,-0.873,-0.8804,-0.8912,-0.9348,-1.0076,-1.1109,-1.2854,-1.421,-1.5249,-1.6221,-1.6753,-1.6877,-1.7475,-1.7472,-1.6962,-1.6385,-1.6738,-1.7777,-1.7777,-1.8402,0.0,0.0,0.0,0.0,0.0,0.0,0.0,0.0,-1.849,-1.9214,-1.8098,-1.8519,-1.9401,-1.9401,-1.9401,-1.9481,-1.9826,-2.005,-2.029,-2.0708,-2.0962,-2.1109,-2.1109,-2.1368,-2.1609,-2.1703,-2.2151,-2.2619,-2.2853,-2.1418,-2.0321,0.0,-1.9206,0.0,0.0,0.0,0.0,0.0,0.0,0.0,0.0,0.0,0.0,0.0,0.0,0.0,0.0,0.0,0.0,0.0,-2.1206,-2.1736,-2.1814,-2.3262,-2.4065,-2.4151,-2.4065,-2.4844,-2.6373,-2.6131,-2.5837,-2.5504,-2.5211,-2.4917,-2.4488,-2.3116,-2.2546,-2.2546,-2.2546,-2.1714,-2.0654,-2.2049,-2.1676,-2.0692,0.0,0.0,0.0,0.0,0.0,0.0,0.0,0.0,0.0,0.0,0.0,0.0,0.0,0.0,0.0,0.0,0.0,0.0,-0.8327,-0.8547,-0.871,-0.871,-0.8859,-0.894,-0.894,-1.0378,-1.1164,-1.1164,-1.2882,-1.5387,-1.8476,-1.7292,-1.6831,-1.7091,-1.8677,-1.8519,-1.712,-1.8735,-1.9401,-1.9401,-1.9401,-1.9401,-1.9401,0.0,0.0,0.0,0.0,0.0,0.0,0.0,-1.9401,-1.9401,-1.9401,-1.9401,-1.9401,-1.9401,-1.9401,-1.9522,-2.0037,-2.0197,-2.0344,-2.0962,-2.1109,-2.1109,-2.1109,-2.1368,-2.1676,-2.1937,-2.2492,-2.2893,-2.2893,-2.1615,-2.0556,-2.0719,0.0,0.0,0.0,0.0,0.0,0.0,0.0,0.0,0.0,0.0,0.0,0.0,0.0,0.0,0.0,0.0,0.0,0.0,-2.438,-2.5651,-2.5984,-2.5998,-2.6131,-2.6373,-2.6131,-2.6145,-2.6373,-2.6118,-2.5824,-2.5491,-2.5197,-2.4917,-2.4599,-2.4599,-2.4599,-2.4599,-2.4599,-2.4599,-2.4599,-2.4599,-2.4599,-2.4599,0.0,0.0,0.0,0.0,0.0,0.0,0.0,0.0,0.0,0.0,0.0,0.0,0.0,0.0,0.0,0.0,0.0,0.0,-1.0102,-0.9244,-0.921,-1.0346,-1.0429,-1.0918,-1.1973,-1.3634,-1.4483,-1.4483,-1.6212,-1.7644,-1.877,-1.8649,-1.8616,-1.8706,-1.9185,-1.9127,-1.8735,-1.9185,-1.9401,-1.9401,-1.9401,-1.9401,-1.9401,0.0,0.0,0.0,0.0,0.0,0.0,0.0,0.0,0.0,-1.9401,-1.9401,-1.9401,-1.9401,-1.9401,-1.9522,-2.0037,-2.0197,-2.0344,-2.0962,-2.1109,-2.1109,-2.1109,-2.1496,-2.2037,-2.2532,-2.2773,-2.2893,-2.2893,-2.2649,0.0,0.0,0.0,0.0,0.0,0.0,0.0,0.0,0.0,0.0,0.0,0.0,0.0,0.0,0.0,0.0,0.0,0.0,0.0,0.0,-2.5055,-2.5558,-2.5638,-2.5651,-2.5692,-2.5772,-2.5692,-2.5798,-2.6105,-2.561,-2.5291,-2.5197,-2.4903,-2.4679,-2.4599,-2.4599,-2.4599,-2.4599,-2.4599,-2.4599,-2.4599,-2.4599,-2.4599,-2.4599,0.0,0.0,0.0,0.0,0.0,0.0,0.0,0.0,0.0,0.0,-0.7988,-0.8233,0.0,0.0,0.0,0.0,0.0,0.0,0.0,-1.0127,-1.0341,-1.191,-1.1973,-1.2708,-1.4293,-1.5374,-1.6301,-1.7073,-1.8139,-1.8744,-1.8903,-1.9225,-1.9401,-1.9401,-1.9401,-1.9401,-1.9401,-1.9401,-1.9401,-1.9401,-1.9401,-1.9401,-1.9401,0.0,0.0,0.0,0.0,0.0,0.0,0.0,0.0,0.0,-1.9401,-1.9401,-1.9401,-1.9401,-1.9401,-1.9522,-2.0037,-2.0197,-2.0344,-2.0962,-2.1109,-2.1176,-2.1403,-2.1737,-2.2151,-2.2773,-2.2893,-2.2893,-2.2893,-2.3113,0.0,0.0,0.0,0.0,0.0,0.0,0.0,0.0,0.0,0.0,0.0,0.0,0.0,0.0,0.0,0.0,0.0,0.0,0.0,0.0,-2.5077,-2.5224,-2.5344,-2.5344,-2.5398,-2.5518,-2.5398,-2.5438,-2.5636,-2.5275,-2.5115,-2.5064,-2.477,-2.4599,-2.4599,-2.4599,-2.4599,-2.4599,-2.4599,-2.4599,-2.4599,-2.4599,-2.4599,-2.4599,0.0,0.0,0.0,0.0,0.0,0.0,0.0,0.0,0.0,0.0,-0.8407,-0.8907,0.0,0.0,0.0,0.0,0.0,0.0,0.0,-1.1306,-1.1973,-1.3426,-1.3615,-1.4423,-1.6045,-1.6108,-1.7049,-1.889,-1.889,-1.8916,-1.8943,-1.9267,-1.9401,-1.9401,-1.9401,-1.9401,-1.9401,-1.9401,-1.9401,-1.9401,-1.9401,-1.9401,-1.9401,-1.9401,0.0,0.0,0.0,0.0,0.0,0.0,0.0,0.0,-1.9401,-1.9401,-1.9401,-1.9401,-1.9401,-1.9522,-2.0037,-2.0197,-2.0344,-2.0962,-2.1136,-2.1296,-2.1857,-2.2004,-2.2191,-2.2773,-2.2893,-2.2893,-2.2893,-2.3113,-2.342,0.0,0.0,0.0,0.0,0.0,0.0,0.0,0.0,0.0,0.0,0.0,0.0,0.0,0.0,0.0,0.0,0.0,0.0,0.0,-2.4599,-2.477,-2.5037,-2.5037,-2.517,0.0,-2.517,-2.5037,-2.5037,-2.5037,-2.5037,-2.5024,-2.4719,-2.4599,-2.4599,-2.4599,-2.4599,-2.4599,-2.4599,-2.4599,-2.4599,-2.4599,-2.4599,-2.4599,0.0,0.0,0.0,0.0,0.0,0.0,0.0,0.0,0.0,0.0,0.0,0.0,0.0,0.0,0.0,0.0,0.0,0.0,0.0,-1.3423,-1.3453,-1.4877,-1.6062,-1.6957,-1.7536,-1.7825,-1.8251,-1.889,-1.889,-1.9038,-1.9308,-1.9361,-1.9401,-1.9401,-1.9401,-1.9401,-1.9401,-1.9401,-1.9401,-1.9401,-1.9401,-1.9401,-1.9401,-1.9401,-1.9401,0.0,0.0,0.0,0.0,0.0,0.0,0.0,-1.9401,-1.9401,-1.9401,-1.9401,-1.9401,-1.9522,-2.0037,-2.0197,-2.0344,-2.0962,-2.1315,-2.1582,-2.1911,-2.2164,-2.2432,-2.2827,-2.2893,-2.2893,-2.2893,-2.3113,0.0,0.0,0.0,0.0,0.0,0.0,0.0,0.0,0.0,0.0,0.0,0.0,0.0,0.0,0.0,0.0,0.0,0.0,0.0,-2.4599,-2.4599,-2.4626,-2.4693,-2.4693,-2.4719,0.0,-2.4719,-2.4693,-2.4693,-2.4693,-2.4693,-2.4693,-2.4626,-2.4599,-2.4599,-2.4599,-2.4599,-2.4599,-2.4599,-2.4599,-2.4599,-2.4599,-2.4599,-2.4599,0.0,0.0,0.0,0.0,0.0,0.0,0.0,0.0,0.0,0.0,0.0,0.0,0.0,0.0,0.0,0.0,0.0,0.0,0.0,0.0,-1.4957,-1.6393,-1.7304,-1.7929,-1.8223,-1.8544,-1.8838,-1.9132,-1.9132,-1.9212,-1.9401,-1.9401,-1.9401,-1.9401,-1.9401,-1.9401,-1.9401,-1.9401,-1.9401,-1.9401,-1.9401,-1.9401,-1.9401,-1.9401,-1.9401,-1.9401,-1.9401,0.0,0.0,0.0,0.0,0.0,0.0,0.0,-1.9401,-1.9401,-1.9495,-1.9666,-2.0077,-2.0304,-2.0548,-2.1002,-2.1368,-2.1662,-2.1957,-2.2205,-2.2498,-2.284,-2.2893,-2.2893,-2.2893,0.0,0.0,0.0,0.0,0.0,0.0,0.0,0.0,0.0,0.0,0.0,0.0,0.0,0.0,0.0,0.0,0.0,0.0,-2.4599,-2.4599,-2.4599,-2.4599,-2.4599,-2.4599,-2.4599,-2.4599,-2.4599,-2.4599,-2.4599,-2.4599,-2.4599,-2.4599,-2.4599,-2.4599,-2.4599,-2.4599,-2.4599,-2.4599,-2.4599,-2.4599,-2.4599,-2.4599,-2.4599,-2.4599,-2.4599,0.0,0.0,0.0,0.0,0.0,0.0,0.0,0.0,0.0,0.0,0.0,0.0,0.0,0.0,0.0,0.0,0.0,0.0,0.0,0.0,0.0,-1.7609,-1.7943,-1.825,-1.8557,-1.8798,-1.9065,-1.9401,-1.9401,-1.9401,-1.9401,-1.9401,-1.9401,-1.9401,-1.9401,-1.9401,-1.9401,-1.9401,-1.9401,-1.9401,-1.9401,-1.9401,-1.9401,-1.9401,-1.9401,-1.9401,-1.9401,-1.9401,-1.9401,-1.9401,0.0,0.0,0.0,0.0,-1.9401,-1.9401,-1.9602,-1.9867,-2.0117,-2.0481,-2.0815,-2.1042,-2.1368,-2.1662,-2.1957,-2.2205,-2.2498,-2.284,-2.2893,-2.2893,-2.2893,0.0,0.0,0.0,0.0,0.0,0.0,0.0,0.0,0.0,0.0,0.0,0.0,0.0,0.0,0.0,0.0,0.0,-2.4599,-2.4599,-2.4599,-2.4599,-2.4599,-2.4599,-2.4599,-2.4599,-2.4599,-2.4599,-2.4599,-2.4599,-2.4599,-2.4599,-2.4599,-2.4599,-2.4599,-2.4599,-2.4599,-2.4599,-2.4599,-2.4599,-2.4599,-2.4599,-2.4599,-2.4599,-2.4599,-2.4599,0.0,0.0,0.0,0.0,0.0,0.0,0.0,0.0,0.0,0.0,-1.6613,-1.6303,0.0,0.0,0.0,0.0,0.0,0.0,0.0,0.0,0.0,-1.7929,-1.8263,-1.8571,-1.8836,-1.8876,-1.9065,-1.9401,-1.9401,-1.9401,-1.9401,-1.9401,-1.9401,-1.9401,-1.9401,-1.9401,-1.9401,-1.9401,-1.9401,-1.9401,-1.9401,-1.9401,-1.9401,-1.9401,-1.9401,-1.9401,-1.9401,-1.9401,-1.9401,-1.9401,-1.9401,0.0,0.0,0.0,-1.9401,-1.9401,-1.9602,-1.9867,-2.0117,-2.0597,-2.1069,-2.1096,-2.1368,-2.1662,-2.1957,-2.2205,-2.2498,-2.284,-2.2893,-2.2893,0.0,0.0,0.0,0.0,0.0,0.0,0.0,0.0,0.0,0.0,0.0,0.0,0.0,0.0,0.0,0.0,0.0,0.0,-2.4599,-2.4599,-2.4599,-2.4599,-2.4599,-2.4599,-2.4599,-2.4599,-2.4599,-2.4599,-2.4599,-2.4599,-2.4599,-2.4599,-2.4599,-2.4599,-2.4599,-2.4599,-2.4599,-2.4599,-2.4599,-2.4599,-2.4599,-2.4599,-2.4599,-2.4599,-2.4599,-2.4599,0.0,0.0,0.0,0.0,0.0,0.0,0.0,0.0,0.0,0.0,0.0,-1.7226,0.0,0.0,0.0,0.0,0.0,0.0,0.0,0.0,0.0,-1.8263,-1.8571,-1.8798,-1.889,-1.9092,-1.9239,-1.9401,-1.9401,-1.9401,-1.9401,-1.9401,-1.9401,-1.9401,-1.9401,-1.9401,-1.9401,-1.9401,-1.9401,-1.9401,-1.9401,-1.9401,-1.9401,-1.9401,-1.9401,-1.9401,-1.9401,-1.9401,-1.9401,-1.9401,-1.9401,-1.9401,-1.9401,0.0,0.0,0.0,-1.9693,-2.0117,-2.057,-2.0909,-2.1109,-2.1109,-2.1203,-2.143,-2.1917,-2.2084,-2.2298,-2.28,-2.2893,0.0,0.0,0.0,0.0,0.0,0.0,0.0,0.0,0.0,0.0,0.0,0.0,0.0,0.0,0.0,0.0,0.0,0.0,-2.4599,-2.4599,-2.4599,-2.4599,-2.4599,-2.4599,-2.4599,-2.4599,-2.4599,-2.4599,-2.4599,-2.4599,-2.4599,-2.4599,-2.4599,-2.4599,-2.4599,-2.4599,-2.4599,-2.4599,-2.4599,-2.4599,-2.4599,-2.4599,-2.4599,-2.4599,-2.4599,-2.4599,-2.4599,0.0,0.0,0.0,0.0,0.0,0.0,0.0,0.0,0.0,0.0,0.0,0.0,0.0,0.0,0.0,0.0,0.0,0.0,0.0,0.0,0.0,-1.8597,-1.8878,-1.9038,-1.9038,-1.9281,-1.9401,-1.9401,-1.9401,-1.9401,-1.9401,-1.9401,-1.9401,-1.9401,-1.9401,-1.9401,-1.9401,-1.9401,-1.9401,-1.9401,-1.9401,-1.9401,-1.9401,-1.9401,-1.9401,-1.9401,-1.9401,0.0,0.0,0.0,-1.9401,-1.9401,-1.9401,-1.9401,0.0,0.0,0.0,-2.0424,-2.0975,-2.1109,-2.1109,-2.1109,-2.1109,-2.1243,-2.1796,-2.197,-2.2171,0.0,-2.284,0.0,0.0,0.0,0.0,0.0,0.0,0.0,0.0,0.0,0.0,0.0,0.0,0.0,0.0,0.0,0.0,0.0,0.0,-2.4599,-2.4599,-2.4599,-2.4599,-2.4599,-2.4599,-2.4599,-2.4599,-2.4599,-2.4599,-2.4599,-2.4599,-2.4599,-2.4599,-2.4599,-2.4599,-2.4599,-2.4599,-2.4599,-2.4599,-2.4599,-2.4599,-2.4599,-2.4599,-2.4599,-2.4599,-2.4599,-2.4599,-2.4599,0.0,0.0,0.0,0.0,0.0,0.0,0.0,0.0,0.0,0.0,0.0,0.0,-1.7969,-1.8277,-1.8437,-1.8437,-1.8464,0.0,0.0,0.0,0.0,-1.8876,-1.9185,0.0,-1.9374,-1.9388,-1.9401,-1.9401,-1.9401,-1.9401,-1.9401,-1.9401,-1.9401,-1.9401,-1.9401,-1.9401,-1.9401,-1.9401,-1.9401,-1.9401,-1.9401,-1.9401,-1.9401,-1.9401,-1.9401,-1.9401,0.0,0.0,0.0,0.0,0.0,0.0,0.0,-1.9401,-1.9455,0.0,0.0,0.0,-2.1029,-2.1109,-2.1109,-2.1109,-2.1109,-2.1189,-2.1542,-2.1823,-2.2071,-2.2378,0.0,0.0,0.0,0.0,0.0,0.0,0.0,0.0,0.0,0.0,0.0,0.0,0.0,0.0,0.0,0.0,0.0,0.0,0.0,-2.4599,-2.4599,-2.4599,-2.4599,-2.4599,-2.4599,-2.4599,-2.4599,-2.4599,-2.4599,-2.4599,-2.4599,-2.4599,-2.4599,-2.4599,-2.4599,-2.4599,-2.4599,-2.4599,-2.4599,-2.4599,-2.4599,-2.4599,-2.4599,-2.4599,-2.4599,-2.4599,-2.4599,-2.4599,0.0,0.0,0.0,0.0,0.0,0.0,0.0,0.0,0.0,0.0,0.0,0.0,0.0,-1.8424,-1.849,-1.849,-1.8664,0.0,0.0,0.0,0.0,-1.9212,-1.9348,-1.9401,-1.9401,-1.9401,-1.9401,-1.9401,-1.9401,-1.9401,-1.9401,-1.9401,-1.9401,-1.9401,-1.9401,-1.9401,-1.9401,-1.9401,-1.9401,-1.9401,-1.9401,-1.9401,-1.9415,-1.9602,-1.9639,0.0,0.0,0.0,0.0,0.0,0.0,0.0,0.0,0.0,-1.9987,-2.0281,-2.0539,-2.0766,-2.1029,-2.1109,-2.1109,-2.1109,-2.1109,-2.1189,-2.1515,-2.181,-2.2071,-2.2352,0.0,0.0,0.0,0.0,0.0,0.0,0.0,0.0,0.0,0.0,0.0,0.0,0.0,0.0,0.0,0.0,0.0,0.0,0.0,0.0,-2.4599,-2.4599,-2.4599,-2.4599,-2.4599,-2.4599,-2.4599,-2.4599,-2.4599,-2.4599,-2.4599,-2.4599,-2.4599,-2.4599,-2.4599,-2.4599,-2.4599,-2.4599,-2.4599,-2.4599,-2.4599,-2.4599,-2.4599,-2.4599,-2.4599,-2.4599,-2.4599,-2.4599,0.0,0.0,0.0,0.0,0.0,0.0,0.0,0.0,0.0,-1.849,0.0,0.0,0.0,0.0,-1.8784,-1.8784,-1.8958,-1.9158,-1.9388,-1.9401,-1.9401,-1.9401,-1.9401,-1.9401,-1.9401,-1.9401,-1.9401,-1.9401,-1.9401,-1.9401,-1.9401,-1.9401,-1.9401,-1.9401,-1.9401,-1.9401,-1.9401,-1.9401,-1.9455,-1.9535,-1.9535,-1.9602,-1.9679,-1.9867,0.0,0.0,0.0,0.0,0.0,0.0,0.0,0.0,0.0,0.0,0.0,0.0,-2.0748,-2.0869,-2.1056,-2.1109,-2.1109,-2.1109,-2.1109,-2.1162,-2.1395,-2.1662,-2.1924,-2.2218,0.0,0.0,0.0,0.0,0.0,0.0,0.0,0.0,0.0,0.0,0.0,0.0,0.0,0.0,0.0,0.0,0.0,0.0,0.0,0.0,-2.4599,-2.4599,-2.4599,-2.4599,-2.4599,-2.4599,-2.4599,-2.4599,-2.4599,-2.4599,-2.4599,-2.4599,-2.4599,-2.4599,-2.4599,-2.4599,-2.4599,-2.4599,-2.4599,-2.4599,-2.4599,-2.4599,-2.4599,-2.4599,-2.4599,-2.4599,-2.4599,-2.4599,0.0,0.0,0.0,0.0,0.0,0.0,0.0,0.0,-1.8517,-1.8517,0.0,0.0,0.0,0.0,0.0,-1.9401,-1.9401,-1.9401,-1.9401,-1.9401,-1.9401,-1.9401,0.0,0.0,-1.9401,-1.9401,-1.9401,-1.9401,-1.9401,-1.9401,-1.9401,-1.9401,-1.9401,-1.9401,-1.9401,-1.9415,-1.9415,-1.9415,-1.9575,-1.9813,-1.9813,-1.9987,-2.0197,0.0,0.0,0.0,-2.0224,-2.0224,0.0,-2.0224,0.0,0.0,0.0,0.0,0.0,0.0,0.0,-2.1109,0.0,0.0,0.0,-2.1109,-2.1109,-2.1109,-2.1109,0.0,-2.1662,0.0,0.0,0.0,0.0,0.0,0.0,0.0,0.0,0.0,0.0,0.0,0.0,0.0,0.0,0.0,0.0,0.0,0.0,0.0,0.0,-2.4599,-2.4599,-2.4599,-2.4599,-2.4599,-2.4599,-2.4599,-2.4599,-2.4599,-2.4599,-2.4599,-2.4599,-2.4599,-2.4599,-2.4599,-2.4599,-2.4599,-2.4599,-2.4599,-2.4599,-2.4599,-2.4599,-2.4599,-2.4599,-2.4599,-2.4599,-2.4599,-2.4599,-2.4599,0.0,0.0,0.0,0.0,0.0,-1.8783,-1.8783,-1.8985,-1.916,0.0,0.0,0.0,-1.9267,-1.9348,-1.9401,-1.9401,-1.9401,-1.9401,-1.9401,-1.9401,-1.9401,-1.9401,-1.9401,-1.9401,-1.9401,-1.9401,-1.9401,-1.9401,-1.9401,-1.9401,-1.9401,-1.9401,-1.9401,-1.9401,-1.9586,-1.9679,-1.9679,-1.9679,-1.984,-2.0077,-2.0077,-2.013,0.0,0.0,0.0,0.0,0.0,-2.0837,-2.0837,0.0,-2.0837,-2.0837,0.0,0.0,0.0,0.0,0.0,0.0,-2.1109,0.0,0.0,0.0,0.0,0.0,0.0,0.0,0.0,0.0,0.0,0.0,0.0,0.0,0.0,0.0,0.0,0.0,0.0,0.0,0.0,0.0,0.0,0.0,0.0,0.0,0.0,0.0,-2.4599,-2.4599,-2.4599,-2.4599,-2.4599,-2.4599,-2.4599,-2.4599,-2.4599,-2.4599,-2.4599,-2.4599,-2.4599,-2.4599,-2.4599,-2.4599,-2.4599,-2.4599,-2.4599,-2.4599,-2.4599,-2.4599,-2.4599,-2.4599,-2.4599,-2.4599,-2.4599,-2.4599,-2.4599,-2.4599,0.0,0.0,0.0,0.0,0.0,-1.9105,-1.9105,-1.9252,-1.9401,0.0,0.0,0.0,-1.9401,-1.9401,-1.9401,-1.9401,-1.9401,-1.9401,-1.9401,-1.9401,-1.9401,-1.9401,-1.9401,-1.9401,-1.9401,-1.9401,-1.9401,-1.9401,-1.9401,-1.9401,-1.9401,-1.9401,-1.9468,-1.9589,-1.972,-1.9933,-2.016,-2.016,-2.0267,-2.0414,-2.0414,0.0,0.0,-2.0788,-2.0855,0.0,0.0,0.0,-2.1109,-2.1109,-2.1109,0.0,0.0,0.0,0.0,0.0,0.0,0.0,0.0,0.0,0.0,0.0,0.0,0.0,-2.1109,-2.1243,0.0,0.0,0.0,0.0,0.0,0.0,0.0,0.0,0.0,0.0,0.0,0.0,0.0,0.0,0.0,0.0,0.0,0.0,0.0,-2.4399,-2.4532,-2.4599,-2.4599,-2.4599,-2.4599,-2.4599,-2.4599,-2.4599,-2.4599,-2.4599,-2.4599,-2.4599,-2.4599,-2.4599,-2.4599,-2.4599,-2.4599,-2.4599,-2.4599,-2.4599,-2.4599,-2.4599,-2.4599,-2.4599,-2.4599,-2.4599,-2.4599,-2.4599,-2.4599,-2.4599,0.0,0.0,-1.9401,-1.9401,-1.9401,-1.9401,-1.9401,-1.9401,-1.9401,0.0,-1.9401,-1.9401,-1.9401,-1.9401,-1.9401,-1.9401,-1.9401,-1.9401,-1.9401,-1.9401,-1.9401,-1.9401,-1.9401,-1.9401,-1.9401,-1.9401,-1.9401,-1.9401,-1.9401,-1.9415,-1.9441,-1.9441,-1.9602,-1.9853,-1.988,-2.0187,-2.0712,-2.0739,-2.0753,-2.0753,-2.0753,-2.0882,0.0,0.0,-2.1109,-2.1109,-2.1109,-2.1109,-2.1109,-2.1109,-2.1109,0.0,0.0,0.0,0.0,0.0,-2.1109,0.0,0.0,0.0,0.0,0.0,0.0,0.0,-2.1109,-2.1109,-2.1269,0.0,0.0,0.0,0.0,0.0,0.0,0.0,0.0,0.0,0.0,0.0,0.0,0.0,0.0,0.0,0.0,-2.3794,-2.4128,-2.4195,-2.4439,-2.4599,-2.4599,-2.4599,-2.4599,-2.4599,-2.4599,-2.4599,-2.4599,-2.4599,-2.4599,-2.4599,-2.4599,-2.4599,-2.4599,-2.4599,-2.4599,-2.4599,-2.4599,-2.4599,-2.4599,-2.4599,-2.4599,-2.4599,-2.4599,-2.4599,-2.4599,-2.4599,-2.4599,-2.4599,0.0,-1.9401,-1.9401,-1.9401,-1.9401,-1.9401,-1.9401,-1.9401,-1.9401,-1.9401,-1.9401,-1.9401,-1.9401,-1.9401,-1.9401,-1.9401,-1.9401,-1.9401,-1.9401,-1.9401,-1.9401,-1.9401,-1.9401,-1.9401,-1.9401,-1.9401,-1.9401,-1.9401,-1.9401,-1.9522,-1.972,-1.972,-1.9867,-2.013,-2.0401,-2.0605,-2.0726,-2.0922,-2.1029,-2.1029,-2.1029,0.0,-2.1109,-2.1109,-2.1109,-2.1109,-2.1109,-2.1109,-2.1109,0.0,-2.1109,-2.1109,0.0,0.0,0.0,0.0,0.0,0.0,0.0,0.0,0.0,0.0,0.0,0.0,-2.1109,-2.1109,-2.1203,0.0,0.0,0.0,0.0,0.0,0.0,0.0,0.0,0.0,0.0,0.0,0.0,0.0,0.0,0.0,0.0,-2.3399,-2.3701,-2.4168,-2.4439,-2.4599,-2.4599,-2.4599,-2.4599,-2.4599,-2.4599,-2.4599,-2.4599,-2.4599,-2.4599,-2.4599,-2.4599,-2.4599,-2.4599,-2.4599,-2.4599,-2.4599,-2.4599,-2.4599,-2.4599,-2.4599,-2.4599,-2.4599,-2.4599,-2.4599,-2.4599,-2.4599,-2.4599,-2.4599,-1.9401,-1.9401,-1.9401,-1.9401,-1.9401,-1.9401,-1.9401,-1.9401,-1.9401,-1.9401,-1.9401,-1.9401,-1.9401,-1.9401,-1.9455,-1.9602,-1.9615,-1.9639,-1.9786,-1.98,-1.9733,-1.9615,-1.9615,-1.9615,-1.9615,-1.9615,-1.9653,-1.98,-1.98,-1.9867,-1.9983,-1.9983,-2.0174,-2.0468,-2.0646,-2.0873,-2.1154,-2.1301,-2.1416,-2.1537,-2.139,0.0,-2.1349,-2.1496,-2.155,-2.155,-2.155,-2.155,-2.155,-2.155,-2.155,0.0,0.0,-2.155,-2.1523,0.0,-2.1368,-2.1296,0.0,0.0,0.0,-2.1109,0.0,0.0,0.0,-2.1109,-2.1189,-2.1529,0.0,0.0,0.0,0.0,0.0,0.0,0.0,0.0,0.0,0.0,0.0,0.0,0.0,0.0,0.0,-2.3233,-2.3532,-2.4155,-2.4342,-2.4452,-2.4586,-2.4599,-2.4599,-2.4599,-2.4599,-2.4599,-2.4599,-2.4599,-2.4599,-2.4599,-2.4599,-2.4599,-2.4599,-2.4599,-2.4599,-2.4599,-2.4599,-2.4599,-2.4599,-2.4599,-2.4599,-2.4599,-2.4599,-2.4599,-2.4599,-2.4599,-2.4599,-2.4599,-1.9401,-1.9401,-1.9401,-1.9401,-1.9401,-1.9401,-1.9401,-1.9401,-1.9415,-1.9468,-1.9535,-1.9562,-1.9562,-1.9562,-1.9626,-1.9867,-1.988,-1.9987,-2.0184,-2.0197,-2.0104,-1.9893,-1.988,-1.988,-1.988,-1.988,-1.997,-2.0197,-2.0197,-2.0237,-2.029,-2.029,-2.0481,-2.0793,-2.0846,-2.1141,-2.1582,-2.1649,-2.181,-2.201,0.0,-2.1716,-2.1689,-2.193,-2.1991,-2.1991,-2.1991,-2.1991,-2.1991,-2.1991,0.0,-2.1991,-2.1991,-2.1991,0.0,0.0,0.0,0.0,0.0,0.0,0.0,0.0,0.0,-2.1109,0.0,0.0,0.0,-2.1542,0.0,0.0,0.0,0.0,0.0,0.0,0.0,0.0,0.0,0.0,0.0,0.0,0.0,0.0,0.0,-2.314,-2.3541,-2.4075,-2.4168,-2.4329,-2.4586,-2.4599,-2.4599,-2.4599,-2.4599,-2.4599,-2.4599,-2.4599,-2.4599,-2.4599,-2.4599,-2.4599,-2.4599,-2.4599,-2.4599,-2.4599,-2.4599,-2.4599,-2.4599,-2.4599,-2.4599,-2.4599,-2.4599,-2.4599,-2.4599,-2.4599,-2.4599,-2.4599,-1.9401,-1.9401,-1.9401,-1.9401,-1.9401,-1.9401,-1.9401,-1.9401,-1.9495,-1.972,-1.9973,-2.0104,-2.0104,-2.0104,-2.0117,-2.0157,-2.0157,0.0,-2.0197,0.0,-2.0184,-2.0157,-2.0157,-2.0157,-2.0157,-2.0157,-2.017,-2.0197,-2.0197,-2.033,-2.0628,-2.0628,-2.0775,-2.1069,-2.1368,-2.1561,-2.1609,-2.1863,-2.1951,0.0,-2.2231,-2.2164,0.0,-2.1977,-2.1991,-2.1991,-2.1991,-2.1991,-2.1991,0.0,-2.1991,-2.1991,0.0,-2.1991,-2.1977,0.0,0.0,0.0,0.0,0.0,0.0,0.0,-2.1309,0.0,0.0,0.0,-2.1542,-2.1582,0.0,0.0,0.0,0.0,0.0,0.0,0.0,0.0,0.0,0.0,0.0,0.0,0.0,0.0,0.0,0.0,-2.346,-2.383,-2.4062,-2.4329,-2.4586,-2.4599,-2.4599,-2.4599,-2.4599,-2.4599,-2.4599,-2.4599,-2.4599,-2.4599,-2.4599,-2.4599,-2.4599,-2.4599,-2.4599,-2.4599,-2.4599,-2.4599,-2.4599,-2.4599,-2.4599,-2.4599,-2.4599,-2.4599,-2.4599,-2.4599,-2.4599,-2.4599,-1.9468,-1.9401,-1.9401,-1.9401,-1.9535,-1.9626,-1.9626,-1.976,-1.9907,-2.004,-2.013,-2.0197,-2.0197,0.0,0.0,0.0,0.0,-2.0561,0.0,0.0,-2.0668,-2.0494,-2.0494,-2.0494,-2.0494,-2.0494,-2.0575,-2.0704,-2.0704,-2.0895,-2.1221,-2.1221,-2.1368,-2.163,-2.1783,-2.193,-2.2058,-2.2178,-2.2338,0.0,0.0,0.0,0.0,-2.2565,-2.2532,-2.2532,-2.2532,-2.2532,-2.2532,0.0,-2.2532,0.0,0.0,0.0,0.0,0.0,0.0,0.0,0.0,0.0,0.0,0.0,0.0,0.0,0.0,0.0,-2.1836,0.0,0.0,0.0,0.0,0.0,0.0,0.0,0.0,0.0,0.0,0.0,0.0,0.0,0.0,0.0,0.0,0.0,0.0,0.0,0.0,-2.4075,-2.4332,-2.4506,-2.4599,-2.4599,-2.4599,-2.4599,-2.4599,-2.4599,-2.4599,-2.4599,-2.4599,-2.4599,-2.4599,-2.4599,-2.4599,-2.4599,-2.4599,-2.4599,-2.4599,-2.4599,-2.4599,-2.4599,-2.4599,-2.4599,-2.4599,-2.4599,-2.4599,-2.4599,-1.9693,-1.9599,-1.9599,-1.9599,-1.9773,-1.992,-1.992,-2.013,-2.0361,-2.0361,-2.0494,-2.0601,-2.0601,-2.0668,0.0,0.0,-2.1074,-2.1154,0.0,0.0,-2.1256,0.0,0.0,0.0,0.0,-2.1074,-2.1136,-2.1349,-2.1349,-2.1456,-2.1703,-2.1703,-2.181,-2.1991,-2.2071,-2.2218,-2.2418,0.0,-2.2712,-2.3027,-2.3027,-2.318,-2.342,-2.3228,-2.3148,-2.3148,-2.3148,-2.3148,-2.3134,-2.3054,-2.3027,0.0,-2.292,0.0,0.0,0.0,0.0,0.0,-2.2285,0.0,0.0,0.0,0.0,0.0,0.0,0.0,0.0,0.0,0.0,0.0,0.0,0.0,0.0,0.0,0.0,0.0,0.0,0.0,0.0,0.0,0.0,0.0,0.0,0.0,0.0,0.0,0.0,0.0,-2.4195,-2.4439,-2.4599,-2.4599,-2.4599,-2.4599,-2.4599,-2.4599,-2.4599,-2.4599,-2.4599,-2.4599,-2.4599,-2.4599,-2.4599,-2.4599,-2.4599,-2.4599,-2.4599,-2.4599,-2.4599,-2.4599,-2.4599,-2.4599,-2.4599,-2.4599,-2.4599,-2.4599,-2.0184,-2.017,-2.017,-2.017,-2.0184,-2.0184,-2.0184,-2.0468,-2.0686,-2.0686,-2.1194,0.0,0.0,0.0,0.0,0.0,0.0,-2.1951,-2.1951,0.0,-2.1984,0.0,0.0,-2.197,0.0,0.0,-2.1951,-2.1951,-2.1951,-2.1964,-2.201,-2.201,-2.1977,-2.1991,-2.2271,-2.2371,-2.2432,-2.276,-2.3033,-2.3278,-2.3278,-2.3487,-2.379,0.0,-2.3777,-2.3777,-2.3777,0.0,0.0,-2.3407,-2.3278,0.0,0.0,0.0,0.0,0.0,0.0,0.0,0.0,0.0,0.0,-2.2405,0.0,0.0,0.0,0.0,-2.2405,0.0,0.0,0.0,0.0,0.0,0.0,0.0,0.0,0.0,0.0,0.0,0.0,0.0,0.0,0.0,0.0,0.0,0.0,0.0,0.0,0.0,-2.4195,-2.4439,-2.4599,-2.4599,-2.4599,-2.4599,-2.4599,-2.4599,-2.4599,-2.4599,-2.4599,-2.4599,-2.4599,-2.4599,-2.4599,-2.4599,-2.4599,-2.4599,-2.4599,-2.4599,-2.4599,-2.4599,-2.4599,-2.4599,-2.4599,-2.4599,-2.4599,-2.4599,-2.0815,-2.0815,-2.0664,-2.0277,-2.0401,-2.0588,-2.0788,-2.1069,-2.1288,0.0,0.0,0.0,0.0,-2.1957,-2.1991,0.0,0.0,-2.1991,-2.1991,-2.1991,0.0,0.0,0.0,-2.1991,0.0,0.0,0.0,0.0,-2.1991,-2.2084,-2.2271,-2.2271,-2.2378,-2.2612,-2.2886,-2.2985,0.0,0.0,0.0,0.0,0.0,-2.3968,-2.4035,0.0,0.0,-2.3803,-2.3803,-2.3803,0.0,-2.3661,-2.3621,-2.3643,-2.3536,-2.3496,-2.3455,-2.3233,-2.3166,0.0,0.0,0.0,-2.2746,-2.2746,0.0,0.0,0.0,0.0,0.0,0.0,0.0,0.0,0.0,0.0,0.0,0.0,0.0,0.0,0.0,0.0,0.0,0.0,0.0,0.0,0.0,0.0,0.0,0.0,0.0,0.0,0.0,-2.4369,-2.4599,-2.4599,-2.4599,-2.4599,-2.4599,-2.4599,-2.4599,-2.4599,-2.4599,-2.4599,-2.4599,-2.4599,-2.4599,-2.4599,-2.4599,-2.4599,-2.4599,-2.4599,-2.4599,-2.4599,-2.4599,-2.4599,-2.4599,-2.4599,-2.4599,-2.4599,-2.1109,-2.1109,-2.0989,0.0,0.0,0.0,0.0,0.0,0.0,0.0,-2.1997,0.0,-2.2138,0.0,-2.2331,0.0,-2.2331,-2.2352,-2.2458,-2.2365,0.0,-2.2458,-2.2352,0.0,0.0,0.0,0.0,0.0,0.0,-2.2445,-2.2705,-2.2705,-2.2899,-2.3228,-2.3394,-2.3487,-2.35,-2.3723,-2.387,0.0,0.0,-2.4356,0.0,0.0,-2.4075,-2.4075,0.0,-2.4075,-2.4062,-2.3955,-2.3928,-2.395,-2.3843,-2.3803,-2.3763,-2.3541,-2.3487,-2.3434,-2.3268,-2.3215,0.0,-2.3081,-2.3033,0.0,-2.292,0.0,0.0,0.0,0.0,0.0,0.0,0.0,0.0,0.0,0.0,0.0,0.0,-2.2893,0.0,0.0,0.0,0.0,0.0,0.0,0.0,-2.2893,-2.3362,0.0,0.0,0.0,-2.4492,-2.4599,-2.4599,-2.4599,-2.4599,-2.4599,-2.4599,-2.4599,-2.4599,-2.4599,-2.4599,-2.4599,-2.4599,-2.4599,-2.4599,-2.4599,-2.4599,-2.4599,-2.4599,-2.4599,-2.4599,-2.4599,-2.4599,-2.4599,-2.4599,-2.4599,-2.1149,0.0,0.0,0.0,-2.1422,0.0,0.0,0.0,-2.205,0.0,-2.2285,-2.2438,-2.2485,-2.2739,-2.2934,-2.2934,-2.2934,0.0,-2.3292,-2.3108,0.0,0.0,-2.3073,-2.2934,-2.2934,0.0,0.0,0.0,0.0,-2.306,-2.3319,-2.3319,-2.35,-2.3803,-2.3817,-2.383,-2.383,-2.3843,-2.3968,-2.4249,-2.4492,-2.4599,-2.4599,-2.4613,-2.4626,-2.4613,-2.4599,-2.4599,-2.4559,-2.4315,-2.4222,-2.4182,-2.3937,-2.3843,-2.3843,-2.383,-2.383,-2.383,-2.3803,-2.3803,-2.3701,-2.3385,0.0,0.0,0.0,0.0,-2.292,0.0,0.0,0.0,0.0,0.0,0.0,0.0,0.0,0.0,0.0,0.0,0.0,0.0,0.0,0.0,0.0,0.0,-2.2893,-2.2893,-2.3153,-2.346,0.0,0.0,-2.4342,-2.4586,-2.4599,-2.4599,-2.4599,-2.4599,-2.4599,-2.4599,-2.4599,-2.4599,-2.4599,-2.4599,-2.4599,-2.4599,-2.4599,-2.4599,-2.4599,-2.4599,-2.4599,-2.4599,-2.4599,-2.4599,-2.4599,-2.4599,-2.4599,-2.4599,-2.1764,-2.1764,-2.1764,0.0,-2.185,-2.1903,0.0,0.0,0.0,0.0,-2.2899,-2.3145,-2.3394,-2.3522,-2.3576,-2.3576,-2.3576,0.0,0.0,0.0,0.0,-2.3647,-2.3616,-2.3576,-2.3576,-2.3576,0.0,-2.3576,0.0,-2.3616,-2.3661,-2.3661,-2.3736,-2.3817,-2.3995,-2.4088,-2.4102,-2.4329,-2.4412,-2.4492,-2.4572,-2.4599,0.0,0.0,-2.497,-2.493,-2.4679,-2.4599,-2.4586,-2.4519,-2.4492,-2.4479,-2.4436,-2.4372,-2.4369,-2.4155,-2.4088,-2.4048,-2.387,-2.3803,-2.379,-2.3674,-2.3661,-2.3634,0.0,0.0,0.0,0.0,0.0,0.0,0.0,0.0,0.0,0.0,0.0,0.0,0.0,0.0,0.0,-2.2893,0.0,0.0,0.0,0.0,-2.2893,-2.2893,-2.3153,-2.346,0.0,0.0,0.0,-2.4586,-2.4599,-2.4599,-2.4599,-2.4599,-2.4599,-2.4599,-2.4599,-2.4599,-2.4599,-2.4599,-2.4599,-2.4599,-2.4599,-2.4599,-2.4599,-2.4599,-2.4599,-2.4599,-2.4599,-2.4599,-2.4599,-2.4599,-2.4599,-2.4599,-2.1991,0.0,0.0,-2.2398,0.0,0.0,-2.2439,0.0,0.0,-2.3255,-2.3407,0.0,-2.379,-2.3803,-2.3803,-2.3803,-2.3803,0.0,-2.3991,0.0,0.0,-2.3955,-2.387,-2.3803,-2.3803,-2.3803,0.0,-2.3803,0.0,-2.387,-2.3955,-2.3955,-2.4022,-2.4155,-2.4315,-2.4359,-2.4372,-2.4703,-2.4903,-2.4986,-2.4986,0.0,0.0,-2.5211,-2.5264,-2.5251,-2.5077,-2.4943,-2.4823,-2.4823,-2.4706,-2.4599,-2.4599,-2.4599,-2.4572,-2.4399,-2.4359,-2.4356,-2.4195,-2.4155,-2.4115,-2.3995,-2.3955,-2.3928,-2.383,-2.3647,-2.3514,0.0,0.0,0.0,0.0,0.0,0.0,0.0,0.0,0.0,0.0,0.0,0.0,0.0,0.0,0.0,0.0,0.0,-2.2893,-2.2893,-2.302,0.0,0.0,0.0,0.0,-2.4586,-2.4599,-2.4599,-2.4599,-2.4599,-2.4599,-2.4599,-2.4599,-2.4599,-2.4599,-2.4599,-2.4599,-2.4599,-2.4599,-2.4599,-2.4599,-2.4599,-2.4599,-2.4599,-2.4599,-2.4599,-2.4599,-2.4599,-2.4599,-2.4599,-2.2251,0.0,0.0,0.0,0.0,0.0,0.0,-2.3233,0.0,-2.383,0.0,-2.3884,-2.391,-2.3888,-2.3888,-2.3888,0.0,-2.3995,-2.4249,-2.4022,-2.3995,-2.4249,-2.4022,-2.3888,-2.3888,-2.3888,0.0,0.0,0.0,-2.4008,-2.4262,-2.4262,-2.4396,-2.4599,-2.4639,-2.4679,0.0,-2.5024,-2.5277,-2.5518,-2.5518,-2.5518,-2.5518,-2.5558,-2.5571,-2.5571,-2.5611,-2.5411,-2.5144,-2.5144,-2.497,-2.4706,-2.4706,-2.4693,-2.4653,-2.4653,-2.4626,-2.4599,-2.4599,-2.4599,-2.4532,-2.4329,-2.4262,-2.4195,-2.3977,-2.3884,-2.387,-2.387,-2.3594,0.0,0.0,0.0,0.0,0.0,0.0,0.0,0.0,0.0,0.0,0.0,0.0,0.0,0.0,0.0,0.0,0.0,0.0,0.0,0.0,0.0,0.0,-2.4586,-2.4599,0.0,-2.4599,0.0,-2.4599,-2.4599,-2.4599,-2.4599,-2.4599,-2.4599,-2.4599,-2.4599,-2.4599,-2.4599,-2.4599,-2.4599,-2.4599,-2.4599,-2.4599,-2.4599,-2.4599,-2.4599,-2.4599,-2.4599,-2.3442,0.0,0.0,0.0,0.0,-2.3843,-2.3955,-2.3808,-2.3794,-2.4088,-2.4128,-2.4222,-2.4426,-2.4452,-2.4452,-2.4452,-2.4452,0.0,0.0,0.0,0.0,-2.4519,-2.4479,-2.4452,-2.4452,-2.4452,-2.4452,0.0,0.0,0.0,-2.4519,-2.4519,-2.4546,-2.4613,-2.489,-2.513,-2.5358,-2.5411,0.0,-2.5518,-2.5518,-2.5518,-2.5545,-2.5824,-2.5917,-2.5944,-2.6146,-2.5892,-2.5438,-2.5438,-2.5398,-2.5358,-2.5358,-2.5197,-2.4997,-2.4997,-2.4823,-2.4599,-2.4599,-2.4599,-2.4586,-2.4532,-2.4519,-2.4506,-2.4452,-2.4302,-2.4128,-2.4128,-2.3901,-2.3688,-2.3688,0.0,0.0,0.0,0.0,0.0,0.0,0.0,0.0,0.0,0.0,0.0,0.0,0.0,0.0,0.0,0.0,0.0,0.0,0.0,0.0,0.0,0.0,0.0,0.0,0.0,-2.4599,-2.4599,-2.4599,-2.4599,-2.4599,-2.4599,-2.4599,-2.4599,-2.4599,-2.4599,-2.4599,-2.4599,-2.4599,-2.4599,-2.4599,-2.4599,-2.4599,-2.4599,-2.4599,-2.4599,0.0,0.0,0.0,0.0,0.0,0.0,0.0,-2.4579,0.0,-2.4636,-2.4663,-2.477,-2.5026,-2.5053,-2.5053,-2.5053,-2.5053,-2.5053,-2.5053,-2.5053,-2.5053,-2.5053,-2.5053,0.0,-2.5053,-2.5053,-2.5053,-2.5053,0.0,0.0,-2.5053,-2.5053,-2.5053,-2.5053,-2.5237,-2.5464,0.0,0.0,0.0,-2.5972,-2.5972,-2.5972,-2.5985,-2.6158,-2.6225,-2.6238,-2.6333,-2.6213,-2.5945,-2.5798,-2.5638,-2.5518,-2.5518,-2.5411,-2.5304,-2.5304,-2.509,-2.4863,-2.4863,-2.4719,-2.4599,-2.4599,-2.4599,-2.4599,-2.4599,-2.4492,-2.4422,-2.4422,-2.4195,-2.3941,-2.383,-2.3647,0.0,0.0,0.0,0.0,0.0,0.0,0.0,0.0,0.0,0.0,0.0,0.0,0.0,0.0,0.0,0.0,0.0,0.0,0.0,0.0,0.0,0.0,0.0,0.0,0.0,-2.4599,-2.4599,-2.4599,-2.4599,-2.4599,-2.4599,-2.4599,-2.4599,-2.4599,-2.4599,-2.4599,-2.4599,-2.4599,-2.4599,-2.4599,-2.4599,-2.4599,-2.4599,-2.4599,0.0,-2.4195,0.0,0.0,-2.4599,0.0,-2.513,-2.517,-2.517,-2.517,-2.517,-2.5264,-2.5491,-2.5518,-2.5518,-2.5518,-2.5518,-2.5518,-2.5518,-2.5518,-2.5518,-2.5518,-2.5518,-2.5518,-2.5518,-2.5518,-2.5518,0.0,0.0,0.0,0.0,-2.5478,-2.5545,0.0,0.0,0.0,0.0,0.0,-2.6225,-2.6386,-2.6386,-2.6386,-2.6386,-2.6386,-2.6386,-2.6386,-2.6386,-2.6386,-2.636,-2.6172,-2.5892,-2.5705,-2.5705,-2.5651,-2.5611,-2.5611,-2.5398,-2.517,-2.517,-2.4997,-2.4773,-2.4706,-2.4693,-2.4679,-2.4613,-2.4599,-2.4599,-2.4599,-2.4412,-2.4222,-2.3995,-2.3901,0.0,0.0,0.0,0.0,0.0,0.0,0.0,0.0,0.0,0.0,0.0,0.0,0.0,0.0,0.0,0.0,0.0,0.0,0.0,0.0,0.0,-2.4599,-2.4599,0.0,-2.4599,0.0,-2.4599,-2.4599,-2.4599,-2.4666,-2.4693,-2.4693,-2.4759,-2.4786,-2.4786,-2.4786,-2.4746,-2.4693,-2.4693,-2.4653,-2.4599,-2.4599,-2.4599,-2.4599,0.0,0.0,0.0,0.0,0.0,0.0,0.0,-2.5478,-2.5478,-2.5478,-2.5478,-2.5478,-2.5504,-2.5518,-2.5518,-2.5518,-2.5518,-2.5518,-2.5518,-2.5518,-2.5518,-2.5518,-2.5518,-2.5518,-2.5518,-2.5518,-2.5518,0.0,0.0,0.0,0.0,0.0,0.0,0.0,0.0,0.0,0.0,-2.6346,-2.636,-2.6386,-2.6386,-2.6386,-2.6386,-2.6386,-2.6386,-2.6386,-2.6386,-2.6386,-2.6386,-2.636,-2.6333,-2.6306,-2.6306,-2.6158,-2.5957,-2.5957,-2.5705,-2.5478,-2.5478,-2.5451,-2.5371,-2.5104,-2.5037,-2.497,-2.4666,-2.4599,-2.4599,-2.4599,-2.4572,-2.4546,-2.4519,-2.4342,-2.4168,0.0,0.0,0.0,0.0,0.0,0.0,0.0,0.0,0.0,0.0,0.0,0.0,0.0,0.0,0.0,0.0,0.0,0.0,-2.4586,0.0,-2.4599,-2.4599,-2.4599,0.0,-2.4599,-2.4599,-2.4599,-2.4613,-2.4917,-2.5037,-2.505,-2.5317,-2.5438,-2.5438,-2.5438,-2.5277,-2.5037,-2.5037,-2.4877,-2.4599,-2.4599,-2.4599,-2.4599,0.0,0.0,0.0,0.0,0.0,0.0,0.0,-2.5824,-2.5838,-2.6012,-2.5892,-2.5838,-2.6026,-2.6039,-2.6039,-2.6039,-2.6039,-2.6039,-2.6039,-2.6039,-2.6039,-2.6039,-2.6039,-2.6039,-2.6039,-2.6039,-2.6039,0.0,0.0,0.0,0.0,0.0,0.0,0.0,0.0,-2.6279,-2.6386,-2.6386,-2.6386,-2.6386,-2.6386,-2.6386,-2.6386,-2.6386,-2.6386,-2.6386,-2.6386,-2.6386,-2.6386,-2.6386,-2.6386,-2.6386,-2.6386,-2.6306,-2.6252,-2.6252,-2.6051,-2.5824,-2.5824,-2.5651,-2.5478,-2.5371,-2.5344,-2.5264,-2.497,-2.4903,-2.485,-2.4639,-2.4599,-2.4599,-2.4599,-2.4506,-2.4426,0.0,0.0,0.0,0.0,0.0,0.0,0.0,0.0,0.0,0.0,0.0,0.0,0.0,0.0,0.0,0.0,0.0,0.0,-2.4586,0.0,-2.4599,-2.4599,-2.4599,-2.4599,-2.4599,-2.4599,-2.4693,-2.4903,-2.5024,-2.517,-2.5344,-2.5464,-2.5518,-2.5518,-2.5518,-2.5451,-2.5344,-2.5344,-2.5264,-2.5119,-2.5119,-2.5119,-2.5119,-2.5518,0.0,-2.5638,0.0,-2.5718,-2.5838,-2.6091,-2.6118,-2.6198,-2.636,-2.6252,-2.6198,-2.6373,-2.6386,-2.6386,-2.6386,-2.6386,-2.6386,-2.6386,-2.6386,-2.6386,-2.6386,-2.6386,0.0,-2.6386,-2.6386,-2.6386,-2.6386,-2.6386,0.0,0.0,0.0,0.0,0.0,-2.6386,-2.6386,-2.6386,-2.6386,-2.6386,-2.6386,-2.6386,-2.6386,-2.6386,-2.6386,-2.6386,-2.6386,-2.6386,-2.6386,-2.6386,-2.6386,-2.6386,-2.6386,-2.6386,-2.6386,-2.6386,-2.6386,-2.6279,-2.6118,-2.6118,-2.5932,-2.5745,-2.5665,-2.5638,-2.5571,-2.5277,-2.5144,-2.4997,-2.4666,-2.4599,-2.4599,-2.4599,-2.4599,-2.4599,-2.4599,0.0,0.0,0.0,0.0,0.0,0.0,0.0,-2.3928,-2.4022,0.0,0.0,0.0,0.0,0.0,0.0,0.0,0.0,0.0,0.0,0.0,0.0,-2.4599,-2.4599,-2.4599,-2.4693,-2.4877,-2.5128,-2.5302,-2.5491,-2.5772,-2.5772,-2.5772,-2.5772,-2.5772,-2.5718,-2.5638,-2.5638,-2.5585,-2.5518,-2.5518,-2.5518,-2.5518,-2.5518,-2.5784,-2.5998,-2.5998,-2.6225,-2.6373,-2.6386,-2.6386,-2.6386,-2.6386,-2.6386,-2.6386,-2.6386,-2.6386,-2.6386,-2.6386,-2.6386,-2.6386,-2.6386,-2.6386,-2.6386,0.0,0.0,-2.6386,-2.6386,-2.6386,-2.6386,-2.6386,0.0,0.0,-2.5998,0.0,-2.6158,-2.6386,-2.6386,-2.6386,-2.6386,-2.6386,-2.6386,-2.6386,-2.6386,-2.6386,-2.6386,-2.6386,-2.6386,-2.6386,-2.6386,-2.6386,-2.6386,-2.6386,-2.6386,-2.6386,-2.6386,-2.6386,-2.6386,-2.6386,-2.6386,-2.6386,-2.6386,-2.6386,-2.6306,-2.6065,-2.5998,-2.5917,-2.5571,-2.5291,-2.4997,-2.4666,-2.4599,-2.4599,-2.4599,-2.4599,-2.4599,-2.4599,0.0,0.0,0.0,0.0,0.0,0.0,-2.4369,-2.4315,-2.4559,0.0,0.0,0.0,0.0,0.0,0.0,0.0,0.0,-2.4599,-2.4599,0.0,-2.4599,-2.4599,-2.4599,-2.4599,-2.493,-2.5115,-2.5141,-2.5717,-2.6145,-2.6373,-2.6373,-2.6373,-2.6373,-2.6373,-2.6252,-2.5998,-2.5998,-2.5772,-2.5518,-2.5518,-2.5518,-2.5518,-2.6106,-2.6186,-2.6253,-2.6253,-2.6333,-2.6386,-2.6386,-2.6386,-2.6386,-2.6386,-2.6386,-2.6386,-2.6386,-2.6386,-2.6386,0.0,-2.6386,-2.6386,0.0,-2.6386,-2.6386,-2.6386,-2.6386,-2.6386,-2.6386,-2.6386,-2.6386,-2.6386,0.0,0.0,0.0,-2.6253,-2.6346,-2.6386,-2.6386,-2.6386,-2.6386,-2.6386,-2.6386,-2.6386,-2.6386,-2.6386,-2.6386,-2.6386,-2.6386,-2.6386,-2.6386,-2.6386,-2.6386,-2.6386,-2.6386,-2.6386,-2.6386,-2.6386,-2.6386,-2.6386,-2.6386,-2.6386,-2.6386,-2.6386,-2.6373,-2.6279,-2.6253,-2.6212,-2.5917,-2.5585,-2.5291,-2.4997,-2.4943,-2.4877,-2.4639,-2.4599,-2.4599,-2.4599,0.0,0.0,0.0,0.0,0.0,0.0,0.0,-2.4492,0.0,-2.4519,0.0,0.0,0.0,0.0,0.0,0.0,0.0,0.0,-2.4599,0.0,-2.4599,-2.4599,-2.4706,-2.4943,-2.5037,-2.5329,-2.573,-2.6118,-2.6306,-2.6386,-2.6386,-2.6386,-2.6386,-2.6386,-2.6333,-2.6253,-2.6253,-2.6199,-2.6106,-2.6106,-2.6106,-2.6106,-2.6386,-2.6386,-2.6386,-2.6386,-2.6386,-2.6386,-2.6386,-2.6386,-2.6386,-2.6386,-2.6386,-2.6386,-2.6386,-2.6386,0.0,-2.6386,-2.6386,-2.6386,-2.6386,-2.6386,-2.6386,-2.6386,-2.6386,-2.6386,-2.6386,0.0,0.0,-2.6386,-2.6386,-2.6386,-2.6386,-2.6386,-2.6386,-2.6386,-2.6386,-2.6386,-2.6386,-2.6386,-2.6386,-2.6386,-2.6386,-2.6386,-2.6386,-2.6386,-2.6386,-2.6386,-2.6386,-2.6386,-2.6386,-2.6386,-2.6386,-2.6386,-2.6386,-2.6386,-2.6386,-2.6386,-2.6386,-2.6386,-2.6386,-2.6386,-2.6386,-2.6386,-2.6386,-2.6319,-2.6065,-2.585,-2.5598,-2.5304,-2.5237,-2.5157,-2.4863,-2.4796,-2.477,-2.4613,0.0,-2.4599,0.0,0.0,0.0,0.0,0.0,0.0,0.0,-2.4599,0.0,0.0,0.0,0.0,0.0,0.0,0.0,-2.4599,-2.4599,0.0,-2.4599,-2.4706,-2.489,-2.5077,-2.5342,-2.5703,-2.6172,-2.6306,-2.6386,-2.6386,-2.6386,-2.6386,-2.6386,-2.6386,-2.6386,-2.6386,-2.6386,-2.6386,-2.6386,-2.6386,-2.6386,-2.6386,-2.6386,-2.6386,0.0,0.0,-2.6386,0.0,-2.6386,-2.6386,-2.6386,-2.6386,-2.6386,-2.6386,-2.6386,-2.6386,-2.6386,-2.6386,0.0,0.0,0.0,-2.6386,-2.6386,-2.6386,-2.6386,-2.6386,-2.6386,-2.6386,-2.6386,-2.6386,-2.6386,-2.6386,-2.6386,-2.6386,-2.6386,-2.6386,-2.6386,-2.6386,-2.6386,-2.6386,-2.6386,-2.6386,-2.6386,-2.6386,-2.6386,-2.6386,-2.6386,-2.6386,-2.6386,-2.6386,-2.6386,-2.6386,-2.6386,-2.6386,-2.6386,-2.6386,-2.6386,-2.6386,-2.6386,-2.6386,-2.6386,-2.6386,-2.6386,-2.6386,-2.6386,-2.6319,-2.6091,-2.6024,-2.5944,-2.5598,-2.5545,-2.5451,-2.5157,-2.509,-2.4983,-2.4679,-2.4613,-2.4599,-2.4599,0.0,0.0,0.0,0.0,0.0,0.0,-2.4599,-2.4599,0.0,0.0,0.0,0.0,0.0,-2.4599,-2.4599,-2.4599,-2.4613,-2.4626,-2.4943,-2.5104,-2.5181,-2.5757,-2.6172,-2.6386,-2.6386,-2.6386,-2.6386,-2.6386,-2.6386,-2.6386,-2.6386,-2.6386,-2.6386,-2.6386,-2.6386,-2.6386,-2.6386,-2.6386,-2.6386,0.0,0.0,-2.6386,-2.6386,-2.6386,-2.6386,-2.6386,-2.6386,-2.6386,-2.6386,-2.6386,-2.6386,-2.6386,-2.6386,-2.6386,-2.6386,-2.6386,-2.6386,-2.6386,-2.6386,-2.6386,-2.6386,-2.6386,-2.6386,-2.6386,-2.6386,-2.6386,-2.6386,-2.6386,-2.6386,-2.6386,-2.6386,-2.6386,-2.6386,-2.6386,-2.6386,-2.6386,-2.6386,-2.6386,-2.6386,-2.6386,-2.6386,-2.6386,-2.6386,-2.6386,-2.6386,-2.6386,-2.6386,-2.6386,-2.6386,-2.6386,-2.6386,-2.6386,-2.6386,-2.6386,-2.6386,-2.6386,-2.6386,-2.6386,-2.6386,-2.6386,-2.6386,-2.6386,-2.6373,-2.6306,-2.6332,-2.6199,-2.5944,-2.5891,-2.5758,-2.5464,-2.5224,-2.5064,-2.4983,-2.4783,-2.4599,-2.4599,0.0,0.0,0.0,-2.4599,-2.4599,-2.4599,-2.4599,-2.4599,0.0,0.0,0.0,0.0,-2.4599,-2.4599,-2.4599,-2.4599,-2.4706,-2.497,-2.5037,-2.5342,-2.5797,-2.6158,-2.6319,-2.6386,-2.6386,-2.6386,-2.6386,-2.6386,-2.6386,-2.6386,-2.6386,-2.6386,-2.6386,-2.6386,-2.6386,-2.6386,-2.6386,-2.6386,-2.6386,-2.6386,-2.6386,-2.6386,-2.6386,-2.6386,-2.6386,-2.6386,-2.6386,-2.6386,-2.6386,-2.6386,-2.6386,-2.6386,-2.6386,-2.6386,-2.6386,-2.6386,-2.6386,-2.6386,-2.6386,-2.6386,-2.6386,-2.6386,-2.6386,-2.6386,-2.6386,-2.6386,-2.6386,-2.6386,-2.6386,-2.6386,-2.6386,-2.6386,-2.6386,-2.6386,-2.6386,-2.6386,-2.6386,-2.6386,-2.6386,-2.6386,-2.6386,-2.6386,-2.6386,-2.6386,-2.6386,-2.6386,-2.6386,-2.6386,-2.6386,-2.6386,-2.6386,-2.6386,-2.6386,-2.6386,-2.6386,-2.6386,-2.6386,-2.6386,-2.6386,-2.6386,-2.6386,-2.6386,-2.6386,-2.6386,-2.6386,-2.6346,-2.6225,-2.6198,-2.6105,-2.5772,-2.5623,-2.5476,-2.5304,-2.5024,-2.4836,-2.4836,-2.4679,0.0,-2.4599,-2.4599,-2.4599,-2.4599,-2.4599,-2.4599,-2.4599,0.0,0.0,-2.4599,-2.4599,-2.4599,-2.4599,-2.4733,-2.4917,-2.5115,-2.5382,-2.5743,-2.6198,-2.6319,-2.6386,-2.6386,-2.6386,-2.6386,-2.6386,-2.6386,-2.6386,-2.6386,-2.6386,-2.6386,-2.6386,-2.6386,-2.6386,-2.6386,-2.6386,-2.6386,-2.6386,-2.6386,-2.6386,-2.6386,-2.6386,-2.6386,-2.6386,-2.6386,-2.6386,-2.6386,-2.6386,-2.6386,-2.6386,-2.6386,-2.6386,-2.6386,-2.6386,-2.6386,-2.6386,-2.6386,-2.6386,-2.6386,-2.6386,-2.6386,-2.6386,-2.6386,-2.6386,-2.6386,-2.6386,-2.6386,-2.6386,-2.6386,-2.6386,-2.6386,-2.6386,-2.6386,-2.6386,-2.6386,-2.6386,-2.6386,-2.6386,-2.6386,-2.6386,-2.6386,-2.6386,-2.6386,-2.6386,-2.6386,-2.6386,-2.6386,-2.6386,-2.6386,-2.6386,-2.6386,-2.6386,-2.6386,-2.6386,-2.6386,-2.6386,-2.6386,-2.6386,-2.6386,-2.6386,-2.6386,-2.6386,-2.6386,-2.6386,-2.6386,-2.6386,-2.6386,-2.6319,-2.6105,-2.6024,-2.5917,-2.5625,-2.5331,-2.5144,-2.5144,0.0,-2.4666,-2.4666,-2.4626,-2.4599,-2.4599,-2.4599,-2.4599,-2.4599,-2.4599,-2.4613,0.0,-2.4666,-2.4693,-2.4733,-2.497,-2.5117,-2.5248,-2.5784,-2.6185,-2.6386,-2.6386,-2.6386,-2.6386,-2.6386,-2.6386,-2.6386,-2.6386,-2.6386,-2.6386,-2.6386,-2.6386,-2.6386,-2.6386,-2.6386,-2.6386,-2.6386,-2.6386,-2.6386,-2.6386,-2.6386,-2.6386,-2.6386,-2.6386,-2.6386,-2.6386,-2.6386,-2.6386,-2.6386,-2.6386,-2.6386,-2.6386,-2.6386,-2.6386,-2.6386,-2.6386,-2.6386,-2.6386,-2.6386,-2.6386,-2.6386,-2.6386,-2.6386,-2.6386,-2.6386,-2.6386,-2.6386,-2.6386,-2.6386,-2.6386,-2.6386,-2.6386,-2.6386,-2.6386,-2.6386,-2.6386,-2.6386,-2.6386,-2.6386,-2.6386,-2.6386,-2.6386,-2.6386,-2.6386,-2.6386,-2.6386,-2.6386,-2.6386,-2.6386,-2.6386,-2.6386,-2.6386,-2.6386,-2.6386,-2.6386,-2.6386,-2.6386,-2.6386,-2.6386,-2.6386,-2.6386,-2.6386,-2.6386,-2.6386,-2.6386,-2.6386,-2.6386,-2.6386,-2.6373,-2.6333,-2.6158,-2.5984,-2.5931,-2.5638,-2.5451,-2.5451,0.0,-2.501,-2.501,-2.4783,-2.4599,-2.4599,-2.4599,-2.4599,-2.4599,-2.4599,-2.4706,-2.4997,-2.501,-2.513,-2.5333,-2.5184,-2.5355,-2.585,-2.6198,-2.6346,-2.6386,-2.6386,-2.6386,-2.6386,-2.6386,-2.6386,-2.6386,-2.6386,-2.6386,-2.6386,-2.6386,-2.6386,-2.6386,-2.6386,-2.6386,-2.6386,-2.6386,-2.6386,-2.6386,-2.6386,-2.6386,-2.6386,-2.6386,-2.6386,-2.6386,-2.6386,-2.6386,-2.6386,-2.6386,-2.6386,-2.6386,-2.6386,-2.6386,-2.6386,-2.6386,-2.6386,-2.6386,-2.6386,-2.6386,-2.6386,-2.6386,-2.6386,-2.6386,-2.6386,-2.6386,-2.6386,-2.6386,-2.6386,-2.6386,-2.6386,-2.6386,-2.6386,-2.6386,-2.6386,-2.6386,-2.6386,-2.6386,-2.6386,-2.6386,-2.6386,-2.6386,-2.6386,-2.6386,-2.6386,-2.6386,-2.6386,-2.6386,-2.6386,-2.6386,-2.6386,-2.6386,-2.6386,-2.6386,-2.6386,-2.6386,-2.6386,-2.6386,-2.6386,-2.6386,-2.6386,-2.6386,-2.6386,-2.6386,-2.6386,-2.6386,-2.6386,-2.6386,-2.6386,-2.6386,-2.6386,-2.6279,-2.6225,-2.6225,-2.5945,0.0,0.0,-2.5491,-2.5317,-2.5317,-2.5197,-2.5066,-2.5066,-2.5066,-2.5066,-2.5066,-2.5066,-2.517,-2.5304,-2.5317,-2.5451,-2.5745,-2.5663,-2.5797,-2.6225,-2.6319,-2.6386,-2.6386,-2.6386,-2.6386,-2.6386,-2.6386,-2.6386,-2.6386,-2.6386,-2.6386,-2.6386,-2.6386,-2.6386,-2.6386,-2.6386,-2.6386,-2.6386,-2.6386,-2.6386,-2.6386,-2.6386,-2.6386,-2.6386,-2.6386,-2.6386,-2.6386,-2.6386,-2.6386,-2.6386,-2.6386,-2.6386,-2.6386,-2.6386,-2.6386,-2.6386,-2.6386,-2.6386,-2.6386,-2.6386,-2.6386,-2.6386,-2.6386,-2.6386,-2.6386,-2.6386,-2.6386,-2.6386,-2.6386,-2.6386,-2.6386,-2.6386,-2.6386,-2.6386,-2.6386,-2.6386,-2.6386,-2.6386,-2.6386,-2.6386,-2.6386,-2.6386,-2.6386,-2.6386,-2.6386,-2.6386,-2.6386,-2.6386,-2.6386,-2.6386,-2.6386,-2.6386,-2.6386,-2.6386,-2.6386,-2.6386,-2.6386,-2.6386,-2.6386,-2.6386,-2.6386,-2.6386,-2.6386,-2.6386,-2.6386,-2.6386,-2.6386,-2.6386,-2.6386,-2.6386,-2.6386,-2.6386,-2.6386,-2.6386,-2.6386,0.0,0.0,0.0,-2.5798,-2.5611,-2.5611,-2.5558,-2.5518,-2.5518,-2.5518,-2.5518,-2.5518,-2.5518,-2.5545,-2.5611,-2.5611,-2.5758,-2.6091,-2.6091,-2.6198,-2.6386,-2.6386,-2.6386,-2.6386,-2.6386,-2.6386,-2.6386,-2.6386,-2.6386,-2.6386,-2.6386,-2.6386,-2.6386,-2.6386,-2.6386,-2.6386,-2.6386,-2.6386,-2.6386,-2.6386,-2.6386,-2.6386,-2.6386,-2.6386,-2.6386,-2.6386,-2.6386,-2.6386,-2.6386,-2.6386,-2.6386,-2.6386,-2.6386,-2.6386,-2.6386,-2.6386,-2.6386,-2.6386,-2.6386,-2.6386,-2.6386,-2.6386,-2.6386,-2.6386,-2.6386,-2.6386,-2.6386,-2.6386,-2.6386,-2.6386,-2.6386,-2.6386,-2.6386,-2.6386,-2.6386,-2.6386,-2.6386,-2.6386,-2.6386,-2.6386,-2.6386,-2.6386,-2.6386,-2.6386,-2.6386,-2.6386,-2.6386,-2.6386,-2.6386,-2.6386,-2.6386,-2.6386,-2.6386,-2.6386,-2.6386,-2.6386,-2.6386,-2.6386,-2.6386,-2.6386,-2.6386,-2.6386,-2.6386,-2.6386,-2.6386,-2.6386,-2.6386,-2.6386,-2.6386,-2.6386,-2.6386,-2.6386,-2.6386,-2.6386,-2.6386,-2.6386,0.0,0.0,-2.636,-2.6145,-2.5957,-2.5957,-2.5678,-2.5518,-2.5518,-2.5518,-2.5518,-2.5518,-2.5518,-2.5638,-2.5944,-2.5957,-2.6091,-2.6346,-2.636,-2.6373,-2.6386,-2.6386,-2.6386,-2.6386,-2.6386,-2.6386,-2.6386,-2.6386,-2.6386,-2.6386,-2.6386,-2.6386,-2.6386,-2.6386,-2.6386,-2.6386,-2.6386,-2.6386,-2.6386,-2.6386,-2.6386,-2.6386,-2.6386,-2.6386,-2.6386,-2.6386,-2.6386,-2.6386,-2.6386,-2.6386,-2.6386,-2.6386,-2.6386,-2.6386,-2.6386,-2.6386,-2.6386,-2.6386,-2.6386,-2.6386,-2.6386,-2.6386,-2.6386,-2.6386,-2.6386,-2.6386,-2.6386,-2.6386,-2.6386,-2.6386,-2.6386,-2.6386,-2.6386,-2.6386,-2.6386,-2.6386,-2.6386,-2.6386,-2.6386,-2.6386,-2.6386,-2.6386,-2.6386,-2.6386,-2.6386,-2.6386,-2.6386,-2.6386,-2.6386,-2.6386,-2.6386,-2.6386,-2.6386,-2.6386,-2.6386,-2.6386,-2.6386,-2.6386,-2.6386,-2.6386,-2.6386,-2.6386,-2.6386,-2.6386,-2.6386,-2.6386,-2.6386,-2.6386,-2.6386,-2.6386,-2.6386,-2.6386,-2.6386,-2.6386,-2.6386,-2.6386,0.0,-2.6386,-2.6386,-2.6293,-2.6265,-2.6265,-2.6119,-2.6052,-2.6052,-2.6052,-2.6052,-2.6052,-2.6052,-2.6106,-2.6265,-2.6265,-2.6279,-2.6386,-2.6386,-2.6386,-2.6386,-2.6386,-2.6386,-2.6386,-2.6386,-2.6386,-2.6386,-2.6386,-2.6386,-2.6386,-2.6386,-2.6386,-2.6386,-2.6386,-2.6386,-2.6386,-2.6386,-2.6386,-2.6386,-2.6386,-2.6386,-2.6386,-2.6386,-2.6386,-2.6386,-2.6386,-2.6386,-2.6386,-2.6386,-2.6386,-2.6386,-2.6386,-2.6386,-2.6386,-2.6386,-2.6386,-2.6386,-2.6386,-2.6386,-2.6386,-2.6386,-2.6386,-2.6386,-2.6386,-2.6386,-2.6386,-2.6386,-2.6386,-2.6386,-2.6386,-2.6386,-2.6386,-2.6386,-2.6386,-2.6386,-2.6386,-2.6386,-2.6386,-2.6386,-2.6386,-2.6386,-2.6386,-2.6386,-2.6386,-2.6386,-2.6386,-2.6386,-2.6386,-2.6386,-2.6386,-2.6386,-2.6386,-2.6386,-2.6386,-2.6386,-2.6386,-2.6386,-2.6386,-2.6386,-2.6386,-2.6386,-2.6386,-2.6386,-2.6386,-2.6386,-2.6386,-2.6386,-2.6386,-2.6386,-2.6386,-2.6386,-2.6386,-2.6386,-2.6386,-2.6386,-2.6386,-2.6386,-2.6386,-2.6386,-2.6386,-2.6386,-2.6386,-2.6386,-2.6386,-2.6386,-2.6386,-2.6386,-2.6386,-2.6386,-2.6386,-2.6386,-2.6386,-2.6386,-2.6386,-2.6386,-2.6386,-2.6386,-2.6386,-2.6386,-2.6386,-2.6386,-2.6386,-2.6386,-2.6386,-2.6386,-2.6386,-2.6386,-2.6386,-2.6386,-2.6386,-2.6386,-2.6386,-2.6386,-2.6386,-2.6386,-2.6386,-2.6386,-2.6386,-2.6386,-2.6386,-2.6386,-2.6386,-2.6386,-2.6386,-2.6386,-2.6386,-2.6386,-2.6386,-2.6386,-2.6386,-2.6386,-2.6386,-2.6386,-2.6386,-2.6386,-2.6386,-2.6386,-2.6386,-2.6386,-2.6386,-2.6386,-2.6386,-2.6386,-2.6386,-2.6386,-2.6386,-2.6386,-2.6386,-2.6386,-2.6386,-2.6386,-2.6386,-2.6386,-2.6386,-2.6386,-2.6386,-2.6386,-2.6386,-2.6386,-2.6386,-2.6386,-2.6386,-2.6386,-2.6386,-2.6386,-2.6386,-2.6386,-2.6386,-2.6386,-2.6386,-2.6386,-2.6386,-2.6386,-2.6386,-2.6386,-2.6386,-2.6386,-2.6386,-2.6386,-2.6386,-2.6386,-2.6386,-2.6386,-2.6386,-2.6386,-2.6386,-2.6386,-2.6386,-2.6386,-2.6386,-2.6386,-2.6386,-2.6386,-2.6386,-2.6386,-2.6386,-2.6386,-2.6386,-2.6386,-2.6386,-2.6386,-2.6386,-2.6386,-2.6386,-2.6386,-2.6386,-2.6386,-2.6386,-2.6386,-2.6386,-2.6386,-2.6386,-2.6386,-2.6386,-2.6386,-2.6386,-2.6386,-2.6386,-2.6386,-2.6386,-2.6386,-2.6386,-2.6386,-2.6386,-2.6386,-2.6386,-2.6386,-2.6386,-2.6386,-2.6386,-2.6386,-2.6386,-2.6386,-2.6386,-2.6386,-2.6386,-2.6386,-2.6386,-2.6386,-2.6386,-2.6386,-2.6386,-2.6386,-2.6386,-2.6386,-2.6386,-2.6386,-2.6386,-2.6386,-2.6386,-2.6386,-2.6386,-2.6386,-2.6386,-2.6386,-2.6386,-2.6386,-2.6386,-2.6386,-2.6386,-2.6386,-2.6386,-2.6386,-2.6386,-2.6386,-2.6386,-2.6386,-2.6386,-2.6386,-2.6386,-2.6386,-2.6386,-2.6386,-2.6386,-2.6386,-2.6386,-2.6386,-2.6386,-2.6386,-2.6386,-2.6386,-2.6386,-2.6386,-2.6386,-2.6386,-2.6386,-2.6386,-2.6386,-2.6386,-2.6386,-2.6386,-2.6386,-2.6386,-2.6386,-2.6386,-2.6386,-2.6386,-2.6386,-2.6386,-2.6386,-2.6386,-2.6386,-2.6386,-2.6386,-2.6386,-2.6386,-2.6386,-2.6386,-2.6386,-2.6386,-2.6386,-2.6386,-2.6386,-2.6386,-2.6386,-2.6386,-2.6386,-2.6386,-2.6386,-2.6386,-2.6386,-2.6386,-2.6386,-2.6386,-2.6386,-2.6386,-2.6386,-2.6386,-2.6386,-2.6386,-2.6386,-2.6386,-2.6386,-2.6386,-2.6386,-2.6386,-2.6386,-2.6386,-2.6386,-2.6386,-2.6386,-2.6386,-2.6386,-2.6386,-2.6386,-2.6386,-2.6386,-2.6386,-2.6386,-2.6386,-2.6386,-2.6386,-2.6386,-2.6386,-2.6386,-2.6386,-2.6386,-2.6386,-2.6386,-2.6386,-2.6386,-2.6386,-2.6386,-2.6386,-2.6386,-2.6386,-2.6386,-2.6386,-2.6386,-2.6386,-2.6386,-2.6386,-2.6386,-2.6386,-2.6386,-2.6386,-2.6386,-2.6386,-2.6386,-2.6386,-2.6386,-2.6386,-2.6386,-2.6386,-2.6386,-2.6386,-2.6386,-2.6386,-2.6386,-2.6386,-2.6386,-2.6386,-2.6386,-2.6386,-2.6386,-2.6386,-2.6386,-2.6386,-2.6386,-2.6386,-2.6386,-2.6386,-2.6386,-2.6386,-2.6386,-2.6386,-2.6386,-2.6386,-2.6386,-2.6386,-2.6386,-2.6386,-2.6386,-2.6386,-2.6386,-2.6386,-2.6386,-2.6386,-2.6386,-2.6386,-2.6386,-2.6386,-2.6386,-2.6386,-2.6386,-2.6386,-2.6386,-2.6386,-2.6386,-2.6386,-2.6386,-2.6386,-2.6386,-2.6386,-2.6386,-2.6386,-2.6386,-2.6386,-2.6386,-2.6386,-2.6386,-2.6386,-2.6386,-2.6386,-2.6386,-2.6386,-2.6386,-2.6386,-2.6386,-2.6386,-2.6386,-2.6386,-2.6386,-2.6386,-2.6386,-2.6386,-2.6386,-2.6386,-2.6386,-2.6386,-2.6386,-2.6386,-2.6386,-2.6386,-2.6386,-2.6386,-2.6386,-2.6386,-2.6386,-2.6386,-2.6386,-2.6386,-2.6386,-2.6386,-2.6386,-2.6386,-2.6386,-2.6386,-2.6386,-2.6386,-2.6386,-2.6386,-2.6386,-2.6386,-2.6386,-2.6386,-2.6386,-2.6386,-2.6386,-2.6386,-2.6386,-2.6386,-2.6386,-2.6386,-2.6386,-2.6386,-2.6386,-2.6386,-2.6386,-2.6386,-2.6386,-2.6386,-2.6386,-2.6386,-2.6386,-2.6386,-2.6386,-2.6386,-2.6386,-2.6386,-2.6386,-2.6386,-2.6386,-2.6386,-2.6386,-2.6386,-2.6386,-2.6386,-2.6386,-2.6386,-2.6386,-2.6386,-2.6386,-2.6386,-2.6386,-2.6386,-2.6386,-2.6386,-2.6386,-2.6386,-2.6386,-2.6386,-2.6386,-2.6386,-2.6386,-2.6386,-2.6386,-2.6386,-2.6386,-2.6386,-2.6386,-2.6386,-2.6386,-2.6386,-2.6386,-2.6386,-2.6386,-2.6386,-2.6386,-2.6386,-2.6386,-2.6386,-2.6386,-2.6386,-2.6386,-2.6386,-2.6386,-2.6386,-2.6386,-2.6386,-2.6386,-2.6386,-2.6386,-2.6386,-2.6386,-2.6386,-2.6386,-2.6386,-2.6386,-2.6386,-2.6386,-2.6386,-2.6386,-2.6386,-2.6386,-2.6386,-2.6386,-2.6386,-2.6386,-2.6386,-2.6386,-2.6386,-2.6386,-2.6386,-2.6386,-2.6386,-2.6386,-2.6386,-2.6386,-2.6386,-2.6386,-2.6386,-2.6386,-2.6386,-2.6386,-2.6386,-2.6386,-2.6386,-2.6386,-2.6386,-2.6386,-2.6386,-2.6386,-2.6386,-2.6386,-2.6386,-2.6386,-2.6386,-2.6386,-2.6386,-2.6386,-2.6386,-2.6386,-2.6386,-2.6386,-2.6386,-2.6386,-2.6386,-2.6386,-2.6386,-2.6386,-2.6386,-2.6386,-2.6386,-2.6386,-2.6386,-2.6386,-2.6386,-2.6386,-2.6386,-2.6386,-2.6386,-2.6386,-2.6386,-2.6386,-2.6386,-2.6386,-2.6386,-2.6386,-2.6386,-2.6386,-2.6386,-2.6386,-2.6386,-2.6386,-2.6386,-2.6386,-2.6386,-2.6386,-2.6386,-2.6386,-2.6386,-2.6386,-2.6386,-2.6386,-2.6386,-2.6386,-2.6386,-2.6386,-2.6386,-2.6386,-2.6386,-2.6386,-2.6386,-2.6386,-2.6386,-2.6386,-2.6386,-2.6386,-2.6386,-2.6386,-2.6386,-2.6386,-2.6386,-2.6386,-2.6386,-2.6386,-2.6386,-2.6386,-2.6386,-2.6386,-2.6386,-2.6386,-2.6386,-2.6386,-2.6386,-2.6386,-2.6386,-2.6386,-2.6386,-2.6386,-2.6386,-2.6386,-2.6386,-2.6386,-2.6386,-2.6386,-2.6386,-2.6386,-2.6386,-2.6386,-2.6386,-2.6386,-2.6386,-2.6386,-2.6386,-2.6386,-2.6386,-2.6386,-2.6386,-2.6386,-2.6386,-2.6386,-2.6386,-2.6386,-2.6386,-2.6386,-2.6386,-2.6386,-2.6386,-2.6386,-2.6386,-2.6386,-2.6386,-2.6386,-2.6386,-2.6386,-2.6386,-2.6386,-2.6386,-2.6386,-2.6386,-2.6386,-2.6386,-2.6386,-2.6386,-2.6386,-2.6386,-2.6386,-2.6386,-2.6386,-2.6386,-2.6386,-2.6386,-2.6386,-2.6386,-2.6386,-2.6386,-2.6386,-2.6386,-2.6386,-2.6386,-2.6386,-2.6386,-2.6386,-2.6386,-2.6386,-2.6386,-2.6386,-2.6386,-2.6386,-2.6386,-2.6386,-2.6386,-2.6386,-2.6386,-2.6386,-2.6386,-2.6386,-2.6386,-2.6386,-2.6386,-2.6386,-2.6386,-2.6386,-2.6386,-2.6386,-2.6386,-2.6386,-2.6386,-2.6386,-2.6386,-2.6386,-2.6386,-2.6386,-2.6386,-2.6386,-2.6386,-2.6386,-2.6386,-2.6386,-2.6386,-2.6386,-2.6386,-2.6386,-2.6386,-2.6386,-2.6386,-2.6386,-2.6386,-2.6386,-2.6386,-2.6386,-2.6386,-2.6386,-2.6386,-2.6386,-2.6386,-2.6386,-2.6386,-2.6386,-2.6386,-2.6386,-2.6386,-2.6386,-2.6386,-2.6386,-2.6386,-2.6386,-2.6386,-2.6386,-2.6386,-2.6386,-2.6386,-2.6386,-2.6386,-2.6386,-2.6386,-2.6386,-2.6386,-2.6386,-2.6386,-2.6386,-2.6386,-2.6386,-2.6386,-2.6386,-2.6386,-2.6386,-2.6386,-2.6386,-2.6386,-2.6386,-2.6386,-2.6386,-2.6386,-2.6386,-2.6386,-2.6386,-2.6386,-2.6386,-2.6386,-2.6386,-2.6386,-2.6386,-2.6386,-2.6386,-2.6386,-2.6386,-2.6386,-2.6386,-2.6386,-2.6386,-2.6386,-2.6386,-2.6386,-2.6386,-2.6386,-2.6386,-2.6386,-2.6386,-2.6386,-2.6386,-2.6386,-2.6386,-2.6386,-2.6386,-2.6386,-2.6386,-2.6386,-2.6386,-2.6386,-2.6386,-2.6386,-2.6386,-2.6386,-2.6386,-2.6386,-2.6386,-2.6386,-2.6386,-2.6386,-2.6386,-2.6386,-2.6386,-2.6386,-2.6386,-2.6386,-2.6386,-2.6386,-2.6386,-2.6386,-2.6386,-2.6386,-2.6386,-2.6386,-2.6386,-2.6386,-2.6386,-2.6386,-2.6386,-2.6386,-2.6386,-2.6386,-2.6386,-2.6386,-2.6386,-2.6386,-2.6386,-2.6386,-2.6386,-2.6386,-2.6386,-2.6386,-2.6386,-2.6386,-2.6386,-2.6386,-2.6386,-2.6386,-2.6386,-2.6386,-2.6386,-2.6386,-2.6386,-2.6386,-2.6386,-2.6386,-2.6386,-2.6386,-2.6386,-2.6386,-2.6386,-2.6386,-2.6386,-2.6386,-2.6386,-2.6386,-2.6386,-2.6386,-2.6386,-2.6386,-2.6386,-2.6386,-2.6386,-2.6386,-2.6386,-2.6386,-2.6386,-2.6386,-2.6386,-2.6386,-2.6386,-2.6386,-2.6386,-2.6386,-2.6386,-2.6386,-2.6386,-2.6386,-2.6386,-2.6386,-2.6386,-2.6386,-2.6386,-2.6386,-2.6386,-2.6386,-2.6386,-2.6386,-2.6386,-2.6386,-2.6386,-2.6386,-2.6386,-2.6386,-2.6386,-2.6386,-2.6386,-2.6386,-2.6386,-2.6386,-2.6386,-2.6386,-2.6386,-2.6386,-2.6386,-2.6386,-2.6386,-2.6386,-2.6386,-2.6386,-2.6386,-2.6386,-2.6386,-2.6386,-2.6386,-2.6386,-2.6386,-2.6386,-2.6386,-2.6386,-2.6386,-2.6386,-2.6386,-2.6386,-2.6386,-2.6386,-2.6386,-2.6386,-2.6386,-2.6386,-2.6386,-2.6386,-2.6386,-2.6386,-2.6386,-2.6386,-2.6386,-2.6386,-2.6386,-2.6386,-2.6386,-2.6386,-2.6386,-2.6386,-2.6386,-2.6386,-2.6386,-2.6386,-2.6386,-2.6386,-2.6386,-2.6386,-2.6386,-2.6386,-2.6386,-2.6386,-2.6386,-2.6386,-2.6386,-2.6386,-2.6386,-2.6386,-2.6386,-2.6386,-2.6386,-2.6386,-2.6386,-2.6386,-2.6386,-2.6386,-2.6386,-2.6386,-2.6386,-2.6386,-2.6386,-2.6386,-2.6386,-2.6386,-2.6386,-2.6386,-2.6386,-2.6386,-2.6386,-2.6386,-2.6386,-2.6386,-2.6386,-2.6386,-2.6386,-2.6386,-2.6386,-2.6386,-2.6386,-2.6386,-2.6386,-2.6386,-2.6386,-2.6386,-2.6386,-2.6386,-2.6386,-2.6386,-2.6386,-2.6386,-2.6386,-2.6386,-2.6386,-2.6386,-2.6386,-2.6386,-2.6386,-2.6386,-2.6386,-2.6386,-2.6386,-2.6386,-2.6386,-2.6386,-2.6386,-2.6386,-2.6386,-2.6386,-2.6386,-2.6386,-2.6386,-2.6386,-2.6386,-2.6386,-2.6386,-2.6386,-2.6386,-2.6386,-2.6386,-2.6386,-2.6386,-2.6386,-2.6386,-2.6386,-2.6386,-2.6386,-2.6386,-2.6386,-2.6386,-2.6386,-2.6386,-2.6386,-2.6386,-2.6386,-2.6386,-2.6386,-2.6386,-2.6386,-2.6386,-2.6386,-2.6386,-2.6386,-2.6386,-2.6386,-2.6386,-2.6386,-2.6386,-2.6386,-2.6386,-2.6386,-2.6386,-2.6386,-2.6386,-2.6386,-2.6386,-2.6386]},{"header":{"parameterUnit":"m.s-1","parameterCategory":1,"la1":30.6,"la2":28.766,"lo1":-90.7593,"lo2":-88.6598,"dy":0.0162,"dx":0.0183,"nx":116,"ny":114,"refTime":"2023-04-20T06:00:00:Z","depth":0,"parameterNumber":3,"parameterNumberName":"V-component_of_WINDS"},"data":[0.0,0.0,0.0,0.0,0.0,0.0,0.0,0.0,0.0,0.0,0.0,0.0,0.0,0.0,0.0,0.0,0.0,0.0,0.0,0.0,0.0,0.0,0.0,0.0,0.0,0.0,0.0,0.0,0.0,0.0,0.0,0.0,0.0,0.0,0.0,0.0,0.0,0.0,0.0,0.0,0.0,0.0,0.0,0.0,0.0,0.0,0.0,0.0,0.0,0.0,0.0,0.0,0.0,0.0,0.0,0.0,0.0,0.0,0.0,0.0,0.0,0.0,0.0,0.0,0.0,0.0,0.0,0.0,0.0,0.0,0.0,0.0,0.0,0.0,0.0,0.0,0.0,0.0,0.0,0.0,0.0,0.0,0.0,0.0,0.0,0.0,0.0,0.0,0.0,0.0,0.0,0.0,0.0,0.0,0.0,0.0,0.0,0.0,0.0,0.0,0.0,0.0,0.0,0.0,0.0,0.0,0.0,0.0,0.0,0.0,0.0,0.0,0.0,0.0,0.0,0.0,0.0,0.0,0.0,0.0,0.0,0.0,0.0,0.0,0.0,0.0,0.0,0.0,0.0,0.0,0.0,0.0,0.0,0.0,0.0,0.0,0.0,0.0,0.0,0.0,0.0,0.0,0.0,0.0,0.0,0.0,0.0,0.0,0.0,0.0,0.0,0.0,0.0,0.0,0.0,0.0,0.0,0.0,0.0,0.0,0.0,0.0,0.0,0.0,0.0,0.0,0.0,0.0,0.0,0.0,0.0,0.0,0.0,0.0,0.0,0.0,0.0,0.0,0.0,0.0,0.0,0.0,0.0,0.0,0.0,0.0,0.0,0.0,0.0,0.0,0.0,0.0,0.0,0.0,0.0,0.0,0.0,0.0,0.0,0.0,0.0,0.0,0.0,0.0,0.0,0.0,0.0,0.0,0.0,0.0,0.0,0.0,0.0,0.0,0.0,0.0,0.0,0.0,0.0,0.0,0.0,0.0,0.0,0.0,0.0,0.0,0.0,0.0,0.0,0.0,0.0,0.0,0.0,0.0,0.0,0.0,0.0,0.0,0.0,0.0,0.0,0.0,0.0,0.0,0.0,0.0,0.0,0.0,0.0,0.0,0.0,0.0,0.0,0.0,0.0,0.0,0.0,0.0,0.0,0.0,0.0,0.0,0.0,0.0,0.0,0.0,0.0,0.0,0.0,0.0,0.0,0.0,0.0,0.0,0.0,0.0,0.0,0.0,0.0,0.0,0.0,0.0,0.0,0.0,0.0,0.0,0.0,0.0,0.0,0.0,0.0,0.0,0.0,0.0,0.0,0.0,0.0,0.0,0.0,0.0,0.0,0.0,0.0,0.0,0.0,0.0,0.0,0.0,0.0,0.0,0.0,0.0,0.0,0.0,0.0,0.0,0.0,0.0,0.0,0.0,0.0,0.0,0.0,0.0,0.0,0.0,0.0,0.0,0.0,0.0,0.0,0.0,0.0,0.0,0.0,0.0,0.0,0.0,0.0,0.0,0.0,0.0,0.0,0.0,0.0,0.0,0.0,0.0,0.0,0.0,0.0,0.0,0.0,0.0,0.0,0.0,0.0,0.0,0.0,0.0,0.0,0.0,0.0,0.0,0.0,0.0,0.0,0.0,0.0,0.0,0.0,0.0,0.0,0.0,0.0,0.0,0.0,0.0,0.0,0.0,0.0,0.0,0.0,0.0,0.0,0.0,0.0,0.0,0.0,0.0,0.0,0.0,0.0,0.0,0.0,0.0,0.0,0.0,0.0,0.0,0.0,0.0,0.0,0.0,0.0,0.0,0.0,0.0,0.0,0.0,0.0,0.0,0.0,0.0,0.0,0.0,0.0,0.0,0.0,0.0,0.0,0.0,0.0,0.0,0.0,0.0,0.0,0.0,0.0,0.0,0.0,0.0,0.0,0.0,0.0,0.0,0.0,0.0,0.0,0.0,0.0,0.0,0.0,0.0,0.0,0.0,0.0,0.0,0.0,0.0,0.0,0.0,0.0,0.0,0.0,0.0,0.0,0.0,0.0,0.0,0.0,0.0,0.0,0.0,0.0,0.0,0.0,0.0,0.0,0.0,0.0,0.0,0.0,0.0,0.0,0.0,0.0,0.0,0.0,0.0,0.0,0.0,0.0,0.0,0.0,0.0,0.0,0.0,0.0,0.0,0.0,0.0,0.0,0.0,0.0,0.0,0.0,0.0,0.0,0.0,0.0,0.0,0.0,0.0,0.0,0.0,0.0,0.0,0.0,0.0,0.0,0.0,0.0,0.0,0.0,0.0,0.0,0.0,0.0,0.0,0.0,0.0,0.0,0.0,0.0,0.0,0.0,0.0,0.0,0.0,0.0,0.0,0.0,0.0,0.0,0.0,0.0,0.0,0.0,0.0,0.0,0.0,0.0,0.0,0.0,0.0,0.0,0.0,0.0,0.0,0.0,0.0,0.0,0.0,0.0,0.0,0.0,0.0,0.0,0.0,0.0,0.0,0.0,0.0,0.0,0.0,0.0,0.0,0.0,0.0,0.0,0.0,0.0,0.0,0.0,0.0,0.0,0.0,0.0,0.0,0.0,0.0,0.0,0.0,0.0,0.0,0.0,0.0,0.0,0.0,0.0,0.0,0.0,0.0,0.0,0.0,0.0,0.0,0.0,0.0,0.0,0.0,0.0,0.0,0.0,0.0,0.0,0.0,0.0,0.0,0.0,0.0,0.0,0.0,0.0,0.0,0.0,0.0,0.0,0.0,0.0,0.0,0.0,0.0,0.0,0.0,0.0,0.0,0.0,0.0,0.0,0.0,0.0,0.0,0.0,0.0,0.0,0.0,0.0,0.0,0.0,0.0,0.0,0.0,0.0,0.0,0.0,0.0,0.0,0.0,0.0,0.0,0.0,0.0,0.0,0.0,0.0,0.0,0.0,0.0,0.0,0.0,0.0,0.0,0.0,0.0,0.0,0.0,0.0,0.0,0.0,0.0,0.0,0.0,0.0,0.0,0.0,0.0,0.0,0.0,0.0,0.0,0.0,0.0,0.0,0.0,0.0,0.0,0.0,0.0,0.0,0.0,0.0,0.0,0.0,0.0,0.0,0.0,0.0,0.0,0.0,0.0,0.0,0.0,0.0,0.0,0.0,0.0,0.0,0.0,0.0,0.0,0.0,0.0,0.0,0.0,0.0,0.0,0.0,0.0,0.0,0.0,0.0,0.0,0.0,0.0,0.0,0.0,0.0,0.0,0.0,0.0,0.0,0.0,0.0,0.0,0.0,0.0,0.0,0.0,0.0,0.0,0.0,0.0,0.0,0.0,0.0,0.0,0.0,0.0,0.0,0.0,0.0,0.0,0.0,0.0,0.0,0.0,0.0,0.0,0.0,0.0,0.0,0.0,0.0,0.0,0.0,0.0,0.0,0.0,0.0,0.0,0.0,0.0,0.0,0.0,0.0,0.0,0.0,0.0,0.0,0.0,0.0,0.0,0.0,0.0,0.0,0.0,0.0,0.0,0.0,0.0,0.0,0.0,0.0,0.0,0.0,0.0,0.0,0.0,0.0,0.0,0.0,0.0,0.0,0.0,0.0,0.0,0.0,0.0,0.0,0.0,0.0,0.0,0.0,0.0,0.0,0.0,0.0,0.0,0.0,0.0,0.0,0.0,0.0,0.0,0.0,0.0,0.0,0.0,0.0,0.0,0.0,0.0,0.0,0.0,0.0,0.0,0.0,0.0,0.0,0.0,0.0,0.0,0.0,0.0,0.0,0.0,0.0,0.0,0.0,0.0,0.0,0.0,0.0,0.0,0.0,0.0,0.0,0.0,0.0,0.0,0.0,0.0,0.0,0.0,0.0,0.0,0.0,0.0,0.0,0.0,0.0,0.0,0.0,0.0,0.0,0.0,0.0,0.0,0.0,0.0,0.0,0.0,0.0,0.0,0.0,0.0,0.0,0.0,0.0,0.0,0.0,0.0,0.0,0.0,0.0,0.0,0.0,0.0,0.0,0.0,0.0,0.0,0.0,0.0,0.0,0.0,0.0,0.0,0.0,0.0,0.0,0.0,0.0,0.0,0.0,0.0,0.0,0.0,0.0,0.0,0.0,0.0,0.0,0.0,0.0,0.0,0.0,0.0,0.0,0.0,0.0,0.0,0.0,0.0,0.0,0.0,0.0,0.0,0.0,0.0,0.0,0.0,0.0,0.0,0.0,0.0,0.0,0.0,0.0,0.0,0.0,0.0,0.0,0.0,0.0,0.0,0.0,0.0,0.0,0.0,0.0,0.0,0.0,0.0,0.0,0.0,0.0,0.0,0.0,0.0,0.0,0.0,0.0,0.0,0.0,0.0,0.0,0.0,0.0,0.0,0.0,0.0,0.0,0.0,0.0,0.0,0.0,0.0,0.0,0.0,0.0,0.0,0.0,0.0,0.0,0.0,0.0,0.0,0.0,0.0,0.0,0.0,0.0,0.0,0.0,0.0,0.0,0.0,0.0,0.0,0.0,0.0,0.0,0.0,0.0,0.0,0.0,0.0,0.0,0.0,0.0,0.0,0.0,0.0,0.0,0.0,0.0,0.0,0.0,0.0,0.0,0.0,0.0,0.0,0.0,0.0,0.0,0.0,0.0,0.0,0.0,0.0,0.0,0.0,0.0,0.0,0.0,0.0,0.0,0.0,0.0,0.0,0.0,0.0,0.0,0.0,0.0,0.0,0.0,0.0,0.0,0.0,0.0,0.0,0.0,0.0,0.0,0.0,0.0,0.0,0.0,0.0,0.0,0.0,0.0,0.0,0.0,0.0,0.0,0.0,0.0,0.0,0.0,0.0,0.0,0.0,0.0,0.0,0.0,0.0,0.0,0.0,0.0,0.0,0.0,0.0,0.0,0.0,0.0,0.0,0.0,0.0,0.0,0.0,0.0,0.0,0.0,0.0,0.0,0.0,0.0,0.0,0.0,0.0,0.0,0.0,0.0,0.0,0.0,0.0,0.0,0.0,0.0,0.0,0.0,0.0,0.0,0.0,0.0,0.0,0.0,0.0,0.0,0.0,0.0,0.0,0.0,0.0,0.0,0.0,0.0,0.0,0.0,0.0,0.0,0.0,0.0,0.0,0.0,0.0,0.0,0.0,0.0,0.0,0.0,0.0,0.0,0.0,0.0,0.0,0.0,0.0,0.0,0.0,0.0,0.0,0.0,0.0,0.0,0.0,0.0,0.0,0.0,0.0,0.0,0.0,0.0,0.0,0.0,0.0,0.0,0.0,0.0,0.0,0.0,0.0,0.0,0.0,0.0,0.0,0.0,0.0,0.0,0.0,0.0,0.0,0.0,0.0,0.0,0.0,0.0,0.0,0.0,0.0,0.0,0.0,0.0,0.0,0.0,0.0,0.0,0.0,0.0,0.0,0.0,0.0,0.0,0.0,0.0,0.0,0.0,0.0,0.0,0.0,0.0,0.0,0.0,0.0,0.0,0.0,0.0,0.0,0.0,0.0,0.0,0.0,0.0,0.0,0.0,0.0,0.0,0.0,0.0,0.0,0.0,0.0,0.0,0.0,0.0,0.0,0.0,0.0,0.0,0.0,0.0,0.0,0.0,0.0,0.0,0.0,0.0,0.0,0.0,0.0,0.0,0.0,0.0,0.0,0.0,0.0,0.0,0.0,0.0,0.0,0.0,0.0,0.0,0.0,0.0,0.0,0.0,0.0,0.0,0.0,0.0,0.0,0.0,0.0,0.0,0.0,0.0,0.0,0.0,0.0,0.0,0.0,0.0,0.0,0.0,0.0,0.0,0.0,0.0,0.0,0.0,0.0,0.0,0.0,0.0,0.0,0.0,0.0,0.0,0.0,0.0,0.0,0.0,0.0,0.0,0.0,0.0,0.0,0.0,0.0,0.0,0.0,0.0,0.0,0.0,0.0,0.0,0.0,0.0,0.0,0.0,0.0,0.0,0.0,0.0,0.0,0.0,0.0,0.0,0.0,0.0,0.0,0.0,0.0,0.0,0.0,0.0,0.0,0.0,0.0,0.0,0.0,0.0,0.0,0.0,0.0,0.0,0.0,0.0,0.0,0.0,0.0,0.0,0.0,0.0,0.0,0.0,0.0,0.0,0.0,0.0,0.0,0.0,0.0,4.1758,0.0,0.0,0.0,0.0,0.0,0.0,0.0,0.0,0.0,0.0,0.0,0.0,0.0,0.0,0.0,0.0,0.0,0.0,0.0,0.0,0.0,0.0,0.0,0.0,0.0,0.0,0.0,0.0,0.0,0.0,0.0,0.0,0.0,0.0,0.0,0.0,0.0,0.0,4.6817,4.6817,4.6817,4.6817,4.6817,4.6129,4.4898,0.0,0.0,0.0,0.0,0.0,0.0,0.0,0.0,0.0,0.0,0.0,0.0,0.0,0.0,0.0,0.0,0.0,0.0,0.0,0.0,0.0,0.0,0.0,0.0,0.0,0.0,0.0,0.0,0.0,0.0,0.0,0.0,0.0,0.0,0.0,0.0,0.0,0.0,0.0,0.0,0.0,0.0,0.0,0.0,0.0,0.0,0.0,0.0,0.0,0.0,0.0,0.0,0.0,0.0,0.0,0.0,0.0,0.0,0.0,0.0,0.0,0.0,0.0,0.0,0.0,0.0,0.0,0.0,0.0,0.0,0.0,4.2383,0.0,0.0,0.0,0.0,0.0,0.0,0.0,0.0,0.0,0.0,0.0,0.0,0.0,0.0,0.0,0.0,0.0,0.0,0.0,0.0,0.0,0.0,0.0,4.5594,4.5594,4.5594,4.5594,4.5667,0.0,0.0,0.0,0.0,0.0,0.0,4.7081,4.712,4.7428,4.8082,4.8082,4.8082,4.8082,4.8082,4.7355,4.6013,4.5898,0.0,0.0,0.0,0.0,0.0,0.0,0.0,0.0,0.0,0.0,0.0,0.0,0.0,0.0,0.0,0.0,0.0,0.0,0.0,0.0,0.0,0.0,0.0,0.0,0.0,0.0,0.0,0.0,0.0,0.0,0.0,0.0,0.0,0.0,0.0,0.0,0.0,0.0,0.0,0.0,0.0,0.0,0.0,0.0,0.0,0.0,0.0,0.0,0.0,0.0,0.0,0.0,0.0,0.0,0.0,0.0,0.0,0.0,0.0,0.0,0.0,0.0,0.0,4.6335,4.6346,4.6346,4.6346,4.6346,4.628,4.5078,4.4368,4.4094,0.0,0.0,0.0,0.0,0.0,0.0,0.0,0.0,0.0,0.0,0.0,0.0,0.0,0.0,0.0,0.0,0.0,0.0,0.0,0.0,4.5594,4.5594,4.5594,4.5594,4.5594,4.5594,4.5936,4.6697,0.0,0.0,0.0,0.0,4.7812,4.7928,4.7928,4.8005,4.8082,4.8082,4.8082,4.8082,4.8082,4.7966,4.774,4.7043,4.6317,4.5594,0.0,0.0,0.0,0.0,0.0,0.0,0.0,0.0,0.0,0.0,0.0,0.0,0.0,0.0,0.0,0.0,0.0,0.0,0.0,0.0,0.0,0.0,0.0,0.0,0.0,0.0,0.0,0.0,0.0,0.0,0.0,0.0,0.0,0.0,0.0,0.0,0.0,0.0,0.0,0.0,0.0,4.5321,4.5293,0.0,0.0,0.0,0.0,0.0,0.0,0.0,0.0,0.0,0.0,0.0,0.0,0.0,4.7641,4.7776,4.7914,4.8038,4.8126,4.8142,4.8149,4.8149,4.8149,4.8149,4.8152,4.7951,0.0,4.5613,4.5613,0.0,0.0,0.0,0.0,0.0,0.0,0.0,0.0,0.0,0.0,0.0,0.0,0.0,0.0,0.0,0.0,0.0,0.0,0.0,0.0,0.0,4.5594,4.5782,4.6278,4.6317,4.6663,4.7505,4.7582,0.0,0.0,4.8082,4.8317,4.8817,4.8817,4.9086,4.9548,4.9548,4.9548,4.9548,4.9548,4.9317,4.8817,4.8471,4.7817,4.7009,4.7009,0.0,0.0,0.0,0.0,0.0,0.0,0.0,0.0,0.0,0.0,0.0,0.0,0.0,0.0,0.0,0.0,0.0,0.0,0.0,0.0,0.0,0.0,0.0,0.0,0.0,0.0,0.0,0.0,0.0,0.0,0.0,0.0,0.0,0.0,0.0,0.0,0.0,0.0,0.0,4.7073,4.7019,4.7101,4.705,4.7163,0.0,0.0,0.0,0.0,0.0,0.0,0.0,0.0,0.0,4.9553,5.0005,5.0245,5.0302,5.0803,5.1082,5.113,5.113,5.113,5.113,5.113,5.113,5.113,5.113,5.0693,4.9885,4.8072,4.7364,4.7364,0.0,0.0,0.0,0.0,4.6557,4.6287,0.0,0.0,0.0,0.0,0.0,0.0,0.0,0.0,0.0,0.0,0.0,0.0,4.5898,4.5936,4.6278,4.712,4.7197,4.7543,4.8394,4.8432,4.8548,4.8779,4.8779,4.9086,4.9707,4.9745,5.0053,5.0707,5.0707,5.0707,5.0707,5.0707,5.0361,4.9745,4.9745,4.9125,4.8082,4.8082,4.8082,4.8082,0.0,0.0,0.0,0.0,0.0,0.0,0.0,0.0,0.0,0.0,0.0,0.0,0.0,0.0,0.0,0.0,0.0,0.0,0.0,0.0,0.0,0.0,0.0,0.0,0.0,0.0,0.0,0.0,0.0,0.0,0.0,0.0,0.0,0.0,0.0,0.0,0.0,4.815,4.8145,4.8226,4.8146,4.8274,0.0,0.0,0.0,0.0,0.0,0.0,5.0356,5.0356,5.0664,5.1323,5.1928,5.2236,5.2236,5.289,5.3197,5.3197,5.3197,5.3197,5.3197,5.3197,5.3197,5.3197,5.3197,5.3197,5.3036,5.0684,4.9708,4.9708,4.9708,4.9553,4.932,4.9129,4.8938,4.8705,0.0,0.0,0.0,0.0,0.0,0.0,0.0,0.0,0.0,0.0,0.0,4.5936,4.6735,4.6812,4.7158,4.7966,4.8043,4.8394,4.9279,4.9317,4.9707,5.0515,5.0553,5.0592,5.063,5.063,5.0668,5.0707,5.0707,5.0707,5.0707,5.0707,5.0668,5.063,5.063,4.9707,4.8082,4.8082,4.8082,4.8082,4.8082,0.0,0.0,0.0,0.0,0.0,0.0,0.0,0.0,0.0,0.0,0.0,0.0,0.0,0.0,0.0,0.0,0.0,0.0,0.0,0.0,0.0,0.0,0.0,0.0,0.0,0.0,0.0,0.0,0.0,0.0,0.0,0.0,0.0,0.0,0.0,0.0,0.0,0.0,4.81,4.8091,0.0,0.0,0.0,0.0,5.2813,5.2928,5.2967,5.3005,5.3005,5.3044,5.3082,5.3121,5.3121,5.3121,5.3159,5.3197,5.3197,5.3197,5.3197,5.3197,5.3197,5.3197,5.3197,5.3197,5.3197,5.3203,5.3031,5.2964,5.2964,5.2964,5.2463,5.1655,5.0856,5.0086,4.9239,0.0,0.0,0.0,0.0,0.0,0.0,0.0,0.0,4.5594,4.5594,4.609,4.6547,4.6889,4.7351,4.8005,4.8856,4.8933,4.9317,5.0168,5.0245,5.0361,5.0707,5.0707,5.0707,5.0707,5.0707,5.0938,5.1467,5.1467,5.1779,5.2318,5.2318,5.2318,5.2318,5.2318,5.1972,5.1313,5.024,4.9784,4.9784,4.9784,4.9784,0.0,0.0,0.0,0.0,0.0,0.0,0.0,0.0,0.0,0.0,0.0,0.0,0.0,0.0,0.0,0.0,0.0,0.0,0.0,0.0,0.0,0.0,0.0,0.0,0.0,0.0,0.0,0.0,0.0,0.0,0.0,0.0,0.0,0.0,0.0,0.0,0.0,5.0543,5.1043,0.0,5.2241,5.2318,5.2549,5.3159,5.3197,5.3428,5.401,5.4049,5.428,5.478,5.4818,5.5088,5.5631,5.5631,5.5934,5.6467,5.6467,5.6467,5.6467,5.5895,5.5631,5.5593,5.5049,5.4818,5.4818,5.4818,5.4164,5.3197,5.3197,5.3005,5.2697,5.2395,5.2125,5.1818,0.0,0.0,0.0,0.0,0.0,0.0,0.0,4.5594,4.5706,4.6013,4.6547,4.712,4.7697,4.824,4.8894,4.9745,4.9822,5.0091,5.0668,5.0707,5.0822,5.1087,5.1087,5.1087,5.1087,5.1087,5.151,5.2351,5.2351,5.262,5.3197,5.3197,5.3197,5.3197,5.3197,5.3197,5.3121,5.201,5.1361,5.1087,5.0822,5.0707,5.0707,0.0,0.0,0.0,0.0,0.0,0.0,0.0,0.0,0.0,0.0,0.0,0.0,0.0,0.0,0.0,0.0,0.0,0.0,0.0,0.0,0.0,0.0,0.0,0.0,0.0,0.0,0.0,0.0,0.0,0.0,0.0,0.0,0.0,0.0,0.0,5.2351,5.2351,5.2851,5.3313,5.3626,5.3626,5.3857,5.4434,5.4472,5.4857,5.5742,5.578,5.6011,5.6549,5.6588,5.6857,5.744,5.744,5.7742,5.8313,5.8313,5.8313,5.8275,5.7703,5.744,5.7401,5.6819,5.6588,5.6588,5.6588,5.5934,5.4851,5.428,5.4049,5.401,5.3741,5.3626,5.3587,0.0,0.0,0.0,0.0,0.0,0.0,4.5594,4.5633,4.5936,4.6774,4.6966,4.7582,4.9202,4.9433,4.9784,5.063,5.0707,5.0707,5.0697,5.0702,5.1087,5.1923,5.1923,5.1923,5.1923,5.1923,5.239,5.3236,5.3236,5.3236,5.3274,5.3274,5.3274,5.3274,5.3274,5.3274,5.3274,5.3236,5.2736,5.1928,5.1087,5.0745,5.0745,0.0,0.0,0.0,0.0,0.0,0.0,0.0,0.0,0.0,0.0,0.0,0.0,0.0,0.0,0.0,0.0,0.0,0.0,0.0,0.0,0.0,0.0,0.0,0.0,0.0,0.0,0.0,0.0,0.0,0.0,0.0,0.0,0.0,5.3197,5.3236,5.3236,5.3236,5.3274,5.3664,5.4511,5.4587,5.5285,5.6901,5.7055,5.7401,5.8236,5.8313,5.8313,5.8313,5.8313,5.8352,5.8396,5.839,5.8429,5.8467,5.8467,5.8467,5.8467,5.839,5.8396,5.8396,5.8313,5.8313,5.8313,5.8313,5.8313,5.8121,5.6434,5.5747,5.567,5.4857,5.4549,5.4434,0.0,0.0,0.0,0.0,0.0,0.0,4.5594,4.6124,4.662,4.6889,4.7971,4.8894,4.9356,4.9976,5.0438,5.0668,5.0707,5.0589,5.0296,5.109,5.1967,5.2813,5.2236,5.2197,5.2813,5.2851,5.3274,5.4126,5.4126,5.4434,5.5011,5.5011,5.5011,5.5011,5.5011,5.5011,5.4972,5.4395,5.401,5.3703,5.2856,5.2125,5.1582,0.0,0.0,0.0,0.0,0.0,0.0,0.0,0.0,0.0,0.0,0.0,0.0,0.0,0.0,0.0,0.0,0.0,0.0,0.0,0.0,0.0,0.0,0.0,0.0,0.0,0.0,0.0,0.0,0.0,0.0,0.0,0.0,5.4587,5.3351,5.3741,5.4126,5.4126,5.5208,5.6055,5.6285,5.6896,5.7434,5.7896,5.7934,5.805,5.8275,5.8313,5.8313,5.8313,5.8858,5.9473,6.0127,6.0748,6.1358,6.1929,6.1929,6.1929,6.1891,6.0666,6.0127,6.005,5.8819,5.8313,5.8313,5.8313,5.8313,5.8236,5.778,5.7203,5.6632,5.6401,5.5901,5.5324,0.0,0.0,0.0,0.0,0.0,0.0,4.609,4.6581,4.7158,4.7851,4.8817,4.9553,4.9899,5.0399,5.0707,5.0707,5.0568,5.0495,5.0613,5.1451,5.2173,5.2649,5.2362,5.2664,5.3736,5.3741,5.4164,5.5011,5.5011,5.5247,5.5708,5.5708,5.5708,5.5708,5.5708,5.5708,5.567,5.5208,5.5011,5.4972,5.4434,5.3505,5.2428,5.2428,5.2159,5.1746,5.1746,5.1746,5.1746,5.1746,0.0,0.0,0.0,0.0,0.0,0.0,0.0,0.0,0.0,0.0,0.0,0.0,0.0,0.0,0.0,0.0,0.0,0.0,0.0,0.0,0.0,0.0,0.0,0.0,5.6016,5.5901,5.4934,5.5247,5.5555,5.5555,5.6747,5.755,5.755,5.8011,5.8583,5.9281,5.9358,5.9665,6.0352,6.039,6.039,6.039,6.0852,6.1358,6.1858,6.2358,6.2858,6.3314,6.3314,6.3314,6.3275,6.2281,6.1858,0.0,6.0819,6.039,6.039,6.039,6.0204,0.0,0.0,0.0,0.0,0.0,5.7203,5.678,0.0,0.0,0.0,0.0,0.0,0.0,4.6774,4.6939,4.7549,4.9197,4.9447,4.9774,5.0547,5.0654,5.0644,5.0584,5.0296,5.0436,5.118,5.1575,5.1878,5.2039,5.2509,5.3306,5.4485,5.4523,5.4908,5.5571,5.5571,5.5588,5.5621,5.5621,5.5676,5.5708,5.5708,5.5708,5.5708,5.5708,5.5708,5.5708,5.5708,5.4741,5.3351,5.3351,5.3274,5.3197,5.3197,5.3197,5.3197,5.3197,0.0,0.0,0.0,0.0,0.0,0.0,0.0,0.0,0.0,0.0,0.0,0.0,0.0,0.0,0.0,0.0,0.0,0.0,0.0,0.0,0.0,0.0,0.0,0.0,5.6593,5.7132,5.7132,5.7324,5.7363,5.717,5.8011,5.8583,5.8583,5.8736,5.9473,6.0973,6.1089,6.1743,6.3237,0.0,0.0,0.0,0.0,6.3468,6.3468,6.3545,6.3583,6.3583,6.3583,6.3583,6.3583,6.3506,6.3468,6.3429,6.3352,6.3314,6.3314,6.3314,6.2897,6.1979,5.9435,5.8434,5.8429,5.8313,5.8313,5.8313,0.0,0.0,0.0,0.0,0.0,0.0,4.6774,4.7195,4.7859,4.9212,4.974,5.001,5.0206,5.0499,5.0451,4.9806,4.9955,5.0342,5.0863,5.063,5.1214,5.2882,5.3348,5.3857,5.4496,5.4832,5.4914,5.4723,5.4723,5.4883,5.5212,5.5212,5.5393,5.5708,5.5708,5.5708,5.5708,5.5708,5.5708,5.5708,5.5708,5.5126,5.4241,5.4241,5.3818,5.3197,5.3197,5.3197,5.3197,5.3197,5.3664,5.4241,5.4241,5.4703,0.0,0.0,0.0,0.0,0.0,0.0,0.0,0.0,0.0,0.0,0.0,0.0,0.0,0.0,0.0,0.0,0.0,0.0,0.0,5.6747,5.7473,5.805,5.805,5.9204,5.9556,5.8204,5.9396,6.0319,6.0319,6.1544,6.2468,6.2775,6.2814,6.2968,6.3275,6.3314,0.0,6.3314,6.3968,6.4359,6.4359,6.5051,6.5397,6.5397,0.0,0.0,6.5359,6.4666,6.4359,6.4314,6.3622,6.3314,6.3314,6.3314,6.3198,6.2814,6.0281,5.9281,5.9204,5.8544,5.8313,5.8313,0.0,0.0,0.0,0.0,0.0,0.0,4.7312,4.7493,4.8099,4.9827,4.9904,4.9885,5.0093,5.0111,4.9936,4.9532,4.9866,5.0018,4.9872,5.0235,5.1106,5.2544,5.2983,5.3616,5.4484,5.4693,5.4693,5.4484,5.4484,5.4594,5.479,5.479,5.4897,5.5121,5.5294,5.5405,5.5411,5.5605,5.5708,5.5708,5.5708,5.5478,5.5093,5.5093,5.4818,5.4434,5.4434,5.4434,5.4434,5.4434,5.4741,5.5093,5.5093,5.5401,5.5708,0.0,0.0,0.0,0.0,0.0,0.0,0.0,0.0,0.0,0.0,0.0,0.0,0.0,0.0,5.6478,5.6934,0.0,5.7665,5.7665,5.8704,5.955,5.955,6.0973,6.1435,5.9742,6.105,6.205,6.205,6.2814,6.3468,6.3929,6.3929,6.4122,6.4589,6.4589,6.4782,6.5205,6.5628,6.6051,6.6506,6.6936,6.7167,6.7167,6.7167,6.6936,6.6481,6.6051,6.5628,6.5243,6.4782,6.4589,6.4589,6.4122,6.3929,6.3775,6.2083,6.1166,6.0748,6.0364,5.9935,5.955,0.0,0.0,0.0,0.0,0.0,0.0,0.0,4.7603,4.8128,5.0054,4.9777,4.9504,4.9846,4.9638,4.9467,4.9393,4.9621,4.9476,4.8824,5.0034,5.11,5.1727,5.2436,5.3278,5.4221,5.4313,5.4313,5.4267,5.4267,5.4272,5.4355,5.4355,5.4452,5.4625,5.4978,5.5147,5.5231,5.5566,5.5708,5.5708,5.5708,5.5708,5.5708,5.5708,5.5708,5.5708,5.5708,5.5708,5.5708,5.5708,5.5708,5.5708,5.5708,5.5708,5.5708,5.5708,5.5708,0.0,0.0,0.0,0.0,0.0,0.0,0.0,0.0,5.5939,5.6209,5.7055,5.7247,5.7478,5.8165,5.8588,5.8781,5.8781,6.0204,6.1281,6.1281,6.2589,6.3045,6.1704,6.2743,6.3545,6.3545,6.3698,6.4166,6.5013,6.5089,6.5474,6.632,6.6397,6.6667,6.7327,6.7359,6.7705,6.8391,6.8391,6.8391,6.8391,6.8391,6.8045,6.7359,6.7359,6.7013,6.6359,6.6205,6.6058,6.5865,6.5128,6.4859,6.4782,6.4083,6.332,6.2557,6.2403,6.1903,6.1281,0.0,0.0,0.0,0.0,0.0,0.0,0.0,0.0,4.7546,4.8853,4.9008,4.8978,4.9027,4.9318,4.9356,4.8986,4.8669,4.8456,4.8382,4.9877,5.0852,5.0934,5.2697,5.357,5.3339,5.372,5.3692,5.3365,5.3365,5.3534,5.3869,5.3869,5.4276,5.5015,5.5094,5.5319,5.5621,5.5692,5.5708,5.5708,5.5708,5.5708,5.5708,5.5708,5.5708,5.5708,5.5708,5.5708,5.5708,5.5708,5.5708,5.5708,5.5708,5.5708,5.5708,5.5708,5.5708,5.5708,5.5708,5.5708,5.5708,5.5708,5.5708,5.5901,0.0,5.6863,5.7093,5.7973,5.8159,5.8165,5.8275,5.9511,6.0512,6.0512,6.1935,6.3006,6.3006,6.3852,6.4397,6.4205,6.4359,6.4436,6.4436,6.5166,6.5942,6.675,6.6827,6.7205,6.8084,6.8122,6.816,6.8237,6.8237,6.8314,6.8391,6.8391,6.8391,6.8391,6.8391,6.8353,6.8237,6.8237,6.8199,6.8084,6.7282,6.6558,6.5897,6.5788,6.5743,6.5743,6.5628,6.5089,6.4243,6.3429,6.3083,6.3006,0.0,0.0,0.0,0.0,0.0,0.0,0.0,0.0,4.7442,4.8641,4.8654,4.8649,4.8853,4.8847,4.8718,4.8559,4.8393,4.8296,4.8296,4.9444,5.0288,5.0765,5.2052,5.291,5.3177,5.3369,5.3369,5.3214,5.3214,5.342,5.3786,5.3786,5.4153,5.4753,5.5012,5.5192,5.5375,5.5594,5.5708,5.5708,5.5708,5.5708,5.5708,5.5708,5.5708,5.5708,5.5708,5.5708,0.0,5.5708,5.5708,5.5708,5.5708,5.5708,5.5708,5.5708,5.5708,5.5708,5.5708,5.6434,5.7088,5.6593,5.6824,5.7319,5.7665,5.7742,5.7973,5.8819,5.9006,5.9319,6.0319,6.1095,6.171,0.0,6.3281,6.4045,6.4045,6.482,6.5513,6.6013,6.6051,6.6051,6.6051,6.6859,6.7475,6.7821,6.7859,6.8013,6.8391,6.8391,6.8622,6.9129,6.9161,6.9398,6.986,6.986,6.986,6.986,6.986,6.9629,6.9161,6.9161,6.8891,6.8391,6.8013,6.7667,6.7321,6.6827,6.6596,6.6558,6.6096,6.5667,6.5243,6.4397,6.3737,6.3314,0.0,0.0,0.0,0.0,0.0,0.0,0.0,0.0,0.0,0.0,4.8116,4.8144,4.8692,4.8486,4.8296,4.8296,4.8296,4.8363,4.8467,4.9164,4.999,5.089,5.1618,5.238,5.3177,5.3214,5.3214,5.3214,5.3214,5.3349,5.3616,5.3616,5.3888,5.4313,5.4595,5.4883,5.5127,5.5411,5.5594,5.5708,5.5708,5.5708,5.5708,5.5708,5.5708,5.5708,5.5708,5.5708,5.5708,5.5708,5.5708,5.5708,5.5708,5.5708,5.5747,5.5978,5.6247,5.6434,5.6434,5.7357,5.8159,5.7517,5.7819,5.8352,5.8583,5.8621,5.8934,6.0012,6.0204,6.0666,6.2172,6.2633,6.2974,6.3545,6.4397,6.5051,6.5243,6.582,6.6558,6.7359,6.7667,6.7821,6.7821,6.816,6.8507,6.8737,6.8776,6.8853,6.9084,6.9084,6.9398,7.0014,7.0014,7.0321,7.0898,7.0898,7.0898,7.0898,7.0898,7.0591,7.0014,7.0014,6.959,6.8776,6.8776,6.8622,6.8353,6.7705,6.7475,6.7359,6.6558,6.6244,6.6134,6.5282,6.4551,6.4006,0.0,0.0,0.0,0.0,0.0,0.0,0.0,0.0,0.0,0.0,0.0,4.7452,4.8242,4.8306,4.8296,4.8296,4.8296,4.8477,4.8873,4.9326,5.0118,5.1228,5.1723,5.238,5.3177,5.3214,5.3214,5.3214,5.3214,5.3225,5.3235,5.3235,5.3424,5.3805,5.3823,5.4301,5.5107,5.5121,5.5356,5.5708,5.5708,5.5708,5.5708,5.5708,5.5708,5.5708,5.5708,5.5708,5.5708,5.5708,5.5708,5.5708,5.5708,5.5708,5.5862,5.6709,5.7555,5.8204,5.8204,5.8275,5.8275,5.828,5.8275,5.8511,5.9281,5.9473,5.9935,6.1672,6.2018,6.2287,6.3121,6.3929,6.4551,6.4551,6.5282,6.6134,6.6904,6.7058,6.7398,6.8276,6.9122,6.9629,0.0,6.8891,6.8737,6.959,6.9667,7.0014,7.0783,7.0821,7.0821,7.086,7.086,7.0898,7.0898,7.0898,7.0898,7.0898,7.0898,7.0898,7.086,7.086,7.0437,6.9667,6.9667,6.9161,6.8391,6.8353,6.8353,6.8276,6.7398,6.7058,6.6981,6.6173,6.5827,6.582,0.0,0.0,0.0,0.0,0.0,0.0,0.0,0.0,0.0,0.0,0.0,0.0,0.0,0.0,0.0,0.0,4.8296,4.8373,4.8467,4.8659,4.926,5.0465,5.0958,5.1698,5.2723,5.306,5.3214,5.3214,5.3214,5.3511,5.4068,5.4068,5.4428,5.5069,5.5069,5.5237,5.552,5.552,5.5577,5.5708,5.5708,5.5708,5.5708,5.5708,5.5549,5.535,0.0,5.5708,5.5708,5.5708,5.5708,5.5708,5.5708,5.5708,5.5862,5.6747,5.8017,5.8973,5.8434,5.9127,5.9819,5.9242,5.9511,6.0165,6.1018,6.1248,6.1556,6.2666,6.2897,6.3166,6.4012,6.4397,6.4782,6.5359,6.5705,6.6173,6.6981,6.7096,6.7628,6.909,6.9513,0.0,0.0,0.0,0.0,7.0475,7.0514,7.0591,7.0898,7.0898,7.0898,7.0898,7.0898,7.0898,7.0898,7.0898,7.0898,7.0898,7.0898,7.0898,7.0898,7.0898,7.0744,7.0514,7.0514,7.0321,7.0014,6.9475,6.9244,6.9161,6.8321,6.7975,6.7936,6.766,6.7205,6.6635,0.0,0.0,0.0,0.0,0.0,0.0,0.0,0.0,0.0,0.0,0.0,0.0,0.0,0.0,0.0,0.0,0.0,4.8373,4.8486,4.8364,4.8855,5.0055,5.0257,5.0998,5.2306,5.2618,5.292,5.3214,5.3214,5.3501,5.4033,5.4033,5.4313,5.4795,5.4795,5.4981,5.5256,5.5256,5.5369,5.5508,5.5508,5.5508,5.5508,5.5508,5.5417,0.0,5.5441,5.5577,5.5708,5.5708,5.5599,5.5526,5.5638,5.6126,5.678,5.7632,5.8896,5.9858,5.9319,5.9973,6.0748,6.0473,6.0864,6.1479,6.2326,6.2512,6.2743,6.3589,6.3775,6.4045,6.4897,6.5051,6.5359,6.6211,6.6327,6.675,6.7859,6.8013,6.8552,6.9975,7.0129,7.0321,0.0,0.0,0.0,7.0898,7.0898,7.0898,7.0898,7.0898,7.0898,7.0898,7.0898,7.0898,7.0898,7.0898,7.0898,7.0898,7.0898,7.0898,7.0898,7.0898,7.0898,7.0898,7.0898,7.0898,7.086,7.036,7.0129,7.0052,6.9206,6.8853,6.8814,6.8507,6.8045,6.7436,0.0,0.0,0.0,0.0,0.0,0.0,0.0,0.0,0.0,0.0,0.0,0.0,0.0,0.0,0.0,0.0,0.0,0.0,4.8856,4.8495,4.8818,4.999,4.9759,5.0318,5.1871,5.1961,5.238,5.3141,5.3177,5.3225,5.322,5.322,5.323,5.3261,5.3261,5.372,5.4484,5.4484,5.4716,5.508,5.508,5.508,5.5087,5.5101,5.5306,5.5594,5.5244,5.5363,5.5627,5.5643,5.5429,5.5199,5.5582,5.6896,5.8467,5.9181,6.0065,6.0763,6.0763,6.0802,6.1033,6.1903,6.2133,6.2364,6.316,6.3352,6.3622,6.4474,6.4666,6.4936,6.5743,6.5904,6.6134,6.6904,6.7058,6.7673,6.9398,6.9667,7.0014,0.0,0.0,0.0,0.0,0.0,0.0,7.0898,0.0,7.0898,7.0898,7.0898,7.0898,7.0898,7.0898,7.0898,7.0898,7.0898,7.0898,7.0898,7.0898,7.0898,7.0898,7.0898,7.0898,7.0898,7.0898,7.0898,7.0898,7.0898,7.0898,7.0821,7.0052,6.9744,6.9667,6.8814,6.8507,6.8353,0.0,0.0,0.0,0.0,0.0,0.0,0.0,0.0,0.0,0.0,0.0,0.0,0.0,0.0,0.0,0.0,0.0,0.0,4.8477,4.8373,4.856,4.9188,4.9464,4.9922,5.0564,5.1517,5.2097,5.2307,5.292,5.3349,5.3672,5.3672,5.3833,5.4182,5.4182,5.4272,5.4484,5.4484,5.4547,5.4648,5.4648,5.4648,5.4678,5.5005,5.496,5.4862,5.5375,5.5224,5.484,5.5153,5.5393,5.5571,5.5682,5.6896,5.8268,5.8132,5.9136,6.029,6.029,6.0756,6.136,6.1964,6.2557,6.3205,6.4089,6.4282,6.4512,6.5397,6.5551,6.5628,6.5865,6.5904,6.5981,6.6167,6.6712,0.0,6.8584,6.9276,0.0,7.0783,7.0898,7.0898,7.0898,7.0898,0.0,0.0,7.0898,7.0898,7.0898,7.0898,7.0898,7.0898,7.0898,7.0898,7.0898,7.0898,7.0898,7.0898,7.0898,7.0898,7.0898,7.0898,7.0898,7.0898,7.0898,7.0898,7.0898,7.0898,7.0898,7.0898,7.0667,7.0591,7.0552,7.036,6.9898,6.936,0.0,0.0,0.0,0.0,0.0,0.0,0.0,0.0,0.0,0.0,0.0,0.0,0.0,0.0,0.0,0.0,0.0,0.0,0.0,4.8393,4.8393,4.864,4.8899,4.9285,4.9852,5.0583,5.1106,5.1463,5.227,5.2792,5.3018,5.3378,5.3682,5.3915,5.3915,5.4033,5.4196,5.4196,5.4196,0.0,0.0,5.4196,5.4221,5.443,5.464,5.479,5.5087,5.5019,5.4819,5.5224,5.5493,5.5725,5.5936,5.7063,5.8295,5.8172,5.9066,6.0067,5.9855,6.0593,6.1549,6.2173,6.3098,6.4089,6.4974,6.5166,6.532,6.5788,6.5904,6.5904,6.5904,6.5904,6.6019,6.6365,6.7128,6.7975,6.8853,6.9706,7.0398,7.086,7.0898,0.0,7.0898,7.0898,7.0898,0.0,7.0898,7.0898,7.0898,7.0898,7.1091,7.1475,7.1475,7.1475,7.1475,7.1475,7.1283,7.0898,7.0898,7.0898,7.0898,7.0898,7.0898,7.0898,0.0,7.0898,7.0898,7.0898,7.0898,7.0898,7.0898,7.0898,7.0898,7.0898,7.0591,7.0244,0.0,0.0,0.0,0.0,0.0,0.0,0.0,0.0,0.0,0.0,4.6812,0.0,0.0,0.0,0.0,0.0,0.0,0.0,0.0,0.0,4.8364,4.8364,4.8364,4.8742,4.9487,4.9597,5.0,5.0655,5.1473,5.184,5.1877,5.2564,5.2957,5.3031,5.3031,5.3299,5.373,5.3796,5.3786,5.373,5.3796,5.3786,5.373,0.0,5.4259,5.489,5.4594,5.4753,5.5153,5.5481,5.5676,5.5769,5.611,5.7193,5.8321,5.8505,5.9222,5.9916,5.9501,6.037,6.1553,6.2384,6.3646,6.4879,6.5699,6.5904,6.5904,6.5904,6.5904,6.5904,6.5904,6.5904,6.6134,6.6827,6.7744,6.866,6.9436,7.0321,7.0898,7.0898,7.0898,7.0898,7.0898,7.0898,7.0937,7.1052,7.1052,7.1052,7.1052,7.1052,7.1475,7.2322,7.2367,7.2367,7.2367,7.2367,7.1937,7.1052,7.1052,7.1014,7.0898,7.0898,7.0898,7.0898,0.0,0.0,7.0898,7.0898,7.0898,7.0898,7.0898,7.0898,7.0898,7.0898,7.0898,7.0898,0.0,0.0,0.0,0.0,0.0,0.0,0.0,0.0,0.0,0.0,4.6432,4.6986,0.0,0.0,0.0,0.0,0.0,0.0,0.0,0.0,0.0,4.8805,4.8805,4.8879,4.9028,4.9679,4.9963,4.9821,5.0618,5.1022,5.1022,5.1169,5.1573,5.2197,5.2197,5.2616,5.3318,5.3644,5.3614,5.3318,5.3654,5.3604,5.3328,5.3663,0.0,0.0,5.4379,5.4753,5.5121,5.518,5.5423,5.5654,5.5416,5.6689,5.8165,5.7453,5.8329,5.9492,5.9415,6.0294,6.1459,6.2351,6.3825,6.5182,6.5756,6.5904,6.5904,6.5904,6.5904,6.5904,6.5904,6.5904,6.5942,6.6096,6.7398,6.8468,6.8584,6.9937,7.0898,7.0898,7.0898,7.0898,7.0898,7.0898,0.0,0.0,0.0,7.1982,7.1982,7.1982,7.236,7.3238,7.3276,7.3276,7.3276,7.3276,7.2822,7.1982,7.1982,7.1591,7.0898,7.0898,7.0898,7.0898,7.0898,0.0,7.0898,7.0898,7.0898,7.0898,7.0898,7.0898,7.0898,7.0898,7.0898,7.0898,0.0,0.0,0.0,0.0,0.0,0.0,0.0,4.5594,4.5594,4.5594,4.5975,4.6394,4.6851,4.7235,4.7722,0.0,0.0,0.0,0.0,0.0,0.0,4.8895,4.91,4.9108,4.8886,4.9279,4.9511,4.9528,0.0,5.0242,5.0435,5.0701,5.1022,5.1389,5.1803,5.2197,5.2621,5.3246,5.339,5.323,5.3653,5.3673,5.3516,5.373,0.0,0.0,5.4579,5.4919,5.514,5.5356,5.5549,5.5682,5.5458,5.658,5.7838,5.7399,5.8273,5.9337,5.9084,6.0275,6.1618,6.1816,6.3305,6.4879,6.5381,6.5468,6.5563,6.5827,6.5904,6.5904,6.5904,6.5904,6.5904,6.5904,6.7321,6.8391,6.8391,6.986,7.0898,7.0898,7.0898,7.0898,7.0898,7.0898,0.0,0.0,0.0,7.2399,7.286,7.3283,7.3707,7.4123,7.4546,7.4591,7.4123,7.4123,7.3699,7.286,7.2399,7.1982,7.1552,7.1091,7.0898,7.0898,7.0898,0.0,7.0898,7.0898,7.0898,7.0898,7.0898,7.0898,7.0898,7.0898,7.0898,7.0898,0.0,0.0,0.0,0.0,0.0,0.0,0.0,4.5594,4.5594,4.5594,4.5594,4.5859,4.6547,4.662,4.6966,0.0,0.0,0.0,0.0,0.0,0.0,0.0,0.0,0.0,4.9171,0.0,0.0,4.9496,4.9543,0.0,0.0,0.0,0.0,0.0,5.1216,5.1693,5.2071,5.2762,5.3109,0.0,0.0,5.3878,0.0,0.0,0.0,0.0,0.0,5.5047,5.514,5.5375,5.5481,5.5577,5.5577,5.639,5.736,5.7442,5.8192,5.8959,5.8895,6.0066,6.1268,6.1025,6.2466,6.4124,6.4728,6.4992,6.5184,6.5557,6.5628,6.5628,6.5628,6.5628,6.5667,6.5859,6.7167,6.8199,6.8353,6.9699,7.0706,7.0898,7.0898,0.0,7.0898,7.1052,0.0,0.0,0.0,0.0,7.3738,7.4546,7.4976,7.4976,7.563,7.5668,7.4976,7.4976,7.4584,7.3738,7.3053,7.2559,7.2175,7.1475,7.1091,7.0898,7.0898,0.0,0.0,7.0898,7.0898,7.0898,7.0898,7.0898,7.0898,7.0898,7.0898,7.0898,0.0,0.0,0.0,0.0,0.0,0.0,0.0,4.5594,4.5594,4.5594,4.5594,4.5633,4.5706,4.5706,4.609,0.0,0.0,0.0,0.0,0.0,0.0,0.0,0.0,0.0,0.0,0.0,0.0,4.9496,4.9498,0.0,0.0,0.0,0.0,0.0,0.0,5.0629,5.2018,5.2474,0.0,0.0,0.0,0.0,0.0,0.0,0.0,0.0,0.0,5.4782,5.5067,5.4716,5.484,5.516,5.516,5.5796,5.6584,5.6936,5.7345,5.792,5.9033,5.9387,5.9533,5.9992,6.1367,6.2823,6.3805,6.4581,6.5031,6.4789,6.4705,6.4705,6.4705,6.4705,6.4974,6.5782,6.6635,6.7513,6.8276,6.9199,7.009,7.0821,0.0,0.0,7.0898,7.1629,0.0,0.0,0.0,0.0,7.4623,7.5399,7.5861,7.5861,7.5976,7.5976,7.5861,7.5861,7.5438,7.4584,7.4507,7.3668,7.2213,7.2136,7.1629,7.0898,7.0898,0.0,0.0,7.0898,7.0898,7.0898,7.0898,7.0898,7.0898,7.0898,7.0898,7.0898,0.0,0.0,0.0,0.0,0.0,0.0,4.5594,4.5594,4.5594,4.5594,4.5594,4.5594,4.5594,4.5594,4.5744,4.609,0.0,0.0,0.0,0.0,0.0,0.0,0.0,0.0,0.0,0.0,5.0012,4.9872,4.961,0.0,0.0,0.0,0.0,0.0,0.0,0.0,5.0907,5.1867,0.0,0.0,0.0,0.0,0.0,0.0,0.0,0.0,0.0,0.0,5.5087,5.4905,5.5134,5.5387,5.4883,5.4965,5.5609,5.7291,5.7988,5.8385,5.9191,5.9511,5.9597,5.9534,6.0362,6.14,6.2126,6.2734,6.3204,6.3356,6.3604,6.3968,6.4512,6.4589,6.4897,6.5743,6.6596,6.7398,6.8276,6.9161,7.0014,7.0783,7.0898,0.0,0.0,0.0,0.0,0.0,0.0,0.0,7.5515,7.5822,7.6015,7.6015,7.6015,7.6015,7.6015,7.6015,7.5822,7.5476,7.493,7.4361,7.3668,7.2675,7.2021,7.1629,7.1129,0.0,0.0,7.0898,7.0898,7.0898,7.0898,7.0898,7.0898,7.0898,7.0898,7.0898,0.0,0.0,0.0,0.0,0.0,4.5594,4.5594,4.5594,4.5594,4.5594,4.5594,4.5594,4.5594,4.5594,4.5594,4.5594,4.6163,0.0,0.0,0.0,0.0,0.0,0.0,0.0,0.0,0.0,5.0291,5.0291,4.9987,4.9936,0.0,0.0,0.0,0.0,0.0,0.0,0.0,0.0,0.0,0.0,0.0,0.0,0.0,0.0,0.0,0.0,0.0,0.0,0.0,0.0,0.0,5.5566,5.4745,5.476,5.5397,5.7307,5.7932,5.8179,5.8981,5.9363,5.9414,5.8943,5.9453,6.018,6.0704,6.1265,6.1815,6.2185,6.2508,6.3054,6.4032,6.4205,6.4589,6.5705,6.6365,6.7128,6.8237,6.893,6.9706,7.0783,0.0,7.0898,0.0,0.0,0.0,0.0,0.0,0.0,0.0,7.6015,7.6015,7.6015,7.6015,7.6015,7.6015,7.6015,7.6015,7.5976,7.5399,7.493,7.4661,7.3245,7.2437,7.2136,0.0,0.0,0.0,7.0898,7.0898,7.0898,7.0898,7.0898,7.0898,7.0898,7.0898,7.0898,0.0,0.0,0.0,0.0,0.0,0.0,4.5594,4.5594,4.5594,4.5594,4.5594,4.5594,4.5594,4.5594,4.5594,4.5594,4.5594,0.0,0.0,0.0,0.0,0.0,0.0,0.0,0.0,0.0,5.0707,5.0707,5.0702,5.0488,5.0111,5.0111,4.9891,4.9496,0.0,0.0,0.0,0.0,0.0,0.0,0.0,0.0,5.5703,0.0,0.0,0.0,0.0,0.0,0.0,0.0,0.0,0.0,0.0,5.5322,5.6376,5.6795,5.6626,5.6666,5.8286,5.8723,5.858,5.8119,5.8609,5.9371,5.9907,6.0628,6.1247,6.137,6.1429,6.1812,6.3066,6.3314,6.3891,6.5628,6.5904,6.6474,6.816,6.8391,6.9045,0.0,0.0,7.0898,7.0898,0.0,0.0,0.0,0.0,0.0,0.0,7.6015,7.6015,7.6015,7.6015,7.6015,7.6015,7.6015,7.6015,7.6015,7.5976,7.5515,7.4661,7.3853,7.3014,0.0,0.0,0.0,0.0,7.0898,7.0898,7.0898,7.0898,7.0898,7.0898,7.0898,7.0898,7.0898,0.0,0.0,0.0,0.0,0.0,0.0,0.0,4.5594,4.5594,4.5594,4.5594,4.5594,4.5594,4.5594,4.5594,4.5594,4.5594,0.0,0.0,0.0,0.0,0.0,0.0,0.0,0.0,5.0266,5.0579,5.0302,5.0579,5.0629,5.0504,5.0504,5.0456,5.0313,5.0018,0.0,0.0,0.0,0.0,0.0,0.0,5.4967,5.5687,0.0,0.0,0.0,0.0,0.0,0.0,0.0,0.0,0.0,0.0,0.0,0.0,5.5867,5.6781,5.7654,5.8198,5.8549,5.8673,5.8534,5.8449,5.8421,5.8589,5.9086,5.9594,5.9946,6.0304,6.0919,6.2227,6.2935,6.366,6.482,6.5513,6.6474,6.816,6.8391,6.9007,7.0706,7.0898,7.136,0.0,0.0,0.0,0.0,0.0,0.0,0.0,7.6015,7.6015,7.6015,7.6015,7.6015,7.6015,7.6015,7.6015,7.6015,7.6015,7.5861,7.5553,7.4123,0.0,0.0,0.0,0.0,0.0,7.0898,7.0898,7.0898,7.0898,7.0898,7.0898,7.0898,7.0898,7.0898,0.0,0.0,0.0,0.0,0.0,0.0,0.0,4.5594,4.5594,4.5594,4.5594,4.5594,4.5594,4.5594,4.5594,4.5594,4.5594,0.0,0.0,0.0,0.0,0.0,0.0,0.0,4.9018,4.9811,5.0243,5.033,5.0589,5.0707,5.0707,5.0707,5.0707,5.0702,5.0451,5.0224,0.0,0.0,0.0,0.0,5.4723,5.5127,5.5676,0.0,0.0,0.0,0.0,0.0,0.0,0.0,0.0,0.0,0.0,0.0,0.0,0.0,5.6287,5.7516,5.7838,5.834,5.8736,5.8701,5.8611,5.8492,5.8315,5.8503,5.8884,5.9526,5.9768,6.0402,6.2202,6.2968,6.3698,6.4897,6.5551,6.6474,6.816,6.8391,0.0,7.0706,0.0,0.0,0.0,0.0,0.0,0.0,0.0,0.0,0.0,7.6015,7.6015,7.6015,7.6015,7.6015,7.6015,7.6015,7.6015,7.6015,7.6015,7.6015,7.5938,7.4591,0.0,0.0,0.0,0.0,0.0,7.0898,7.0898,7.0898,7.0898,7.0898,7.0898,7.0898,7.0898,7.0898,0.0,0.0,0.0,0.0,0.0,0.0,0.0,4.5594,4.5594,4.5594,4.5594,4.5594,4.5594,4.5594,4.5594,4.5594,0.0,0.0,0.0,0.0,0.0,0.0,0.0,0.0,4.9279,4.9356,4.9822,5.0707,5.0707,5.0707,5.0707,5.0707,5.0707,5.0707,5.0707,5.0554,5.036,0.0,0.0,0.0,5.5107,5.5306,0.0,0.0,0.0,0.0,0.0,0.0,0.0,0.0,0.0,0.0,0.0,0.0,0.0,0.0,0.0,0.0,0.0,5.8052,5.8806,5.8718,5.9046,5.9284,5.8845,5.8706,0.0,5.987,5.9682,6.0159,6.2708,6.3225,6.3852,6.5513,6.5904,6.6551,6.816,6.8507,0.0,0.0,7.0898,0.0,0.0,0.0,0.0,0.0,0.0,0.0,0.0,7.6015,7.6015,7.6015,7.6015,7.6015,7.6015,7.6015,7.6015,7.6015,7.6015,7.6015,7.5976,7.5091,0.0,0.0,0.0,0.0,0.0,7.0898,7.0898,7.0898,7.0898,7.0898,7.0898,7.0898,7.0898,7.0898,0.0,0.0,0.0,0.0,0.0,0.0,0.0,0.0,0.0,0.0,4.5594,4.5594,4.5594,4.5594,4.5594,0.0,0.0,0.0,0.0,0.0,0.0,0.0,0.0,0.0,4.8394,4.9048,4.9822,5.0707,5.0707,5.0707,5.0707,5.0707,5.0707,5.0707,5.0707,5.1196,5.2069,5.2981,0.0,0.0,5.5107,5.516,0.0,0.0,0.0,0.0,5.4484,5.4288,0.0,0.0,0.0,0.0,0.0,0.0,0.0,0.0,5.4714,5.506,5.5519,0.0,5.8787,5.879,5.9105,5.9363,0.0,5.8971,5.8864,5.9441,5.9467,5.9908,6.1542,6.265,6.366,6.4743,6.5974,6.7205,6.8237,6.9507,0.0,7.086,7.0898,0.0,0.0,0.0,0.0,0.0,0.0,0.0,0.0,7.6015,7.6015,7.6015,7.6015,7.6015,7.6015,7.6015,7.6015,7.6015,7.6015,7.6015,7.5976,7.5091,0.0,0.0,0.0,0.0,7.0898,7.0898,7.0898,7.0898,7.0898,7.0898,7.0898,7.0898,7.0898,7.0898,0.0,0.0,0.0,0.0,0.0,0.0,0.0,0.0,0.0,0.0,0.0,4.5594,4.5594,4.5594,0.0,0.0,0.0,0.0,0.0,0.0,0.0,0.0,0.0,4.6855,4.8082,4.8548,4.9433,5.0707,5.0707,5.0707,5.0707,5.0707,5.0707,5.0707,5.1087,5.1841,5.2912,5.376,5.4609,5.5381,5.5381,0.0,0.0,0.0,0.0,0.0,5.4404,5.4196,0.0,5.4338,5.4632,5.4745,0.0,0.0,0.0,0.0,5.4322,5.4509,5.4502,5.6333,5.8248,5.8219,5.8811,5.9337,5.9112,5.8884,5.8894,5.9568,5.9543,5.9979,6.1917,6.2855,6.3737,6.4974,6.6282,6.7558,0.0,0.0,7.0898,7.0898,7.0898,0.0,0.0,0.0,0.0,0.0,0.0,0.0,0.0,7.6015,7.6015,7.6015,7.6015,7.6015,7.6015,7.6015,7.6015,7.6015,7.6015,7.6015,7.5976,7.5515,7.4623,0.0,0.0,0.0,7.0898,7.0898,7.0898,7.0898,7.0898,7.0898,7.0898,7.0898,7.0898,7.0898,0.0,0.0,0.0,0.0,0.0,0.0,0.0,0.0,0.0,0.0,0.0,0.0,0.0,0.0,0.0,0.0,0.0,0.0,0.0,0.0,0.0,0.0,4.5594,4.6398,4.8043,4.8082,4.8933,5.0707,5.0707,5.0707,5.0707,5.0707,5.0784,5.0938,5.1736,5.2582,5.3433,5.4318,5.5093,5.5708,5.5708,0.0,0.0,0.0,0.0,0.0,0.0,0.0,0.0,5.4338,5.4444,5.433,5.4004,0.0,0.0,0.0,0.0,0.0,5.3896,5.5568,5.7384,5.7417,5.8417,5.9284,5.8903,5.8736,5.8951,5.9823,5.9772,6.0315,6.2671,6.3239,6.3892,6.5512,6.6634,6.7898,6.9629,7.0475,7.0898,7.0898,0.0,0.0,0.0,0.0,0.0,0.0,0.0,0.0,0.0,7.6015,7.6015,7.6015,7.6015,7.6015,7.6015,7.6015,7.6015,7.6015,7.5917,7.5848,7.5848,7.5779,7.4866,0.0,0.0,0.0,7.0898,7.0898,7.0898,7.0898,7.0898,7.0898,7.0898,7.0898,7.0898,7.0898,0.0,0.0,0.0,0.0,0.0,0.0,0.0,0.0,0.0,0.0,0.0,0.0,0.0,0.0,0.0,0.0,0.0,0.0,0.0,0.0,0.0,4.5594,4.5594,4.6398,4.8043,4.8082,4.8933,5.0707,5.0707,5.0707,5.0707,5.0707,5.1048,5.1736,5.262,5.3472,5.4357,5.517,5.5593,5.5708,5.5708,0.0,0.0,0.0,0.0,0.0,0.0,0.0,0.0,5.4338,5.423,5.3959,5.4288,0.0,0.0,0.0,0.0,0.0,5.3805,5.5072,5.6509,5.6909,5.8197,5.9372,5.9302,5.8999,5.8855,5.9389,6.0025,6.0818,6.1923,6.3006,6.4039,6.5047,6.6894,6.8776,0.0,0.0,7.0898,0.0,0.0,0.0,0.0,0.0,0.0,0.0,0.0,0.0,0.0,7.6015,7.6015,7.6015,7.6015,7.6015,7.6015,7.6015,7.6015,7.5976,7.5471,7.5245,7.5236,7.4769,7.3877,0.0,0.0,7.2033,7.0898,7.0898,7.0898,7.0898,7.0898,7.0898,7.0898,7.0898,7.0898,7.0898,0.0,0.0,0.0,0.0,0.0,0.0,0.0,0.0,0.0,0.0,0.0,0.0,0.0,0.0,0.0,0.0,0.0,0.0,0.0,0.0,4.5821,4.6278,4.6317,4.6855,4.8082,4.8548,4.9433,5.0707,5.0707,5.0707,5.0707,5.0927,5.1228,5.1649,5.295,5.376,5.4199,5.5253,5.5577,5.5381,0.0,0.0,0.0,0.0,0.0,0.0,0.0,0.0,0.0,0.0,5.4187,5.3823,5.4048,0.0,0.0,0.0,0.0,0.0,5.3516,5.482,5.6196,5.6186,5.7424,5.8652,5.8652,5.8492,5.8461,5.8932,5.9674,6.0585,6.1721,6.2729,6.409,6.6105,6.7549,6.9007,7.0667,7.0898,0.0,0.0,0.0,0.0,0.0,0.0,0.0,0.0,0.0,0.0,0.0,0.0,7.6015,7.6015,7.6015,7.6015,7.6015,7.5686,7.5488,7.5526,7.5245,7.4961,7.468,7.4411,7.3525,7.2167,0.0,7.1351,7.0061,7.0338,7.0471,7.0494,7.0784,7.0741,7.0471,7.0471,7.0652,7.0871,0.0,0.0,0.0,0.0,0.0,0.0,0.0,0.0,0.0,0.0,0.0,0.0,0.0,0.0,0.0,0.0,0.0,0.0,0.0,4.5782,4.6201,4.6889,4.7274,4.7774,4.8394,4.9048,4.9822,5.0707,5.0609,5.0614,5.0692,5.1126,5.1497,5.1955,5.3133,5.3832,5.4154,5.5038,5.5231,5.4947,0.0,0.0,0.0,0.0,0.0,0.0,0.0,0.0,0.0,0.0,0.0,0.0,0.0,0.0,0.0,5.342,5.3504,5.3661,5.3631,5.4788,5.601,5.5904,5.6943,5.7997,5.7997,5.7997,5.8204,5.8861,5.9634,6.0577,6.1769,6.2768,6.4311,6.7004,6.7989,6.8941,7.0472,0.0,0.0,0.0,0.0,0.0,0.0,0.0,0.0,0.0,0.0,0.0,0.0,0.0,7.5662,7.5795,7.5662,7.5614,7.5614,7.5156,7.4989,7.51,7.4828,7.4489,7.4083,7.3934,7.3045,7.16,7.16,7.0734,6.9333,6.9747,6.9901,6.9936,7.0354,7.0282,6.9901,6.9901,7.0162,7.0471,0.0,0.0,0.0,0.0,0.0,0.0,0.0,0.0,0.0,0.0,0.0,0.0,0.0,0.0,0.0,0.0,0.0,0.0,0.0,4.6355,4.6812,4.6889,4.8394,4.924,4.9317,4.9356,4.9822,5.0707,5.033,5.0323,5.0702,5.1089,5.2145,5.3625,5.3345,5.3889,5.4973,5.4723,5.4555,5.4532,5.4532,0.0,0.0,0.0,0.0,0.0,0.0,0.0,0.0,0.0,0.0,0.0,0.0,0.0,5.3287,5.3682,5.3524,5.3492,5.4572,5.5262,5.5813,5.6528,5.7373,5.7997,5.7997,5.7997,5.8351,5.9547,6.0501,6.1342,6.2125,6.3401,6.4898,6.6654,6.7775,6.8814,6.9974,0.0,0.0,0.0,0.0,0.0,0.0,0.0,0.0,0.0,0.0,0.0,0.0,0.0,0.0,7.5136,7.469,7.4422,7.4422,7.4379,7.4619,7.5091,7.4034,7.3479,7.3454,7.2862,7.2015,7.0969,7.0969,7.0327,6.9302,6.9343,6.9363,6.9373,6.9403,6.9393,6.9363,6.9363,6.9383,6.9413,0.0,0.0,0.0,0.0,0.0,0.0,0.0,0.0,0.0,0.0,0.0,0.0,0.0,0.0,0.0,0.0,0.0,0.0,0.0,4.6735,4.7351,4.8394,4.9048,4.9668,5.0207,5.0207,5.0243,5.033,5.0449,5.057,5.0719,5.1621,5.2392,5.2994,5.3397,5.3844,5.4292,5.4436,5.4322,5.4066,5.4066,5.3805,0.0,0.0,0.0,0.0,0.0,0.0,0.0,0.0,5.3516,5.3272,5.3663,5.3506,5.322,5.339,5.3308,5.3403,5.4359,5.5112,5.5805,5.659,5.7409,5.7997,5.7997,5.84,5.8899,5.9374,6.0512,6.1694,6.2483,6.333,6.4448,6.6127,6.6957,6.792,0.0,0.0,0.0,0.0,0.0,0.0,0.0,0.0,0.0,0.0,0.0,0.0,0.0,0.0,0.0,7.3785,7.4109,7.4293,7.4293,7.3934,7.3853,7.4045,7.3602,7.3211,7.2807,7.2109,7.1278,7.0357,6.9877,6.9146,6.8308,6.866,6.8818,6.8818,6.8818,6.8999,6.9262,6.8913,6.901,6.9251,0.0,0.0,0.0,0.0,0.0,0.0,0.0,0.0,0.0,0.0,0.0,0.0,0.0,0.0,0.0,0.0,0.0,0.0,4.6851,4.7389,4.8202,4.9356,4.9668,5.0091,5.0707,5.0589,5.0369,5.0111,5.0499,5.0702,5.0767,5.194,5.2632,5.2921,5.3385,5.3673,5.3795,5.4015,5.3906,5.3614,5.3614,5.3444,0.0,0.0,0.0,0.0,0.0,0.0,0.0,0.0,5.3414,5.3241,5.3506,5.3404,5.3214,5.3214,5.3214,5.3434,5.4473,5.5181,5.5842,5.6895,5.7593,5.7997,5.7997,5.8609,5.9269,5.9526,6.086,6.2144,6.2683,6.3435,6.445,0.0,6.6704,0.0,0.0,0.0,0.0,0.0,0.0,0.0,0.0,0.0,0.0,0.0,0.0,0.0,0.0,0.0,0.0,0.0,7.2754,7.3086,7.3348,7.2943,7.2846,7.3106,7.2846,7.2667,7.2459,7.1674,7.0866,7.0073,6.9265,6.8458,6.7741,6.8097,6.8247,6.8247,6.8247,6.8476,6.8762,6.8368,6.8487,6.875,0.0,0.0,0.0,0.0,0.0,0.0,0.0,0.0,0.0,0.0,0.0,0.0,0.0,0.0,0.0,0.0,0.0,0.0,4.6923,4.8471,4.9394,4.9394,5.024,5.0702,5.0702,5.0308,5.0099,5.0099,5.0492,5.0725,5.0849,5.1964,5.2977,5.3796,5.339,5.3404,5.3786,5.3369,5.3214,5.3214,5.3214,5.3214,5.3214,0.0,0.0,0.0,0.0,0.0,0.0,0.0,5.3214,5.3214,5.3214,5.3214,5.3214,5.3214,5.3214,5.3544,5.5144,5.5585,5.5989,5.7593,5.7997,5.7997,5.7997,5.8609,5.9453,6.0272,6.1692,6.2793,6.2793,6.3904,6.5072,6.5963,0.0,0.0,0.0,0.0,0.0,0.0,0.0,0.0,0.0,0.0,0.0,0.0,0.0,0.0,0.0,0.0,0.0,0.0,7.0431,7.0477,7.127,7.1307,7.1674,7.2459,7.1674,7.1711,7.2459,7.1637,7.083,7.0036,6.9229,6.8458,6.77,6.77,6.77,6.77,6.77,6.77,6.77,6.77,6.77,6.77,0.0,0.0,0.0,0.0,0.0,0.0,0.0,0.0,0.0,0.0,0.0,0.0,0.0,0.0,0.0,0.0,0.0,0.0,4.8171,4.8979,4.9542,4.9876,5.0138,5.0153,4.9872,5.0011,5.0097,5.0097,5.055,5.1061,5.1657,5.2571,5.3121,5.338,5.3251,5.3272,5.3369,5.3251,5.3214,5.3214,5.3214,5.3214,5.3214,0.0,0.0,0.0,0.0,0.0,0.0,0.0,0.0,0.0,5.3214,5.3214,5.3214,5.3214,5.3214,5.3544,5.5144,5.5585,5.5989,5.7593,5.7997,5.7997,5.7997,5.9061,6.0444,6.1802,6.2462,6.2793,6.2793,6.3628,0.0,0.0,0.0,0.0,0.0,0.0,0.0,0.0,0.0,0.0,0.0,0.0,0.0,0.0,0.0,0.0,0.0,0.0,0.0,0.0,6.9903,7.022,7.044,7.0477,7.0587,7.0807,7.0587,7.0881,7.16,7.0243,6.9486,6.9229,6.8421,6.7921,6.77,6.77,6.77,6.77,6.77,6.77,6.77,6.77,6.77,6.77,0.0,0.0,0.0,0.0,0.0,0.0,0.0,0.0,0.0,0.0,4.5594,4.567,0.0,0.0,0.0,0.0,0.0,0.0,0.0,4.9362,4.9717,4.9847,4.9872,4.9811,4.9745,4.9994,5.0357,5.0843,5.1136,5.1499,5.2024,5.2821,5.3214,5.3214,5.3214,5.3214,5.3214,5.3214,5.3214,5.3214,5.3214,5.3214,5.3214,0.0,0.0,0.0,0.0,0.0,0.0,0.0,0.0,0.0,5.3214,5.3214,5.3214,5.3214,5.3214,5.3544,5.5144,5.5585,5.5989,5.7593,5.7997,5.818,5.8804,5.9722,6.086,6.2462,6.2793,6.2793,6.2793,6.3503,0.0,0.0,0.0,0.0,0.0,0.0,0.0,0.0,0.0,0.0,0.0,0.0,0.0,0.0,0.0,0.0,0.0,0.0,0.0,0.0,6.8898,6.9302,6.9633,6.9633,6.9779,7.011,6.9779,6.9889,7.0316,6.9325,6.8885,6.8862,6.8054,6.77,6.77,6.77,6.77,6.77,6.77,6.77,6.77,6.77,6.77,6.77,0.0,0.0,0.0,0.0,0.0,0.0,0.0,0.0,0.0,0.0,4.5638,4.5822,0.0,0.0,0.0,0.0,0.0,0.0,0.0,4.9587,4.9872,4.946,4.9408,4.9585,5.0029,5.0132,5.0768,5.1987,5.1987,5.206,5.2134,5.2847,5.3214,5.3214,5.3214,5.3214,5.3214,5.3214,5.3214,5.3214,5.3214,5.3214,5.3214,5.3214,0.0,0.0,0.0,0.0,0.0,0.0,0.0,0.0,5.3214,5.3214,5.3214,5.3214,5.3214,5.3544,5.5144,5.5585,5.5989,5.7593,5.807,5.851,6.0052,6.0456,6.097,6.2462,6.2793,6.2793,6.2793,6.3503,6.4347,0.0,0.0,0.0,0.0,0.0,0.0,0.0,0.0,0.0,0.0,0.0,0.0,0.0,0.0,0.0,0.0,0.0,0.0,0.0,6.77,6.8054,6.8788,6.8788,6.9155,0.0,6.9155,6.8788,6.8788,6.8788,6.8788,6.8752,6.8031,6.77,6.77,6.77,6.77,6.77,6.77,6.77,6.77,6.77,6.77,6.77,0.0,0.0,0.0,0.0,0.0,0.0,0.0,0.0,0.0,0.0,0.0,0.0,0.0,0.0,0.0,0.0,0.0,0.0,0.0,4.934,4.9453,4.9043,4.8709,4.8901,4.9692,5.0335,5.1096,5.1987,5.1987,5.2307,5.2957,5.3104,5.3214,5.3214,5.3214,5.3214,5.3214,5.3214,5.3214,5.3214,5.3214,5.3214,5.3214,5.3214,5.3214,0.0,0.0,0.0,0.0,0.0,0.0,0.0,5.3214,5.3214,5.3214,5.3214,5.3214,5.3544,5.5144,5.5585,5.5989,5.7593,5.8462,5.9196,6.0199,6.0896,6.163,6.2609,6.2793,6.2793,6.2793,6.3503,0.0,0.0,0.0,0.0,0.0,0.0,0.0,0.0,0.0,0.0,0.0,0.0,0.0,0.0,0.0,0.0,0.0,0.0,0.0,6.77,6.77,6.7774,6.7958,6.7958,6.8031,0.0,6.8031,6.7958,6.7958,6.7958,6.7958,6.7958,6.7774,6.77,6.77,6.77,6.77,6.77,6.77,6.77,6.77,6.77,6.77,6.77,0.0,0.0,0.0,0.0,0.0,0.0,0.0,0.0,0.0,0.0,0.0,0.0,0.0,0.0,0.0,0.0,0.0,0.0,0.0,0.0,4.9019,4.864,4.878,4.926,5.0151,5.0949,5.1756,5.2564,5.2564,5.2784,5.3214,5.3214,5.3214,5.3214,5.3214,5.3214,5.3214,5.3214,5.3214,5.3214,5.3214,5.3214,5.3214,5.3214,5.3214,5.3214,5.3214,0.0,0.0,0.0,0.0,0.0,0.0,0.0,5.3214,5.3214,5.3471,5.4032,5.5254,5.5879,5.6455,5.7703,5.8609,5.9416,6.0224,6.1006,6.1814,6.2646,6.2793,6.2793,6.2793,0.0,0.0,0.0,0.0,0.0,0.0,0.0,0.0,0.0,0.0,0.0,0.0,0.0,0.0,0.0,0.0,0.0,0.0,6.77,6.77,6.77,6.77,6.77,6.77,6.77,6.77,6.77,6.77,6.77,6.77,6.77,6.77,6.77,6.77,6.77,6.77,6.77,6.77,6.77,6.77,6.77,6.77,6.77,6.77,6.77,0.0,0.0,0.0,0.0,0.0,0.0,0.0,0.0,0.0,0.0,0.0,0.0,0.0,0.0,0.0,0.0,0.0,0.0,0.0,0.0,0.0,4.8545,4.9297,5.0141,5.0986,5.1646,5.238,5.3214,5.3214,5.3214,5.3214,5.3214,5.3214,5.3214,5.3214,5.3214,5.3214,5.3214,5.3214,5.3214,5.3214,5.3214,5.3214,5.3214,5.3214,5.3214,5.3214,5.3214,5.3214,5.3214,0.0,0.0,0.0,0.0,5.3214,5.3214,5.3765,5.4583,5.5365,5.6271,5.7189,5.7813,5.8609,5.9416,6.0224,6.1006,6.1814,6.2646,6.2793,6.2793,6.2793,0.0,0.0,0.0,0.0,0.0,0.0,0.0,0.0,0.0,0.0,0.0,0.0,0.0,0.0,0.0,0.0,0.0,6.77,6.77,6.77,6.77,6.77,6.77,6.77,6.77,6.77,6.77,6.77,6.77,6.77,6.77,6.77,6.77,6.77,6.77,6.77,6.77,6.77,6.77,6.77,6.77,6.77,6.77,6.77,6.77,0.0,0.0,0.0,0.0,0.0,0.0,0.0,0.0,0.0,0.0,4.7076,4.7515,0.0,0.0,0.0,0.0,0.0,0.0,0.0,0.0,0.0,4.9427,5.0178,5.1022,5.184,5.195,5.238,5.3214,5.3214,5.3214,5.3214,5.3214,5.3214,5.3214,5.3214,5.3214,5.3214,5.3214,5.3214,5.3214,5.3214,5.3214,5.3214,5.3214,5.3214,5.3214,5.3214,5.3214,5.3214,5.3214,5.3214,0.0,0.0,0.0,5.3214,5.3214,5.3765,5.4583,5.5365,5.6686,5.7886,5.796,5.8609,5.9416,6.0224,6.1006,6.1814,6.2646,6.2793,6.2793,0.0,0.0,0.0,0.0,0.0,0.0,0.0,0.0,0.0,0.0,0.0,0.0,0.0,0.0,0.0,0.0,0.0,0.0,6.77,6.77,6.77,6.77,6.77,6.77,6.77,6.77,6.77,6.77,6.77,6.77,6.77,6.77,6.77,6.77,6.77,6.77,6.77,6.77,6.77,6.77,6.77,6.77,6.77,6.77,6.77,6.77,0.0,0.0,0.0,0.0,0.0,0.0,0.0,0.0,0.0,0.0,0.0,4.7978,0.0,0.0,0.0,0.0,0.0,0.0,0.0,0.0,0.0,5.0261,5.1022,5.1646,5.1987,5.2454,5.2858,5.3214,5.3214,5.3214,5.3214,5.3214,5.3214,5.3214,5.3214,5.3214,5.3214,5.3214,5.3214,5.3214,5.3214,5.3214,5.3214,5.3214,5.3214,5.3214,5.3214,5.3214,5.3214,5.3214,5.3214,5.3214,5.3214,0.0,0.0,0.0,5.4106,5.5365,5.6613,5.7446,5.7997,5.7997,5.8253,5.8877,6.0114,6.0676,6.1263,6.2536,6.2793,0.0,0.0,0.0,0.0,0.0,0.0,0.0,0.0,0.0,0.0,0.0,0.0,0.0,0.0,0.0,0.0,0.0,0.0,6.77,6.77,6.77,6.77,6.77,6.77,6.77,6.77,6.77,6.77,6.77,6.77,6.77,6.77,6.77,6.77,6.77,6.77,6.77,6.77,6.77,6.77,6.77,6.77,6.77,6.77,6.77,6.77,6.77,0.0,0.0,0.0,0.0,0.0,0.0,0.0,0.0,0.0,0.0,0.0,0.0,0.0,0.0,0.0,0.0,0.0,0.0,0.0,0.0,0.0,5.1096,5.1867,5.2307,5.2307,5.2884,5.3214,5.3214,5.3214,5.3214,5.3214,5.3214,5.3214,5.3214,5.3214,5.3214,5.3214,5.3214,5.3214,5.3214,5.3214,5.3214,5.3214,5.3214,5.3214,5.3214,5.3214,0.0,0.0,0.0,5.3214,5.3214,5.3214,5.3214,0.0,0.0,0.0,5.6209,5.7629,5.7997,5.7997,5.7997,5.7997,5.8364,5.9783,6.026,6.0811,0.0,6.2646,0.0,0.0,0.0,0.0,0.0,0.0,0.0,0.0,0.0,0.0,0.0,0.0,0.0,0.0,0.0,0.0,0.0,0.0,6.77,6.77,6.77,6.77,6.77,6.77,6.77,6.77,6.77,6.77,6.77,6.77,6.77,6.77,6.77,6.77,6.77,6.77,6.77,6.77,6.77,6.77,6.77,6.77,6.77,6.77,6.77,6.77,6.77,0.0,0.0,0.0,0.0,0.0,0.0,0.0,0.0,0.0,0.0,0.0,0.0,4.9537,5.0215,5.0655,5.0655,5.0729,0.0,0.0,0.0,0.0,5.195,5.2711,0.0,5.3141,5.3177,5.3214,5.3214,5.3214,5.3214,5.3214,5.3214,5.3214,5.3214,5.3214,5.3214,5.3214,5.3214,5.3214,5.3214,5.3214,5.3214,5.3214,5.3214,5.3214,5.3214,0.0,0.0,0.0,0.0,0.0,0.0,0.0,5.3214,5.3361,0.0,0.0,0.0,5.7776,5.7997,5.7997,5.7997,5.7997,5.8217,5.9086,5.9857,6.0639,6.1484,0.0,0.0,0.0,0.0,0.0,0.0,0.0,0.0,0.0,0.0,0.0,0.0,0.0,0.0,0.0,0.0,0.0,0.0,0.0,6.77,6.77,6.77,6.77,6.77,6.77,6.77,6.77,6.77,6.77,6.77,6.77,6.77,6.77,6.77,6.77,6.77,6.77,6.77,6.77,6.77,6.77,6.77,6.77,6.77,6.77,6.77,6.77,6.77,0.0,0.0,0.0,0.0,0.0,0.0,0.0,0.0,0.0,0.0,0.0,0.0,0.0,5.0618,5.0802,5.0802,5.1279,0.0,0.0,0.0,0.0,5.2784,5.3067,5.3214,5.3214,5.3214,5.3214,5.3214,5.3214,5.3214,5.3214,5.3214,5.3214,5.3214,5.3214,5.3214,5.3214,5.3214,5.3214,5.3214,5.3214,5.3214,5.3251,5.3765,5.3959,0.0,0.0,0.0,0.0,0.0,0.0,0.0,0.0,0.0,5.4913,5.5721,5.6334,5.6957,5.7776,5.7997,5.7997,5.7997,5.7997,5.8217,5.9013,5.982,6.0639,6.141,0.0,0.0,0.0,0.0,0.0,0.0,0.0,0.0,0.0,0.0,0.0,0.0,0.0,0.0,0.0,0.0,0.0,0.0,0.0,0.0,6.77,6.77,6.77,6.77,6.77,6.77,6.77,6.77,6.77,6.77,6.77,6.77,6.77,6.77,6.77,6.77,6.77,6.77,6.77,6.77,6.77,6.77,6.77,6.77,6.77,6.77,6.77,6.77,0.0,0.0,0.0,0.0,0.0,0.0,0.0,0.0,0.0,5.0802,0.0,0.0,0.0,0.0,5.161,5.161,5.2087,5.2637,5.3177,5.3214,5.3214,5.3214,5.3214,5.3214,5.3214,5.3214,5.3214,5.3214,5.3214,5.3214,5.3214,5.3214,5.3214,5.3214,5.3214,5.3214,5.3214,5.3214,5.3361,5.3581,5.3581,5.3765,5.4069,5.4583,0.0,0.0,0.0,0.0,0.0,0.0,0.0,0.0,0.0,0.0,0.0,0.0,5.7005,5.7336,5.785,5.7997,5.7997,5.7997,5.7997,5.8143,5.8682,5.9416,6.0236,6.1043,0.0,0.0,0.0,0.0,0.0,0.0,0.0,0.0,0.0,0.0,0.0,0.0,0.0,0.0,0.0,0.0,0.0,0.0,0.0,0.0,6.77,6.77,6.77,6.77,6.77,6.77,6.77,6.77,6.77,6.77,6.77,6.77,6.77,6.77,6.77,6.77,6.77,6.77,6.77,6.77,6.77,6.77,6.77,6.77,6.77,6.77,6.77,6.77,0.0,0.0,0.0,0.0,0.0,0.0,0.0,0.0,5.0875,5.0875,0.0,0.0,0.0,0.0,0.0,5.3214,5.3214,5.3214,5.3214,5.3214,5.3214,5.3214,0.0,0.0,5.3214,5.3214,5.3214,5.3214,5.3214,5.3214,5.3214,5.3214,5.3214,5.3214,5.3214,5.3251,5.3251,5.3251,5.3691,5.4436,5.4436,5.4913,5.5585,0.0,0.0,0.0,5.5658,5.5658,0.0,5.5658,0.0,0.0,0.0,0.0,0.0,0.0,0.0,5.7997,0.0,0.0,0.0,5.7997,5.7997,5.7997,5.7997,0.0,5.9416,0.0,0.0,0.0,0.0,0.0,0.0,0.0,0.0,0.0,0.0,0.0,0.0,0.0,0.0,0.0,0.0,0.0,0.0,0.0,0.0,6.77,6.77,6.77,6.77,6.77,6.77,6.77,6.77,6.77,6.77,6.77,6.77,6.77,6.77,6.77,6.77,6.77,6.77,6.77,6.77,6.77,6.77,6.77,6.77,6.77,6.77,6.77,6.77,6.77,0.0,0.0,0.0,0.0,0.0,5.1693,5.1693,5.216,5.2553,0.0,0.0,0.0,5.2847,5.3067,5.3214,5.3214,5.3214,5.3214,5.3214,5.3214,5.3214,5.3214,5.3214,5.3214,5.3214,5.3214,5.3214,5.3214,5.3214,5.3214,5.3214,5.3214,5.3214,5.3214,5.3812,5.4069,5.4069,5.4069,5.4509,5.5254,5.5254,5.5401,0.0,0.0,0.0,0.0,0.0,5.7347,5.7347,0.0,5.7347,5.7347,0.0,0.0,0.0,0.0,0.0,0.0,5.7997,0.0,0.0,0.0,0.0,0.0,0.0,0.0,0.0,0.0,0.0,0.0,0.0,0.0,0.0,0.0,0.0,0.0,0.0,0.0,0.0,0.0,0.0,0.0,0.0,0.0,0.0,0.0,6.77,6.77,6.77,6.77,6.77,6.77,6.77,6.77,6.77,6.77,6.77,6.77,6.77,6.77,6.77,6.77,6.77,6.77,6.77,6.77,6.77,6.77,6.77,6.77,6.77,6.77,6.77,6.77,6.77,6.77,0.0,0.0,0.0,0.0,0.0,5.2491,5.2491,5.2894,5.3214,0.0,0.0,0.0,5.3214,5.3214,5.3214,5.3214,5.3214,5.3214,5.3214,5.3214,5.3214,5.3214,5.3214,5.3214,5.3214,5.3214,5.3214,5.3214,5.3214,5.3214,5.3214,5.3214,5.3398,5.3728,5.4179,5.4766,5.539,5.539,5.5684,5.6088,5.6088,0.0,0.0,5.7116,5.7299,0.0,0.0,0.0,5.7997,5.7997,5.7997,0.0,0.0,0.0,0.0,0.0,0.0,0.0,0.0,0.0,0.0,0.0,0.0,0.0,5.7997,5.8364,0.0,0.0,0.0,0.0,0.0,0.0,0.0,0.0,0.0,0.0,0.0,0.0,0.0,0.0,0.0,0.0,0.0,0.0,0.0,6.715,6.7517,6.77,6.77,6.77,6.77,6.77,6.77,6.77,6.77,6.77,6.77,6.77,6.77,6.77,6.77,6.77,6.77,6.77,6.77,6.77,6.77,6.77,6.77,6.77,6.77,6.77,6.77,6.77,6.77,6.77,0.0,0.0,5.3214,5.3214,5.3214,5.3214,5.3214,5.3214,5.3214,0.0,5.3214,5.3214,5.3214,5.3214,5.3214,5.3214,5.3214,5.3214,5.3214,5.3214,5.3214,5.3214,5.3214,5.3214,5.3214,5.3214,5.3214,5.3214,5.3214,5.3251,5.3324,5.3324,5.3765,5.4546,5.462,5.5464,5.6811,5.6884,5.6921,5.6921,5.6921,5.7373,0.0,0.0,5.7997,5.7997,5.7997,5.7997,5.7997,5.7997,5.7997,0.0,0.0,0.0,0.0,0.0,5.7997,0.0,0.0,0.0,0.0,0.0,0.0,0.0,5.7997,5.7997,5.8437,0.0,0.0,0.0,0.0,0.0,0.0,0.0,0.0,0.0,0.0,0.0,0.0,0.0,0.0,0.0,0.0,6.5375,6.6292,6.6476,6.726,6.77,6.77,6.77,6.77,6.77,6.77,6.77,6.77,6.77,6.77,6.77,6.77,6.77,6.77,6.77,6.77,6.77,6.77,6.77,6.77,6.77,6.77,6.77,6.77,6.77,6.77,6.77,6.77,6.77,0.0,5.3214,5.3214,5.3214,5.3214,5.3214,5.3214,5.3214,5.3214,5.3214,5.3214,5.3214,5.3214,5.3214,5.3214,5.3214,5.3214,5.3214,5.3214,5.3214,5.3214,5.3214,5.3214,5.3214,5.3214,5.3214,5.3214,5.3214,5.3214,5.3544,5.4179,5.4179,5.4583,5.5401,5.6051,5.6517,5.6847,5.7483,5.7776,5.7776,5.7776,0.0,5.7997,5.7997,5.7997,5.7997,5.7997,5.7997,5.7997,0.0,5.7997,5.7997,0.0,0.0,0.0,0.0,0.0,0.0,0.0,0.0,0.0,0.0,0.0,0.0,5.7997,5.7997,5.8253,0.0,0.0,0.0,0.0,0.0,0.0,0.0,0.0,0.0,0.0,0.0,0.0,0.0,0.0,0.0,0.0,6.4396,6.5118,6.6402,6.726,6.77,6.77,6.77,6.77,6.77,6.77,6.77,6.77,6.77,6.77,6.77,6.77,6.77,6.77,6.77,6.77,6.77,6.77,6.77,6.77,6.77,6.77,6.77,6.77,6.77,6.77,6.77,6.77,6.77,5.3214,5.3214,5.3214,5.3214,5.3214,5.3214,5.3214,5.3214,5.3214,5.3214,5.3214,5.3214,5.3214,5.3214,5.3361,5.3765,5.3801,5.3959,5.4363,5.4399,5.4216,5.3801,5.3801,5.3801,5.3801,5.3801,5.3995,5.4399,5.4399,5.4583,5.4997,5.4997,5.5427,5.6235,5.6627,5.7251,5.8022,5.8425,5.8841,5.9171,5.8767,0.0,5.8657,5.9061,5.9208,5.9208,5.9208,5.9208,5.9208,5.9208,5.9208,0.0,0.0,5.9208,5.9134,0.0,5.8609,5.851,0.0,0.0,0.0,5.7997,0.0,0.0,0.0,5.7997,5.8217,5.9049,0.0,0.0,0.0,0.0,0.0,0.0,0.0,0.0,0.0,0.0,0.0,0.0,0.0,0.0,0.0,6.3833,6.4763,6.6366,6.688,6.7297,6.7664,6.77,6.77,6.77,6.77,6.77,6.77,6.77,6.77,6.77,6.77,6.77,6.77,6.77,6.77,6.77,6.77,6.77,6.77,6.77,6.77,6.77,6.77,6.77,6.77,6.77,6.77,6.77,5.3214,5.3214,5.3214,5.3214,5.3214,5.3214,5.3214,5.3214,5.3251,5.3398,5.3581,5.3654,5.3654,5.3654,5.3922,5.4583,5.462,5.4913,5.5548,5.5585,5.5328,5.4656,5.462,5.462,5.462,5.462,5.4961,5.5585,5.5585,5.5695,5.5842,5.5842,5.6271,5.7031,5.7178,5.7985,5.9196,5.938,5.982,6.037,0.0,5.9563,5.949,6.015,6.0419,6.0419,6.0419,6.0419,6.0419,6.0419,0.0,6.0419,6.0419,6.0419,0.0,0.0,0.0,0.0,0.0,0.0,0.0,0.0,0.0,5.7997,0.0,0.0,0.0,5.9086,0.0,0.0,0.0,0.0,0.0,0.0,0.0,0.0,0.0,0.0,0.0,0.0,0.0,0.0,0.0,6.3576,6.4677,6.6145,6.6402,6.6843,6.7664,6.77,6.77,6.77,6.77,6.77,6.77,6.77,6.77,6.77,6.77,6.77,6.77,6.77,6.77,6.77,6.77,6.77,6.77,6.77,6.77,6.77,6.77,6.77,6.77,6.77,6.77,6.77,5.3214,5.3214,5.3214,5.3214,5.3214,5.3214,5.3214,5.3214,5.3471,5.4179,5.4876,5.5328,5.5328,5.5328,5.5365,5.5475,5.5475,0.0,5.5585,0.0,5.5548,5.5475,5.5475,5.5475,5.5475,5.5475,5.5511,5.5585,5.5585,5.5952,5.6675,5.6675,5.7079,5.7886,5.8609,5.9038,5.9269,5.9967,6.0309,0.0,6.108,6.0896,0.0,6.0382,6.0419,6.0419,6.0419,6.0419,6.0419,0.0,6.0419,6.0419,0.0,6.0419,6.0382,0.0,0.0,0.0,0.0,0.0,0.0,0.0,5.8547,0.0,0.0,0.0,5.9086,5.9196,0.0,0.0,0.0,0.0,0.0,0.0,0.0,0.0,0.0,0.0,0.0,0.0,0.0,0.0,0.0,0.0,6.4457,6.5362,6.6109,6.6843,6.7664,6.77,6.77,6.77,6.77,6.77,6.77,6.77,6.77,6.77,6.77,6.77,6.77,6.77,6.77,6.77,6.77,6.77,6.77,6.77,6.77,6.77,6.77,6.77,6.77,6.77,6.77,6.77,5.3398,5.3214,5.3214,5.3214,5.3581,5.3922,5.3922,5.4289,5.4693,5.506,5.5401,5.5585,5.5585,0.0,0.0,0.0,0.0,5.6492,0.0,0.0,5.6785,5.6308,5.6308,5.6308,5.6308,5.6308,5.6528,5.698,5.698,5.7409,5.8205,5.8205,5.8609,5.9428,5.9747,6.015,6.0603,6.0933,6.1374,0.0,0.0,0.0,0.0,6.1998,6.1802,6.1802,6.1802,6.1802,6.1802,0.0,6.1802,0.0,0.0,0.0,0.0,0.0,0.0,0.0,0.0,0.0,0.0,0.0,0.0,0.0,0.0,0.0,5.9893,0.0,0.0,0.0,0.0,0.0,0.0,0.0,0.0,0.0,0.0,0.0,0.0,0.0,0.0,0.0,0.0,0.0,0.0,0.0,0.0,6.6145,6.6966,6.7444,6.77,6.77,6.77,6.77,6.77,6.77,6.77,6.77,6.77,6.77,6.77,6.77,6.77,6.77,6.77,6.77,6.77,6.77,6.77,6.77,6.77,6.77,6.77,6.77,6.77,6.77,5.4106,5.3849,5.3849,5.3849,5.4326,5.473,5.473,5.5401,5.5941,5.5941,5.6308,5.6602,5.6602,5.6785,0.0,0.0,5.7802,5.8022,0.0,0.0,5.84,0.0,0.0,0.0,0.0,5.7802,5.807,5.8657,5.8657,5.8951,5.9526,5.9526,5.982,6.0419,6.0639,6.1043,6.1594,0.0,6.2401,6.316,6.316,6.3686,6.4347,6.371,6.349,6.349,6.349,6.349,6.3453,6.3233,6.316,0.0,6.2866,0.0,0.0,0.0,0.0,0.0,6.1227,0.0,0.0,0.0,0.0,0.0,0.0,0.0,0.0,0.0,0.0,0.0,0.0,0.0,0.0,0.0,0.0,0.0,0.0,0.0,0.0,0.0,0.0,0.0,0.0,0.0,0.0,0.0,0.0,0.0,6.6476,6.726,6.77,6.77,6.77,6.77,6.77,6.77,6.77,6.77,6.77,6.77,6.77,6.77,6.77,6.77,6.77,6.77,6.77,6.77,6.77,6.77,6.77,6.77,6.77,6.77,6.77,6.77,5.5548,5.5511,5.5511,5.5511,5.5548,5.5548,5.5548,5.6235,5.6737,5.6737,5.8132,0.0,0.0,0.0,0.0,0.0,0.0,6.0309,6.0309,0.0,6.0297,0.0,0.0,6.026,0.0,0.0,6.0309,6.0309,6.0309,6.0346,6.037,6.037,6.0382,6.0419,6.119,6.1569,6.163,6.2426,6.3282,6.4066,6.4066,6.453,6.5251,0.0,6.5215,6.5215,6.5215,0.0,0.0,6.431,6.4066,0.0,0.0,0.0,0.0,0.0,0.0,0.0,0.0,0.0,0.0,6.1557,0.0,0.0,0.0,0.0,6.1557,0.0,0.0,0.0,0.0,0.0,0.0,0.0,0.0,0.0,0.0,0.0,0.0,0.0,0.0,0.0,0.0,0.0,0.0,0.0,0.0,0.0,6.6476,6.726,6.77,6.77,6.77,6.77,6.77,6.77,6.77,6.77,6.77,6.77,6.77,6.77,6.77,6.77,6.77,6.77,6.77,6.77,6.77,6.77,6.77,6.77,6.77,6.77,6.77,6.77,5.7189,5.7189,5.687,5.5805,5.6051,5.6565,5.7116,5.7886,5.8389,0.0,0.0,0.0,0.0,6.0224,6.0419,0.0,0.0,6.0419,6.0419,6.0419,0.0,0.0,0.0,6.0419,0.0,0.0,0.0,0.0,6.0419,6.0676,6.119,6.119,6.1484,6.2022,6.2879,6.3258,0.0,0.0,0.0,0.0,0.0,6.5852,6.6035,0.0,0.0,6.5288,6.5288,6.5288,0.0,6.5007,6.4897,6.4848,6.4554,6.4444,6.4334,6.3833,6.3649,0.0,0.0,0.0,6.2389,6.2389,0.0,0.0,0.0,0.0,0.0,0.0,0.0,0.0,0.0,0.0,0.0,0.0,0.0,0.0,0.0,0.0,0.0,0.0,0.0,0.0,0.0,0.0,0.0,0.0,0.0,0.0,0.0,6.6953,6.77,6.77,6.77,6.77,6.77,6.77,6.77,6.77,6.77,6.77,6.77,6.77,6.77,6.77,6.77,6.77,6.77,6.77,6.77,6.77,6.77,6.77,6.77,6.77,6.77,6.77,5.7997,5.7997,5.7666,0.0,0.0,0.0,0.0,0.0,0.0,0.0,6.0334,0.0,6.0823,0.0,6.1251,0.0,6.1251,6.141,6.1704,6.1447,0.0,6.1704,6.141,0.0,0.0,0.0,0.0,0.0,0.0,6.1667,6.2487,6.2487,6.2915,6.371,6.4273,6.453,6.4567,6.5068,6.5472,0.0,0.0,6.6916,0.0,0.0,6.6145,6.6145,0.0,6.6145,6.6109,6.5815,6.5742,6.5692,6.5398,6.5288,6.5178,6.4677,6.453,6.4383,6.382,6.3673,0.0,6.3306,6.3282,0.0,6.2866,0.0,0.0,0.0,0.0,0.0,0.0,0.0,0.0,0.0,0.0,0.0,0.0,6.2793,0.0,0.0,0.0,0.0,0.0,0.0,0.0,6.2793,6.4077,0.0,0.0,0.0,6.7407,6.77,6.77,6.77,6.77,6.77,6.77,6.77,6.77,6.77,6.77,6.77,6.77,6.77,6.77,6.77,6.77,6.77,6.77,6.77,6.77,6.77,6.77,6.77,6.77,6.77,5.8107,0.0,0.0,0.0,5.8756,0.0,0.0,0.0,6.0481,0.0,6.1227,6.1753,6.1777,6.2475,6.2903,6.2903,6.2903,0.0,6.4103,6.338,0.0,0.0,6.3392,6.2903,6.2903,0.0,0.0,0.0,0.0,6.3356,6.4176,6.4176,6.4567,6.5288,6.5325,6.5362,6.5362,6.5398,6.5852,6.6623,6.7407,6.77,6.77,6.7737,6.7774,6.7737,6.77,6.77,6.759,6.6806,6.6549,6.6439,6.5655,6.5398,6.5398,6.5362,6.5362,6.5362,6.5288,6.5288,6.5118,6.436,0.0,0.0,0.0,0.0,6.2866,0.0,0.0,0.0,0.0,0.0,0.0,0.0,0.0,0.0,0.0,0.0,0.0,0.0,0.0,0.0,0.0,0.0,6.2793,6.2793,6.3613,6.4457,0.0,0.0,6.688,6.7664,6.77,6.77,6.77,6.77,6.77,6.77,6.77,6.77,6.77,6.77,6.77,6.77,6.77,6.77,6.77,6.77,6.77,6.77,6.77,6.77,6.77,6.77,6.77,6.77,5.9795,5.9795,5.9795,0.0,5.993,6.0077,0.0,0.0,0.0,0.0,6.2915,6.3699,6.4273,6.4517,6.4664,6.4664,6.4664,0.0,0.0,0.0,0.0,6.4971,6.4774,6.4664,6.4664,6.4664,0.0,6.4664,0.0,6.4774,6.5007,6.5007,6.5105,6.5325,6.5925,6.6182,6.6219,6.6843,6.7187,6.7407,6.7627,6.77,0.0,0.0,6.8605,6.8495,6.7921,6.77,6.7664,6.748,6.7407,6.737,6.7136,6.7076,6.6953,6.6366,6.6182,6.6072,6.5472,6.5288,6.5251,6.5044,6.5007,6.4934,0.0,0.0,0.0,0.0,0.0,0.0,0.0,0.0,0.0,0.0,0.0,0.0,0.0,0.0,0.0,6.2793,0.0,0.0,0.0,0.0,6.2793,6.2793,6.3613,6.4457,0.0,0.0,0.0,6.7664,6.77,6.77,6.77,6.77,6.77,6.77,6.77,6.77,6.77,6.77,6.77,6.77,6.77,6.77,6.77,6.77,6.77,6.77,6.77,6.77,6.77,6.77,6.77,6.77,6.0419,0.0,0.0,6.1435,0.0,0.0,6.1545,0.0,0.0,6.3783,6.431,0.0,6.5251,6.5288,6.5288,6.5288,6.5288,0.0,6.5802,0.0,0.0,6.5815,6.5472,6.5288,6.5288,6.5288,0.0,6.5288,0.0,6.5472,6.5815,6.5815,6.5999,6.6366,6.6806,6.704,6.7076,6.7871,6.8421,6.8765,6.8765,0.0,0.0,6.9265,6.9412,6.9376,6.8898,6.8531,6.8201,6.8201,6.7994,6.77,6.77,6.77,6.7627,6.715,6.704,6.6916,6.6476,6.6366,6.6256,6.5925,6.5815,6.5742,6.5362,6.4971,6.4604,0.0,0.0,0.0,0.0,0.0,0.0,0.0,0.0,0.0,0.0,0.0,0.0,0.0,0.0,0.0,0.0,0.0,6.2793,6.2793,6.3246,0.0,0.0,0.0,0.0,6.7664,6.77,6.77,6.77,6.77,6.77,6.77,6.77,6.77,6.77,6.77,6.77,6.77,6.77,6.77,6.77,6.77,6.77,6.77,6.77,6.77,6.77,6.77,6.77,6.77,6.1031,0.0,0.0,0.0,0.0,0.0,0.0,6.3833,0.0,6.5362,0.0,6.5508,6.5582,6.5632,6.5632,6.5632,0.0,6.5925,6.6623,6.5999,6.5925,6.6623,6.5999,6.5632,6.5632,6.5632,0.0,0.0,0.0,6.5962,6.6659,6.6659,6.7026,6.77,6.7811,6.7921,0.0,6.8752,6.9449,7.011,7.011,7.011,7.011,7.022,7.0257,7.0257,7.0367,6.9816,6.9082,6.9082,6.8605,6.7994,6.7994,6.7958,6.7847,6.7847,6.7774,6.77,6.77,6.77,6.7517,6.6843,6.6659,6.6476,6.5765,6.5508,6.5472,6.5472,6.4824,0.0,0.0,0.0,0.0,0.0,0.0,0.0,0.0,0.0,0.0,0.0,0.0,0.0,0.0,0.0,0.0,0.0,0.0,0.0,0.0,0.0,0.0,6.7664,6.77,0.0,6.77,0.0,6.77,6.77,6.77,6.77,6.77,6.77,6.77,6.77,6.77,6.77,6.77,6.77,6.77,6.77,6.77,6.77,6.77,6.77,6.77,6.77,6.4297,0.0,0.0,0.0,0.0,6.5398,6.5815,6.5411,6.5375,6.6182,6.6292,6.6549,6.7223,6.7297,6.7297,6.7297,6.7297,0.0,0.0,0.0,0.0,6.748,6.737,6.7297,6.7297,6.7297,6.7297,0.0,0.0,0.0,6.748,6.748,6.7554,6.7737,6.8385,6.9045,6.9669,6.9816,0.0,7.011,7.011,7.011,7.0183,7.083,7.1087,7.116,7.1835,7.1138,6.9889,6.9889,6.9779,6.9669,6.9669,6.9229,6.8678,6.8678,6.8201,6.77,6.77,6.77,6.7664,6.7517,6.748,6.7444,6.7297,6.6769,6.6292,6.6292,6.5668,6.5081,6.5081,0.0,0.0,0.0,0.0,0.0,0.0,0.0,0.0,0.0,0.0,0.0,0.0,0.0,0.0,0.0,0.0,0.0,0.0,0.0,0.0,0.0,0.0,0.0,0.0,0.0,6.77,6.77,6.77,6.77,6.77,6.77,6.77,6.77,6.77,6.77,6.77,6.77,6.77,6.77,6.77,6.77,6.77,6.77,6.77,6.77,0.0,0.0,0.0,0.0,0.0,0.0,0.0,6.7417,0.0,6.7687,6.776,6.8054,6.8875,6.8949,6.8949,6.8949,6.8949,6.8949,6.8949,6.8949,6.8949,6.8949,6.8949,0.0,6.8949,6.8949,6.8949,6.8949,0.0,0.0,6.8949,6.8949,6.8949,6.8949,6.9339,6.9963,0.0,0.0,0.0,7.1358,7.1358,7.1358,7.1394,7.1747,7.1931,7.1967,7.2349,7.2018,7.1284,7.0881,7.044,7.011,7.011,6.9816,6.9522,6.9522,6.8935,6.8311,6.8311,6.8031,6.77,6.77,6.77,6.77,6.77,6.7407,6.71,6.71,6.6476,6.5778,6.5362,6.4971,0.0,0.0,0.0,0.0,0.0,0.0,0.0,0.0,0.0,0.0,0.0,0.0,0.0,0.0,0.0,0.0,0.0,0.0,0.0,0.0,0.0,0.0,0.0,0.0,0.0,6.77,6.77,6.77,6.77,6.77,6.77,6.77,6.77,6.77,6.77,6.77,6.77,6.77,6.77,6.77,6.77,6.77,6.77,6.77,0.0,6.6476,0.0,0.0,6.77,0.0,6.9045,6.9155,6.9155,6.9155,6.9155,6.9412,7.0036,7.011,7.011,7.011,7.011,7.011,7.011,7.011,7.011,7.011,7.011,7.011,7.011,7.011,7.011,0.0,0.0,0.0,0.0,7.0,7.0183,0.0,0.0,0.0,0.0,0.0,7.1931,7.2496,7.2496,7.2496,7.2496,7.2496,7.2496,7.2496,7.2496,7.2496,7.2422,7.1784,7.1138,7.0624,7.0624,7.0477,7.0367,7.0367,6.9779,6.9155,6.9155,6.8678,6.8178,6.7994,6.7958,6.7921,6.7737,6.77,6.77,6.77,6.7187,6.6549,6.5925,6.5668,0.0,0.0,0.0,0.0,0.0,0.0,0.0,0.0,0.0,0.0,0.0,0.0,0.0,0.0,0.0,0.0,0.0,0.0,0.0,0.0,0.0,6.77,6.77,0.0,6.77,0.0,6.77,6.77,6.77,6.7884,6.7958,6.7958,6.8141,6.8214,6.8214,6.8214,6.8104,6.7958,6.7958,6.7847,6.77,6.77,6.77,6.77,0.0,0.0,0.0,0.0,0.0,0.0,0.0,7.0,7.0,7.0,7.0,7.0,7.0073,7.011,7.011,7.011,7.011,7.011,7.011,7.011,7.011,7.011,7.011,7.011,7.011,7.011,7.011,0.0,0.0,0.0,0.0,0.0,0.0,0.0,0.0,0.0,0.0,7.2386,7.2422,7.2496,7.2496,7.2496,7.2496,7.2496,7.2496,7.2496,7.2496,7.2496,7.2496,7.2422,7.2349,7.2275,7.2275,7.1747,7.1197,7.1197,7.0624,7.0,7.0,6.9926,6.9706,6.8972,6.8788,6.8605,6.7884,6.77,6.77,6.77,6.7627,6.7554,6.748,6.688,6.6402,0.0,0.0,0.0,0.0,0.0,0.0,0.0,0.0,0.0,0.0,0.0,0.0,0.0,0.0,0.0,0.0,0.0,0.0,6.7664,0.0,6.77,6.77,6.77,0.0,6.77,6.77,6.77,6.7737,6.8458,6.8788,6.8825,6.9559,6.9889,6.9889,6.9889,6.9449,6.8788,6.8788,6.8348,6.77,6.77,6.77,6.77,0.0,0.0,0.0,0.0,0.0,0.0,0.0,7.083,7.0991,7.1468,7.1138,7.0991,7.1505,7.1541,7.1541,7.1541,7.1541,7.1541,7.1541,7.1541,7.1541,7.1541,7.1541,7.1541,7.1541,7.1541,7.1541,0.0,0.0,0.0,0.0,0.0,0.0,0.0,0.0,7.2202,7.2496,7.2496,7.2496,7.2496,7.2496,7.2496,7.2496,7.2496,7.2496,7.2496,7.2496,7.2496,7.2496,7.2496,7.2496,7.2496,7.2496,7.2275,7.2004,7.2004,7.1454,7.083,7.083,7.0477,7.0,6.9706,6.9633,6.9412,6.8605,6.8421,6.8274,6.7811,6.77,6.77,6.77,6.7444,6.7223,0.0,0.0,0.0,0.0,0.0,0.0,0.0,0.0,0.0,0.0,0.0,0.0,0.0,0.0,0.0,0.0,0.0,0.0,6.7664,0.0,6.77,6.77,6.77,6.77,6.77,6.77,6.7958,6.8421,6.8752,6.9155,6.9633,6.9963,7.011,7.011,7.011,6.9926,6.9633,6.9633,6.9412,6.9132,6.9132,6.9132,6.9132,7.011,0.0,7.044,0.0,7.066,7.0991,7.1564,7.1637,7.1857,7.2422,7.2004,7.1857,7.2459,7.2496,7.2496,7.2496,7.2496,7.2496,7.2496,7.2496,7.2496,7.2496,7.2496,0.0,7.2496,7.2496,7.2496,7.2496,7.2496,0.0,0.0,0.0,0.0,0.0,7.2496,7.2496,7.2496,7.2496,7.2496,7.2496,7.2496,7.2496,7.2496,7.2496,7.2496,7.2496,7.2496,7.2496,7.2496,7.2496,7.2496,7.2496,7.2496,7.2496,7.2496,7.2496,7.2078,7.1637,7.1637,7.1248,7.0734,7.0513,7.044,7.0257,6.9449,6.9082,6.8678,6.7884,6.77,6.77,6.77,6.77,6.77,6.77,0.0,0.0,0.0,0.0,0.0,0.0,0.0,6.5742,6.5999,0.0,0.0,0.0,0.0,0.0,0.0,0.0,0.0,0.0,0.0,0.0,0.0,6.77,6.77,6.77,6.7958,6.8348,6.8921,6.9398,7.0036,7.0807,7.0807,7.0807,7.0807,7.0807,7.066,7.044,7.044,7.0293,7.011,7.011,7.011,7.011,7.011,7.072,7.1307,7.1307,7.1931,7.2459,7.2496,7.2496,7.2496,7.2496,7.2496,7.2496,7.2496,7.2496,7.2496,7.2496,7.2496,7.2496,7.2496,7.2496,7.2496,0.0,0.0,7.2496,7.2496,7.2496,7.2496,7.2496,0.0,0.0,7.1307,0.0,7.1747,7.2496,7.2496,7.2496,7.2496,7.2496,7.2496,7.2496,7.2496,7.2496,7.2496,7.2496,7.2496,7.2496,7.2496,7.2496,7.2496,7.2496,7.2496,7.2496,7.2496,7.2496,7.2496,7.2496,7.2496,7.2496,7.2496,7.2496,7.2275,7.149,7.1307,7.1087,7.0257,6.9486,6.8678,6.7884,6.77,6.77,6.77,6.77,6.77,6.77,0.0,0.0,0.0,0.0,0.0,0.0,6.6953,6.6806,6.759,0.0,0.0,0.0,0.0,0.0,0.0,0.0,0.0,6.77,6.77,0.0,6.77,6.77,6.77,6.77,6.8495,6.8885,6.8958,7.0536,7.1711,7.2459,7.2459,7.2459,7.2459,7.2459,7.2004,7.1307,7.1307,7.0807,7.011,7.011,7.011,7.011,7.1725,7.1945,7.2129,7.2129,7.2349,7.2496,7.2496,7.2496,7.2496,7.2496,7.2496,7.2496,7.2496,7.2496,7.2496,0.0,7.2496,7.2496,0.0,7.2496,7.2496,7.2496,7.2496,7.2496,7.2496,7.2496,7.2496,7.2496,0.0,0.0,0.0,7.2129,7.2261,7.2496,7.2496,7.2496,7.2496,7.2496,7.2496,7.2496,7.2496,7.2496,7.2496,7.2496,7.2496,7.2496,7.2496,7.2496,7.2496,7.2496,7.2496,7.2496,7.2496,7.2496,7.2496,7.2496,7.2496,7.2496,7.2496,7.2496,7.2459,7.2202,7.2129,7.1894,7.1087,7.0293,6.9486,6.8678,6.8531,6.8348,6.7811,6.77,6.77,6.77,0.0,0.0,0.0,0.0,0.0,0.0,0.0,6.7407,0.0,6.748,0.0,0.0,0.0,0.0,0.0,0.0,0.0,0.0,6.77,0.0,6.77,6.77,6.7994,6.8531,6.8788,6.9472,7.0573,7.1637,7.2275,7.2496,7.2496,7.2496,7.2496,7.2496,7.2349,7.2129,7.2129,7.1982,7.1725,7.1725,7.1725,7.1725,7.2496,7.2496,7.2496,7.2496,7.2496,7.2496,7.2496,7.2496,7.2496,7.2496,7.2496,7.2496,7.2496,7.2496,0.0,7.2496,7.2496,7.2496,7.2496,7.2496,7.2496,7.2496,7.2496,7.2496,7.2496,0.0,0.0,7.2496,7.2496,7.2496,7.2496,7.2496,7.2496,7.2496,7.2496,7.2496,7.2496,7.2496,7.2496,7.2496,7.2496,7.2496,7.2496,7.2496,7.2496,7.2496,7.2496,7.2496,7.2496,7.2496,7.2496,7.2496,7.2496,7.2496,7.2496,7.2496,7.2496,7.2496,7.2496,7.2496,7.2496,7.2496,7.2496,7.2312,7.149,7.0903,7.033,6.9522,6.9339,6.9119,6.8311,6.8128,6.8054,6.7737,0.0,6.77,0.0,0.0,0.0,0.0,0.0,0.0,0.0,6.77,0.0,0.0,0.0,0.0,0.0,0.0,0.0,6.77,6.77,0.0,6.77,6.7994,6.8385,6.8898,6.9509,7.0499,7.1784,7.2275,7.2496,7.2496,7.2496,7.2496,7.2496,7.2496,7.2496,7.2496,7.2496,7.2496,7.2496,7.2496,7.2496,7.2496,7.2496,7.2496,0.0,0.0,7.2496,0.0,7.2496,7.2496,7.2496,7.2496,7.2496,7.2496,7.2496,7.2496,7.2496,7.2496,0.0,0.0,0.0,7.2496,7.2496,7.2496,7.2496,7.2496,7.2496,7.2496,7.2496,7.2496,7.2496,7.2496,7.2496,7.2496,7.2496,7.2496,7.2496,7.2496,7.2496,7.2496,7.2496,7.2496,7.2496,7.2496,7.2496,7.2496,7.2496,7.2496,7.2496,7.2496,7.2496,7.2496,7.2496,7.2496,7.2496,7.2496,7.2496,7.2496,7.2496,7.2496,7.2496,7.2496,7.2496,7.2496,7.2496,7.2312,7.1564,7.138,7.116,7.033,7.0183,6.9926,6.9119,6.8935,6.8641,6.7921,6.7737,6.77,6.77,0.0,0.0,0.0,0.0,0.0,0.0,6.77,6.77,0.0,0.0,0.0,0.0,0.0,6.77,6.77,6.77,6.7737,6.7774,6.8531,6.8972,6.9068,7.0646,7.1784,7.2496,7.2496,7.2496,7.2496,7.2496,7.2496,7.2496,7.2496,7.2496,7.2496,7.2496,7.2496,7.2496,7.2496,7.2496,7.2496,0.0,0.0,7.2496,7.2496,7.2496,7.2496,7.2496,7.2496,7.2496,7.2496,7.2496,7.2496,7.2496,7.2496,7.2496,7.2496,7.2496,7.2496,7.2496,7.2496,7.2496,7.2496,7.2496,7.2496,7.2496,7.2496,7.2496,7.2496,7.2496,7.2496,7.2496,7.2496,7.2496,7.2496,7.2496,7.2496,7.2496,7.2496,7.2496,7.2496,7.2496,7.2496,7.2496,7.2496,7.2496,7.2496,7.2496,7.2496,7.2496,7.2496,7.2496,7.2496,7.2496,7.2496,7.2496,7.2496,7.2496,7.2496,7.2496,7.2496,7.2496,7.2496,7.2496,7.2459,7.2275,7.2224,7.1982,7.116,7.1013,7.077,6.9963,6.9302,6.8862,6.8641,6.8091,6.77,6.77,0.0,0.0,0.0,6.77,6.77,6.77,6.77,6.77,0.0,0.0,0.0,0.0,6.77,6.77,6.77,6.77,6.7994,6.8605,6.8788,6.9509,7.0756,7.1747,7.2312,7.2496,7.2496,7.2496,7.2496,7.2496,7.2496,7.2496,7.2496,7.2496,7.2496,7.2496,7.2496,7.2496,7.2496,7.2496,7.2496,7.2496,7.2496,7.2496,7.2496,7.2496,7.2496,7.2496,7.2496,7.2496,7.2496,7.2496,7.2496,7.2496,7.2496,7.2496,7.2496,7.2496,7.2496,7.2496,7.2496,7.2496,7.2496,7.2496,7.2496,7.2496,7.2496,7.2496,7.2496,7.2496,7.2496,7.2496,7.2496,7.2496,7.2496,7.2496,7.2496,7.2496,7.2496,7.2496,7.2496,7.2496,7.2496,7.2496,7.2496,7.2496,7.2496,7.2496,7.2496,7.2496,7.2496,7.2496,7.2496,7.2496,7.2496,7.2496,7.2496,7.2496,7.2496,7.2496,7.2496,7.2496,7.2496,7.2496,7.2496,7.2496,7.2496,7.2386,7.1931,7.1857,7.16,7.0807,7.0279,6.9876,6.9522,6.8752,6.8238,6.8238,6.7921,0.0,6.77,6.77,6.77,6.77,6.77,6.77,6.77,0.0,0.0,6.77,6.77,6.77,6.77,6.8068,6.8458,6.8885,6.9619,7.061,7.1857,7.2312,7.2496,7.2496,7.2496,7.2496,7.2496,7.2496,7.2496,7.2496,7.2496,7.2496,7.2496,7.2496,7.2496,7.2496,7.2496,7.2496,7.2496,7.2496,7.2496,7.2496,7.2496,7.2496,7.2496,7.2496,7.2496,7.2496,7.2496,7.2496,7.2496,7.2496,7.2496,7.2496,7.2496,7.2496,7.2496,7.2496,7.2496,7.2496,7.2496,7.2496,7.2496,7.2496,7.2496,7.2496,7.2496,7.2496,7.2496,7.2496,7.2496,7.2496,7.2496,7.2496,7.2496,7.2496,7.2496,7.2496,7.2496,7.2496,7.2496,7.2496,7.2496,7.2496,7.2496,7.2496,7.2496,7.2496,7.2496,7.2496,7.2496,7.2496,7.2496,7.2496,7.2496,7.2496,7.2496,7.2496,7.2496,7.2496,7.2496,7.2496,7.2496,7.2496,7.2496,7.2496,7.2496,7.2496,7.2312,7.16,7.138,7.1087,7.0403,6.9596,6.9082,6.9082,0.0,6.7884,6.7884,6.7774,6.77,6.77,6.77,6.77,6.77,6.77,6.7737,0.0,6.7884,6.7958,6.8068,6.8605,6.9009,6.9252,7.072,7.1821,7.2496,7.2496,7.2496,7.2496,7.2496,7.2496,7.2496,7.2496,7.2496,7.2496,7.2496,7.2496,7.2496,7.2496,7.2496,7.2496,7.2496,7.2496,7.2496,7.2496,7.2496,7.2496,7.2496,7.2496,7.2496,7.2496,7.2496,7.2496,7.2496,7.2496,7.2496,7.2496,7.2496,7.2496,7.2496,7.2496,7.2496,7.2496,7.2496,7.2496,7.2496,7.2496,7.2496,7.2496,7.2496,7.2496,7.2496,7.2496,7.2496,7.2496,7.2496,7.2496,7.2496,7.2496,7.2496,7.2496,7.2496,7.2496,7.2496,7.2496,7.2496,7.2496,7.2496,7.2496,7.2496,7.2496,7.2496,7.2496,7.2496,7.2496,7.2496,7.2496,7.2496,7.2496,7.2496,7.2496,7.2496,7.2496,7.2496,7.2496,7.2496,7.2496,7.2496,7.2496,7.2496,7.2496,7.2496,7.2496,7.2459,7.2349,7.1747,7.127,7.1123,7.044,6.9926,6.9926,0.0,6.8715,6.8715,6.8091,6.77,6.77,6.77,6.77,6.77,6.77,6.7994,6.8678,6.8715,6.9045,6.972,6.9192,6.9545,7.0903,7.1857,7.2386,7.2496,7.2496,7.2496,7.2496,7.2496,7.2496,7.2496,7.2496,7.2496,7.2496,7.2496,7.2496,7.2496,7.2496,7.2496,7.2496,7.2496,7.2496,7.2496,7.2496,7.2496,7.2496,7.2496,7.2496,7.2496,7.2496,7.2496,7.2496,7.2496,7.2496,7.2496,7.2496,7.2496,7.2496,7.2496,7.2496,7.2496,7.2496,7.2496,7.2496,7.2496,7.2496,7.2496,7.2496,7.2496,7.2496,7.2496,7.2496,7.2496,7.2496,7.2496,7.2496,7.2496,7.2496,7.2496,7.2496,7.2496,7.2496,7.2496,7.2496,7.2496,7.2496,7.2496,7.2496,7.2496,7.2496,7.2496,7.2496,7.2496,7.2496,7.2496,7.2496,7.2496,7.2496,7.2496,7.2496,7.2496,7.2496,7.2496,7.2496,7.2496,7.2496,7.2496,7.2496,7.2496,7.2496,7.2496,7.2496,7.2496,7.2496,7.2202,7.1931,7.1931,7.1284,0.0,0.0,7.0036,6.9559,6.9559,6.9229,6.8985,6.8985,6.8985,6.8985,6.8985,6.8985,6.9155,6.9522,6.9559,6.9926,7.0734,7.0389,7.0756,7.1931,7.2312,7.2496,7.2496,7.2496,7.2496,7.2496,7.2496,7.2496,7.2496,7.2496,7.2496,7.2496,7.2496,7.2496,7.2496,7.2496,7.2496,7.2496,7.2496,7.2496,7.2496,7.2496,7.2496,7.2496,7.2496,7.2496,7.2496,7.2496,7.2496,7.2496,7.2496,7.2496,7.2496,7.2496,7.2496,7.2496,7.2496,7.2496,7.2496,7.2496,7.2496,7.2496,7.2496,7.2496,7.2496,7.2496,7.2496,7.2496,7.2496,7.2496,7.2496,7.2496,7.2496,7.2496,7.2496,7.2496,7.2496,7.2496,7.2496,7.2496,7.2496,7.2496,7.2496,7.2496,7.2496,7.2496,7.2496,7.2496,7.2496,7.2496,7.2496,7.2496,7.2496,7.2496,7.2496,7.2496,7.2496,7.2496,7.2496,7.2496,7.2496,7.2496,7.2496,7.2496,7.2496,7.2496,7.2496,7.2496,7.2496,7.2496,7.2496,7.2496,7.2496,7.2496,7.2496,0.0,0.0,0.0,7.0881,7.0367,7.0367,7.022,7.011,7.011,7.011,7.011,7.011,7.011,7.0183,7.0367,7.0367,7.077,7.1564,7.1564,7.1857,7.2496,7.2496,7.2496,7.2496,7.2496,7.2496,7.2496,7.2496,7.2496,7.2496,7.2496,7.2496,7.2496,7.2496,7.2496,7.2496,7.2496,7.2496,7.2496,7.2496,7.2496,7.2496,7.2496,7.2496,7.2496,7.2496,7.2496,7.2496,7.2496,7.2496,7.2496,7.2496,7.2496,7.2496,7.2496,7.2496,7.2496,7.2496,7.2496,7.2496,7.2496,7.2496,7.2496,7.2496,7.2496,7.2496,7.2496,7.2496,7.2496,7.2496,7.2496,7.2496,7.2496,7.2496,7.2496,7.2496,7.2496,7.2496,7.2496,7.2496,7.2496,7.2496,7.2496,7.2496,7.2496,7.2496,7.2496,7.2496,7.2496,7.2496,7.2496,7.2496,7.2496,7.2496,7.2496,7.2496,7.2496,7.2496,7.2496,7.2496,7.2496,7.2496,7.2496,7.2496,7.2496,7.2496,7.2496,7.2496,7.2496,7.2496,7.2496,7.2496,7.2496,7.2496,7.2496,7.2496,0.0,0.0,7.2422,7.1711,7.1197,7.1197,7.055,7.011,7.011,7.011,7.011,7.011,7.011,7.044,7.116,7.1197,7.1564,7.2386,7.2422,7.2459,7.2496,7.2496,7.2496,7.2496,7.2496,7.2496,7.2496,7.2496,7.2496,7.2496,7.2496,7.2496,7.2496,7.2496,7.2496,7.2496,7.2496,7.2496,7.2496,7.2496,7.2496,7.2496,7.2496,7.2496,7.2496,7.2496,7.2496,7.2496,7.2496,7.2496,7.2496,7.2496,7.2496,7.2496,7.2496,7.2496,7.2496,7.2496,7.2496,7.2496,7.2496,7.2496,7.2496,7.2496,7.2496,7.2496,7.2496,7.2496,7.2496,7.2496,7.2496,7.2496,7.2496,7.2496,7.2496,7.2496,7.2496,7.2496,7.2496,7.2496,7.2496,7.2496,7.2496,7.2496,7.2496,7.2496,7.2496,7.2496,7.2496,7.2496,7.2496,7.2496,7.2496,7.2496,7.2496,7.2496,7.2496,7.2496,7.2496,7.2496,7.2496,7.2496,7.2496,7.2496,7.2496,7.2496,7.2496,7.2496,7.2496,7.2496,7.2496,7.2496,7.2496,7.2496,7.2496,7.2496,0.0,7.2496,7.2496,7.2239,7.2041,7.2041,7.1762,7.1578,7.1578,7.1578,7.1578,7.1578,7.1578,7.1725,7.2041,7.2041,7.2202,7.2496,7.2496,7.2496,7.2496,7.2496,7.2496,7.2496,7.2496,7.2496,7.2496,7.2496,7.2496,7.2496,7.2496,7.2496,7.2496,7.2496,7.2496,7.2496,7.2496,7.2496,7.2496,7.2496,7.2496,7.2496,7.2496,7.2496,7.2496,7.2496,7.2496,7.2496,7.2496,7.2496,7.2496,7.2496,7.2496,7.2496,7.2496,7.2496,7.2496,7.2496,7.2496,7.2496,7.2496,7.2496,7.2496,7.2496,7.2496,7.2496,7.2496,7.2496,7.2496,7.2496,7.2496,7.2496,7.2496,7.2496,7.2496,7.2496,7.2496,7.2496,7.2496,7.2496,7.2496,7.2496,7.2496,7.2496,7.2496,7.2496,7.2496,7.2496,7.2496,7.2496,7.2496,7.2496,7.2496,7.2496,7.2496,7.2496,7.2496,7.2496,7.2496,7.2496,7.2496,7.2496,7.2496,7.2496,7.2496,7.2496,7.2496,7.2496,7.2496,7.2496,7.2496,7.2496,7.2496,7.2496,7.2496,7.2496,7.2496,7.2496,7.2496,7.2496,7.2496,7.2496,7.2496,7.2496,7.2496,7.2496,7.2496,7.2496,7.2496,7.2496,7.2496,7.2496,7.2496,7.2496,7.2496,7.2496,7.2496,7.2496,7.2496,7.2496,7.2496,7.2496,7.2496,7.2496,7.2496,7.2496,7.2496,7.2496,7.2496,7.2496,7.2496,7.2496,7.2496,7.2496,7.2496,7.2496,7.2496,7.2496,7.2496,7.2496,7.2496,7.2496,7.2496,7.2496,7.2496,7.2496,7.2496,7.2496,7.2496,7.2496,7.2496,7.2496,7.2496,7.2496,7.2496,7.2496,7.2496,7.2496,7.2496,7.2496,7.2496,7.2496,7.2496,7.2496,7.2496,7.2496,7.2496,7.2496,7.2496,7.2496,7.2496,7.2496,7.2496,7.2496,7.2496,7.2496,7.2496,7.2496,7.2496,7.2496,7.2496,7.2496,7.2496,7.2496,7.2496,7.2496,7.2496,7.2496,7.2496,7.2496,7.2496,7.2496,7.2496,7.2496,7.2496,7.2496,7.2496,7.2496,7.2496,7.2496,7.2496,7.2496,7.2496,7.2496,7.2496,7.2496,7.2496,7.2496,7.2496,7.2496,7.2496,7.2496,7.2496,7.2496,7.2496,7.2496,7.2496,7.2496,7.2496,7.2496,7.2496,7.2496,7.2496,7.2496,7.2496,7.2496,7.2496,7.2496,7.2496,7.2496,7.2496,7.2496,7.2496,7.2496,7.2496,7.2496,7.2496,7.2496,7.2496,7.2496,7.2496,7.2496,7.2496,7.2496,7.2496,7.2496,7.2496,7.2496,7.2496,7.2496,7.2496,7.2496,7.2496,7.2496,7.2496,7.2496,7.2496,7.2496,7.2496,7.2496,7.2496,7.2496,7.2496,7.2496,7.2496,7.2496,7.2496,7.2496,7.2496,7.2496,7.2496,7.2496,7.2496,7.2496,7.2496,7.2496,7.2496,7.2496,7.2496,7.2496,7.2496,7.2496,7.2496,7.2496,7.2496,7.2496,7.2496,7.2496,7.2496,7.2496,7.2496,7.2496,7.2496,7.2496,7.2496,7.2496,7.2496,7.2496,7.2496,7.2496,7.2496,7.2496,7.2496,7.2496,7.2496,7.2496,7.2496,7.2496,7.2496,7.2496,7.2496,7.2496,7.2496,7.2496,7.2496,7.2496,7.2496,7.2496,7.2496,7.2496,7.2496,7.2496,7.2496,7.2496,7.2496,7.2496,7.2496,7.2496,7.2496,7.2496,7.2496,7.2496,7.2496,7.2496,7.2496,7.2496,7.2496,7.2496,7.2496,7.2496,7.2496,7.2496,7.2496,7.2496,7.2496,7.2496,7.2496,7.2496,7.2496,7.2496,7.2496,7.2496,7.2496,7.2496,7.2496,7.2496,7.2496,7.2496,7.2496,7.2496,7.2496,7.2496,7.2496,7.2496,7.2496,7.2496,7.2496,7.2496,7.2496,7.2496,7.2496,7.2496,7.2496,7.2496,7.2496,7.2496,7.2496,7.2496,7.2496,7.2496,7.2496,7.2496,7.2496,7.2496,7.2496,7.2496,7.2496,7.2496,7.2496,7.2496,7.2496,7.2496,7.2496,7.2496,7.2496,7.2496,7.2496,7.2496,7.2496,7.2496,7.2496,7.2496,7.2496,7.2496,7.2496,7.2496,7.2496,7.2496,7.2496,7.2496,7.2496,7.2496,7.2496,7.2496,7.2496,7.2496,7.2496,7.2496,7.2496,7.2496,7.2496,7.2496,7.2496,7.2496,7.2496,7.2496,7.2496,7.2496,7.2496,7.2496,7.2496,7.2496,7.2496,7.2496,7.2496,7.2496,7.2496,7.2496,7.2496,7.2496,7.2496,7.2496,7.2496,7.2496,7.2496,7.2496,7.2496,7.2496,7.2496,7.2496,7.2496,7.2496,7.2496,7.2496,7.2496,7.2496,7.2496,7.2496,7.2496,7.2496,7.2496,7.2496,7.2496,7.2496,7.2496,7.2496,7.2496,7.2496,7.2496,7.2496,7.2496,7.2496,7.2496,7.2496,7.2496,7.2496,7.2496,7.2496,7.2496,7.2496,7.2496,7.2496,7.2496,7.2496,7.2496,7.2496,7.2496,7.2496,7.2496,7.2496,7.2496,7.2496,7.2496,7.2496,7.2496,7.2496,7.2496,7.2496,7.2496,7.2496,7.2496,7.2496,7.2496,7.2496,7.2496,7.2496,7.2496,7.2496,7.2496,7.2496,7.2496,7.2496,7.2496,7.2496,7.2496,7.2496,7.2496,7.2496,7.2496,7.2496,7.2496,7.2496,7.2496,7.2496,7.2496,7.2496,7.2496,7.2496,7.2496,7.2496,7.2496,7.2496,7.2496,7.2496,7.2496,7.2496,7.2496,7.2496,7.2496,7.2496,7.2496,7.2496,7.2496,7.2496,7.2496,7.2496,7.2496,7.2496,7.2496,7.2496,7.2496,7.2496,7.2496,7.2496,7.2496,7.2496,7.2496,7.2496,7.2496,7.2496,7.2496,7.2496,7.2496,7.2496,7.2496,7.2496,7.2496,7.2496,7.2496,7.2496,7.2496,7.2496,7.2496,7.2496,7.2496,7.2496,7.2496,7.2496,7.2496,7.2496,7.2496,7.2496,7.2496,7.2496,7.2496,7.2496,7.2496,7.2496,7.2496,7.2496,7.2496,7.2496,7.2496,7.2496,7.2496,7.2496,7.2496,7.2496,7.2496,7.2496,7.2496,7.2496,7.2496,7.2496,7.2496,7.2496,7.2496,7.2496,7.2496,7.2496,7.2496,7.2496,7.2496,7.2496,7.2496,7.2496,7.2496,7.2496,7.2496,7.2496,7.2496,7.2496,7.2496,7.2496,7.2496,7.2496,7.2496,7.2496,7.2496,7.2496,7.2496,7.2496,7.2496,7.2496,7.2496,7.2496,7.2496,7.2496,7.2496,7.2496,7.2496,7.2496,7.2496,7.2496,7.2496,7.2496,7.2496,7.2496,7.2496,7.2496,7.2496,7.2496,7.2496,7.2496,7.2496,7.2496,7.2496,7.2496,7.2496,7.2496,7.2496,7.2496,7.2496,7.2496,7.2496,7.2496,7.2496,7.2496,7.2496,7.2496,7.2496,7.2496,7.2496,7.2496,7.2496,7.2496,7.2496,7.2496,7.2496,7.2496,7.2496,7.2496,7.2496,7.2496,7.2496,7.2496,7.2496,7.2496,7.2496,7.2496,7.2496,7.2496,7.2496,7.2496,7.2496,7.2496,7.2496,7.2496,7.2496,7.2496,7.2496,7.2496,7.2496,7.2496,7.2496,7.2496,7.2496,7.2496,7.2496,7.2496,7.2496,7.2496,7.2496,7.2496,7.2496,7.2496,7.2496,7.2496,7.2496,7.2496,7.2496,7.2496,7.2496,7.2496,7.2496,7.2496,7.2496,7.2496,7.2496,7.2496,7.2496,7.2496,7.2496,7.2496,7.2496,7.2496,7.2496,7.2496,7.2496,7.2496,7.2496,7.2496,7.2496,7.2496,7.2496,7.2496,7.2496,7.2496,7.2496,7.2496,7.2496,7.2496,7.2496,7.2496,7.2496,7.2496,7.2496,7.2496,7.2496,7.2496,7.2496,7.2496,7.2496,7.2496,7.2496,7.2496,7.2496,7.2496,7.2496,7.2496,7.2496,7.2496,7.2496,7.2496,7.2496,7.2496,7.2496,7.2496,7.2496,7.2496,7.2496,7.2496,7.2496,7.2496,7.2496,7.2496,7.2496,7.2496,7.2496,7.2496,7.2496,7.2496,7.2496,7.2496,7.2496,7.2496,7.2496,7.2496,7.2496,7.2496,7.2496,7.2496,7.2496,7.2496,7.2496,7.2496,7.2496,7.2496,7.2496,7.2496,7.2496,7.2496,7.2496,7.2496,7.2496,7.2496,7.2496,7.2496,7.2496,7.2496,7.2496,7.2496,7.2496,7.2496,7.2496,7.2496,7.2496,7.2496,7.2496,7.2496,7.2496,7.2496,7.2496,7.2496,7.2496,7.2496,7.2496,7.2496,7.2496,7.2496,7.2496,7.2496,7.2496,7.2496,7.2496,7.2496,7.2496,7.2496,7.2496,7.2496,7.2496,7.2496,7.2496,7.2496,7.2496,7.2496,7.2496,7.2496,7.2496,7.2496,7.2496,7.2496,7.2496,7.2496,7.2496,7.2496,7.2496,7.2496,7.2496,7.2496,7.2496,7.2496,7.2496,7.2496,7.2496,7.2496,7.2496,7.2496,7.2496,7.2496,7.2496,7.2496,7.2496,7.2496,7.2496,7.2496,7.2496,7.2496,7.2496,7.2496,7.2496,7.2496,7.2496,7.2496,7.2496,7.2496,7.2496,7.2496,7.2496,7.2496,7.2496,7.2496,7.2496,7.2496,7.2496,7.2496,7.2496,7.2496,7.2496,7.2496,7.2496,7.2496,7.2496,7.2496,7.2496,7.2496,7.2496,7.2496,7.2496,7.2496,7.2496,7.2496,7.2496,7.2496,7.2496,7.2496,7.2496,7.2496,7.2496,7.2496,7.2496,7.2496,7.2496,7.2496,7.2496,7.2496,7.2496,7.2496,7.2496,7.2496,7.2496,7.2496,7.2496,7.2496,7.2496,7.2496,7.2496,7.2496,7.2496,7.2496,7.2496,7.2496,7.2496,7.2496,7.2496,7.2496,7.2496,7.2496,7.2496,7.2496,7.2496,7.2496,7.2496,7.2496,7.2496,7.2496,7.2496,7.2496,7.2496,7.2496,7.2496,7.2496,7.2496,7.2496,7.2496,7.2496,7.2496,7.2496,7.2496,7.2496,7.2496,7.2496,7.2496,7.2496,7.2496,7.2496,7.2496,7.2496,7.2496,7.2496,7.2496,7.2496,7.2496,7.2496,7.2496,7.2496,7.2496,7.2496,7.2496,7.2496,7.2496,7.2496,7.2496,7.2496,7.2496,7.2496,7.2496,7.2496,7.2496,7.2496,7.2496,7.2496,7.2496,7.2496,7.2496,7.2496,7.2496,7.2496,7.2496,7.2496,7.2496,7.2496,7.2496,7.2496,7.2496,7.2496,7.2496,7.2496,7.2496,7.2496,7.2496,7.2496,7.2496,7.2496,7.2496,7.2496,7.2496,7.2496,7.2496,7.2496,7.2496,7.2496,7.2496,7.2496,7.2496,7.2496,7.2496,7.2496,7.2496,7.2496,7.2496,7.2496,7.2496,7.2496,7.2496,7.2496,7.2496,7.2496,7.2496,7.2496,7.2496,7.2496,7.2496,7.2496,7.2496,7.2496,7.2496,7.2496,7.2496,7.2496,7.2496,7.2496,7.2496,7.2496,7.2496,7.2496,7.2496,7.2496,7.2496,7.2496,7.2496,7.2496,7.2496,7.2496,7.2496,7.2496,7.2496,7.2496,7.2496,7.2496,7.2496,7.2496,7.2496,7.2496,7.2496,7.2496,7.2496,7.2496,7.2496,7.2496,7.2496,7.2496,7.2496,7.2496,7.2496,7.2496,7.2496,7.2496,7.2496,7.2496,7.2496,7.2496,7.2496,7.2496,7.2496,7.2496,7.2496,7.2496,7.2496,7.2496,7.2496,7.2496,7.2496,7.2496,7.2496,7.2496,7.2496,7.2496,7.2496,7.2496,7.2496,7.2496,7.2496,7.2496,7.2496,7.2496,7.2496,7.2496,7.2496,7.2496,7.2496,7.2496,7.2496,7.2496,7.2496,7.2496,7.2496,7.2496,7.2496,7.2496,7.2496,7.2496,7.2496,7.2496,7.2496,7.2496,7.2496,7.2496,7.2496,7.2496,7.2496,7.2496,7.2496,7.2496,7.2496,7.2496,7.2496,7.2496,7.2496,7.2496,7.2496,7.2496,7.2496,7.2496,7.2496,7.2496,7.2496,7.2496,7.2496,7.2496,7.2496,7.2496]}]]